     2              OBSERVATION DATA    GPS                 RINEX VERSION / TYPE
ASRINEXO V2.2.0 UX USGS 03-FEB-94 10:27                     PGM / RUN BY / DATE
                                                            COMMENT
Original Marker Name: WILD                                  COMMENT
Campaign Name: USGS-So. Cal Monit                           COMMENT
4-Character Station Name: WD91                              COMMENT
6-Character Antenna Code: ASHL12                            COMMENT
Vertical Measurement Point: BBE                             COMMENT
Vertical Offset to Rinex Ref. Point: 0.0595                 COMMENT
Radial Measurement Point: EGP                               COMMENT
Radial Offset to Rinex Ref. Point: 0.1424                   COMMENT
Antenna Height from Field Measurement: 1.4320 m             COMMENT
Additional Antenna Identification Info.:                    COMMENT
Original Ashtech L1/L2                                      COMMENT
Original XYZ: -2387830.3000 -4745256.2800 3520947.1800      COMMENT
New XYZ position is based on association with SCEC monument COMMENT
E1D0T2D4+0011. Position of that monument is believed to be  COMMENT
valid to within 1 m horizontally; vertical accuracy         COMMENT
should be no worse than 3-times this value.                 COMMENT
                                                            COMMENT
Revised Rinex header created by UCSD GPS archive for        COMMENT
GSAC on 12-Nov-1999 (1999:316) 16:31:07 GMT                 COMMENT
For assistance contact dagnew@ucsd.edu or hjohnson@ucsd.edu COMMENT
                                                            COMMENT
WILD                                                        MARKER NAME
                                                            MARKER NUMBER
JMS US GEOLOGICAL SURVEY                                    OBSERVER / AGENCY
762 ASHTECH L-XII 6A                                        REC # / TYPE / VERS
745 ASHTECH GEODETIC L                                      ANT # / TYPE
 -2387846.0000 -4745235.0000  3520961.0000                  APPROX POSITION XYZ
        1.3654        0.0000        0.0000                  ANTENNA: DELTA H/E/N
     1     2     0                                          WAVELENGTH FACT L1/2
     3    C1    L1    L2                                    # / TYPES OF OBSERV
    30                                                      INTERVAL
  1991    11    20    14    38   30.000000                  TIME OF FIRST OBS
  1991    11    20    21     0    0.000000                  TIME OF LAST OBS
                                                            END OF HEADER
 91 11 20 14 38 30.0000000  0  4 12 16 20 24
  29796036.027       97963.784 5     76335.890 2
  27195557.115      -49057.759 8    -38226.573 7
  26395128.331      -32280.877 8    -25154.181 9
  27973867.800       68176.601 7     53124.990 7
 91 11 20 14 39  0.0000000  0  4 12 16 20 24
  24118988.274       98160.845 5     76489.322 2
  21490115.101      -48514.611 8    -37803.240 7
  20692937.572      -31695.743 8    -24698.146 9
  22291058.317       68428.742 7     53321.584 7
 91 11 20 14 39 30.0000000  0  5 12 16 20  3 24
  24137982.819      198021.799 5    154302.859 2
  21480839.228      -97256.157 8    -75783.697 7
  20686918.939      -63322.873 8    -49342.709 9
  23587119.580      -62998.151 5    -49088.862 4
  22304327.428      138159.695 7    107657.294 6
 91 11 20 14 40  0.0000000  0  5 12 16 20  3 24
  24156998.356      297972.450 5    232186.318 2
  21471667.970     -145437.540 8   -113327.659 7
  20681010.330      -94365.507 8    -73531.835 9
  23574730.048     -128126.016 5    -99837.895 3
  22317634.615      208086.009 7    162145.237 6
 91 11 20 14 40 30.0000000  0  5 12 16 20  3 24
  24176040.575      398019.734 5    310145.023 2
  21462607.939     -193053.497 8   -150431.037 7
  20675215.654     -124819.177 8    -97262.020 9
  23562349.520     -193201.841 5   -150546.395 3
  22330976.580      278218.629 7    216793.953 6
 91 11 20 14 41  0.0000000  0  5 12 16 20  3 24
  24195108.881      498193.063 5    388201.975 2
  21453657.041     -240079.680 8   -187074.846 8
  20669540.581     -154650.119 8   -120506.962 9
  23549973.791     -258193.345 5   -201189.151 2
  22344369.518      348571.930 7    271614.602 6
 91 11 20 14 41 30.0000000  0  5 12 16 20  3 24
  24214202.351      598529.795 5    466386.272 2
  21444830.250     -286473.073 8   -223225.562 8
  20663992.913     -183800.636 9   -143221.696 9
  23537639.436     -323059.936 5   -251734.604 1
  22357799.013      419169.619 7    326625.685 6
 91 11 20 14 42  0.0000000  0  5 12 16 20  3 24
  24233317.128      699012.616 5    544684.403 4
  21436120.986     -332247.606 8   -258894.055 7
  20658572.963     -212266.616 8   -165403.041 9
  23525312.270     -387815.914 6   -302193.877 2
  22371275.293      489985.250 7    381806.590 6
 91 11 20 14 42 30.0000000  0  5 12 16 20  3 24
  24252461.866      799618.798 5    623079.054 3
  21427522.932     -377418.928 8   -294092.508 8
  20653285.232     -240064.070 8   -187063.447 9
  23513004.893     -452481.062 6   -352582.342 1
  22384787.834      560978.893 7    437126.206 6
 91 11 20 14 43  0.0000000  0  6 12 16 20  3 17 24
  24271634.804      900370.435 5    701586.665 2
  21419049.299     -421950.317 8   -328792.328 8
  20648127.297     -267171.195 8   -208185.936 9
  23500723.291     -517029.986 6   -402880.289 3
  24444279.581     -213940.211 4   -166706.314 3
  22398334.560      632161.004 7    492592.671 6
 91 11 20 14 43 30.0000000  0  6 12 16 20  3 17 24
  24290840.095     1001272.435 5    780211.892 2
  21410701.586     -465830.379 7   -362984.606 7
  20643100.675     -293582.576 8   -228766.286 9
  23488467.479     -581454.952 6   -453081.610 2
  24425579.125     -312229.078 3   -243295.133 3
  22411915.454      703554.016 7    548223.491 6
 91 11 20 14 44  0.0000000  0  6 12 16 20  3 17 24
  24310057.392     1102293.163 5    858929.110 3
  21402465.379     -509091.027 7   -396694.232 7
  20638199.380     -319342.234 8   -248838.808 9
  23476221.841     -645785.009 6   -503209.010 3
  24406929.641     -410232.072 3   -319661.189 1
  22425539.223      775139.289 7    604004.105 6
 91 11 20 14 44 30.0000000  0  6 12 16 20  3 17 24
  24329301.073     1203428.738 5    937735.822 2
  21394352.703     -551733.691 7   -429922.315 7
  20633421.580     -344459.394 9   -268410.677 9
  23463996.917     -710020.307 6   -553262.548 2
  24388330.518     -507956.265 4   -395809.995 2
  22439200.457      846932.529 7    659946.781 6
 91 11 20 14 45  0.0000000  0  6 12 16 20  3 17 24
  24348570.232     1304638.303 5   1016600.214 3
  21386346.735     -593813.442 7   -462711.754 6
  20628755.915     -368975.905 9   -287514.511 9
  23451784.574     -774199.147 6   -603272.085 2
  24369779.349     -605435.489 4   -471767.929 3
  22452892.579      918901.296 7    716026.241 6
 91 11 20 14 45 30.0000000  0  6 12 16 20  3 17 24
  24367861.587     1406029.335 5   1095606.037 2
  21378461.907     -635224.199 7   -494979.903 7
  20624223.640     -392781.623 8   -306064.476 9
  23439604.304     -838210.799 6   -653151.351 3
  24351301.645     -702561.588 4   -547450.713 2
  22466652.459      991171.580 7    772340.622 7
 91 11 20 14 46  0.0000000  0  6 12 16 20  3 17 24
  24387202.990     1507643.820 5   1174786.413 3
  21370719.751     -675923.959 7   -526694.031 7
  20619837.685     -415835.759 8   -324028.798 9
  23427461.501     -902010.201 6   -702865.242 2
  24332889.292     -799311.529 4   -622840.373 3
  22480469.298     1063780.255 7    828918.678 6
 91 11 20 14 46 30.0000000  0  6 12 16 20  3 17 24
  24406559.085     1609349.947 5   1254037.685 2
  21363087.637     -716035.757 8   -557949.996 8
  20615572.241     -438260.445 8   -341502.628 9
  23415338.206     -965725.933 6   -752513.911 2
  24314524.909     -895831.020 4   -698050.471 2
  22494324.805     1136591.345 7    885654.479 6
 91 11 20 14 47  0.0000000  0  6 12 16 20  3 17 24
  24425922.981     1711142.169 5   1333356.104 2
  21355568.251     -755544.029 8   -588735.685 7
  20611419.508     -460067.445 8   -358495.155 9
  23403231.681    -1029360.811 6   -802099.579 2
  24296204.292     -992112.973 5   -773075.478 1
  22508213.887     1209593.049 7    942538.810 6
 91 11 20 14 47 30.0000000  0  6 12 16 20  3 17 24
  24445309.370     1813018.164 5   1412739.778 2
  21348166.671     -794427.786 8   -619034.744 7
  20607390.898     -481245.987 8   -374997.966 9
  23391136.255    -1092913.892 6   -851621.516 3
  24277930.738    -1088158.655 5   -847916.398 1
  22522141.639     1282789.649 7    999575.014 6
 91 11 20 14 48  0.0000000  0  6 12 16 20  3 17 24
  24464708.027     1914975.582 5   1492186.920 2
  21340892.216     -832685.514 8   -648845.984 8
  20603485.504     -501771.381 8   -390991.830 9
  23379057.912    -1156384.583 6   -901079.276 4
  24259698.262    -1183965.824 5   -922571.408 2
  22536106.874     1356167.627 7   1056752.564 6
 91 11 20 14 48 30.0000000  0  6 12 16 20  3 17 24
  24484124.396     2017007.573 5   1571692.141 2
  21333732.566     -870305.986 8   -678160.669 7
  20599705.717     -521635.558 8   -406470.461 9
  23366998.171    -1219776.743 6   -950475.808 2
  24241507.457    -1279520.195 5   -997029.484 2
  22550098.493     1429726.467 7   1114071.020 5
 91 11 20 14 49  0.0000000  0  6 12 16 20  3 17 24
  24503566.835     2119112.200 5   1651254.406 1
  21326691.630     -907299.489 7   -706986.809 8
  20596050.647     -540830.572 8   -421427.673 9
  23354956.108    -1283089.387 6   -999810.405 2
  24223382.893    -1374811.892 5  -1071282.887 3
  22564129.672     1503461.714 7   1171526.947 6
 91 11 20 14 49 30.0000000  0  6 12 16 20  3 17 24
  24522995.489     2221281.134 5   1730866.401 1
  21319767.925     -943685.708 7   -735339.741 8
  20592528.984     -559349.650 8   -435858.179 9
  23342913.433    -1346327.853 6  -1049087.172 3
  24205304.520    -1469842.062 4  -1145332.460 2
  22578198.631     1577356.897 7   1229107.493 6
 91 11 20 14 50  0.0000000  0  6 12 16 20  3 17 24
  24542455.605     2323506.245 5   1810522.574 3
  21312956.041     -979475.270 7   -763227.748 8
  20589129.350     -577207.336 8   -449773.309 9
  23330894.159    -1409496.955 6  -1098309.918 5
  24187258.517    -1564615.371 4  -1219181.859 2
  22592291.584     1651404.073 7   1286806.471 6
 91 11 20 14 50 30.0000000  0  6 12 16 20  3 17 24
  24561919.037     2425805.826 4   1890236.295 1
  21306264.685    -1014646.770 7   -790634.146 8
  20585857.399     -594402.875 9   -463172.483 9
  23318888.078    -1472575.223 6  -1147461.896 3
  24169275.753    -1659108.220 4  -1292812.780 2
  22606411.812     1725628.561 6   1344643.612 6
 91 11 20 14 51  0.0000000  0  6 12 16 20  3 17 24
  24581395.958     2528160.135 4   1969993.185 3
  21299680.334    -1049228.359 7   -817580.880 8
  20582708.089     -610962.771 8   -476076.345 9
  23306903.269    -1535579.620 6  -1196556.275 3
  24151341.868    -1753342.071 4  -1366241.909 2
  22620559.017     1800008.801 6   1402602.104 5
 91 11 20 14 51 30.0000000  0  6 12 16 20  3 17 24
  24600895.058     2630573.817 5   2049795.819 2
  21293217.419    -1083197.003 8   -844049.988 8
  20579676.584     -626882.377 8   -488481.280 9
  23294929.261    -1598502.342 6  -1245587.013 3
  24133472.444    -1847313.047 5  -1439466.201 3
  22634755.380     1874565.614 6   1460698.206 6
 91 11 20 14 52  0.0000000  0  6 12 16 20  3 17 24
  24620395.048     2733061.513 5   2129656.628 2
  21286875.608    -1116523.341 8   -870018.597 8
  20576773.688     -642139.723 8   -500370.163 9
  23282971.726    -1661325.574 6  -1294540.243 3
  24115637.484    -1941009.438 5  -1512476.469 2
  22648980.239     1949330.773 6   1518956.653 5
 91 11 20 14 52 30.0000000  0  6 12 16 20  3 17 24
  24639898.650     2835611.768 4   2209565.721 2
  21280659.701    -1149202.395 8   -895482.835 8
  20573995.823     -656736.986 8   -511744.699 9
  23271037.592    -1724057.770 6  -1343422.517 3
  24097864.297    -2034429.910 4  -1585271.765 2
  22663242.861     2024292.089 6   1577367.919 5
 91 11 20 14 53  0.0000000  0  6 12 16 20  3 17 24
  24659429.527     2938222.613 4   2289521.982 1
  21274564.619    -1181219.459 8   -920431.223 8
  20571345.362     -670663.148 8   -522596.303 9
  23259116.947    -1786697.920 6  -1392233.081 3
  24080138.767    -2127567.874 4  -1657846.902 2
  22677545.356     2099444.798 7   1635928.331 5
 91 11 20 14 53 30.0000000  0  6 12 16 20  3 17 24
  24678962.813     3040885.009 4   2369518.437 2
  21268601.758    -1212576.255 8   -944865.128 8
  20568824.695     -683913.567 8   -532921.353 9
  23247213.385    -1849251.807 6  -1440976.427 2
  24062471.992    -2220427.001 4  -1730204.760 2
  22691889.836     2174791.822 7   1694640.153 4
 91 11 20 14 54  0.0000000  0  6 12 16 20  3 17 24
  24698502.991     3143545.002 4   2449513.477 3
  21262748.902    -1243332.817 8   -968831.307 8
  20566422.760     -696540.483 9   -542760.562 9
  23235314.029    -1911770.447 6  -1489692.306 2
  24044824.413    -2313059.109 4  -1802385.712 2
  22706251.994     2250273.443 7   1753456.881 5
 91 11 20 14 54 30.0000000  0  6 12 16 20  3 17 24
  24718044.355     3246200.934 4   2529504.857 1
  21257006.978    -1273502.831 8   -992340.431 8
  20564137.741     -708548.809 9   -552117.749 9
  23223424.550    -1974252.316 6  -1538379.516 3
  24027250.281    -2405458.298 5  -1874385.160 2
  22720637.238     2325876.581 7   1812368.273 5
 91 11 20 14 55  0.0000000  0  6 12 16 20  3 17 24
  24737579.734     3348879.497 4   2609513.928
  21251375.671    -1303072.791 7  -1015381.985 9
  20561974.735     -719910.050 9   -560970.715 9
  23211550.375    -2036668.090 6  -1587015.249 2
  24009712.428    -2497601.803 4  -1946185.368 2
  22735050.053     2401627.061 7   1871394.482 6
 91 11 20 14 55 30.0000000  0  6 12 16 20  3 17 24
  24757119.005     3451582.052 4   2689541.660 2
  21245864.298    -1332044.819 8  -1037957.618 8
  20559938.259     -730622.291 9   -569317.975 9
  23199681.889    -2099012.846 6  -1635595.637 2
  23992239.316    -2589496.159 4  -2017791.437 2
  22749494.645     2477522.887 7   1930533.956 6
 91 11 20 14 56  0.0000000  0  6 12 16 20  3 17 24
  24776674.766     3554309.379 4   2769589.116 2
  21240467.731    -1360407.258 8  -1060058.241 7
  20558024.372     -740685.570 9   -577159.549 9
  23187830.504    -2161282.858 6  -1684117.752 3
  23974794.700    -2681133.697 4  -2089197.373 3
  22763959.637     2553538.945 7   1989767.096 6
 91 11 20 14 56 30.0000000  0  6 12 16 20  3 17 24
  24796220.633     3657049.198 4   2849646.336 2
  21235188.081    -1388155.174 8  -1081680.015 7
  20556231.624     -750103.811 9   -584498.496 9
  23175994.091    -2223487.583 6  -1732589.042 3
  23957411.526    -2772504.769 4  -2160395.672 3
  22778440.211     2629661.627 7   2049083.347 5
 91 11 20 14 57  0.0000000  0  6 12 16 20  3 17 24
  24815778.191     3759812.693 4   2929721.536 3
  21230031.960    -1415262.371 8  -1102802.540 8
  20554559.980     -758863.137 8   -591323.999 9
  23164177.781    -2285612.225 6  -1780997.896 1
  23940075.136    -2863604.321 4  -2231382.347 2
  22792957.065     2705914.347 7   2108500.899 6
 91 11 20 14 57 30.0000000  0  6 12 16 20  3 17 24
  24835336.953     3862585.981 4   3009804.856 2
  21224990.645    -1441738.888 8  -1123433.623 8
  20553021.743     -766974.670 9   -597644.725 9
  23152363.844    -2347667.908 6  -1829353.044 1
  23922783.994    -2954448.770 4  -2302170.241 2
  22807491.596     2782292.696 7   2168016.364 5
 91 11 20 14 58  0.0000000  0  6 12 16 20  3 17 24
  24854896.309     3965372.419 4   3089897.940 2
  21220073.749    -1467579.466 8  -1143569.162 9
  20551600.423     -774434.462 8   -603457.615 9
  23140573.307    -2409648.292 6  -1877649.538 1
  23905552.532    -3045023.759 4  -2372748.234 2
  22822052.825     2858813.401 7   2227642.761 5
 91 11 20 14 58 30.0000000  0  6 12 16 20  3 17 24
  24874446.975     4068166.795 4   3169997.687 3
  21215277.068    -1492790.489 8  -1163214.141 9
  20550303.820     -781244.147 9   -608763.925 9
  23128788.181    -2471555.408 6  -1925888.925 3
  23888356.442    -3135338.769 4  -2443123.609 2
  22836646.111     2935504.447 6   2287401.875 6
 91 11 20 14 59  0.0000000  0  6 12 16 20  3 17 24
  24894016.836     4170968.231 4   3250102.435 2
  21210602.713    -1517363.269 8  -1182361.791 8
  20549133.137     -787393.948 8   -613556.033 9
  23117026.123    -2533387.144 6  -1974069.544 2
  23871216.699    -3225406.109 4  -2513305.963 1
  22851273.599     3012365.159 7   2347293.213 6
 91 11 20 14 59 30.0000000  0  6 12 16 20  3 17 24
  24913585.178     4273775.720 4   3330211.924 1
  21206048.852    -1541289.706 8  -1201005.808 8
  20548091.952     -792866.016 8   -617820.037 9
  23105272.145    -2595141.145 6  -2022189.588 3
  23854136.321    -3315205.453 4  -2583279.548 2
  22865932.253     3089390.086 7   2407312.529 5
 91 11 20 15  0  0.0000000  0  6 12 16 20  3 17 24
  24933137.344     4376578.126 4   3410317.453 2
  21201620.022    -1564562.368 8  -1219140.394 9
  20547182.674     -797664.270 9   -621558.984 9
  23093534.378    -2656825.665 6  -2070255.482 3
  23837098.818    -3404724.713 4  -2653034.853 2
  22880617.571     3166559.709 7   2467444.569 4
 91 11 20 15  0 30.0000000  0  6 12 16 20  3 17 24
  24952692.215     4479368.219 4   3490413.865 2
  21197317.409    -1587177.035 8  -1236762.258 9
  20546396.925     -801781.506 9   -624767.286 9
  23081805.598    -2718444.928 6  -2118270.555 3
  23820109.583    -3493963.999 4  -2722572.053 2
  22895327.197     3243860.179 7   2527678.597 4
 91 11 20 15  1  0.0000000  0  6 12 16 20  3 17 24
  24972254.869     4582146.822 4   3570500.856 2
  21193140.403    -1609127.581 8  -1253866.618 8
  20545744.584     -805213.521 8   -627441.634 9
  23070098.108    -2779994.947 6  -2166231.678 4
  23803202.782    -3582915.336 5  -2791884.849 2
  22910059.002     3321273.590 7   2588000.616 4
 91 11 20 15  1 30.0000000  0  6 12 16 20  3 17 24
  24991823.823     4684911.447 4   3650577.393 1
  21189086.298    -1630431.057 8  -1270466.777 8
  20545216.051     -807979.884 8   -629597.300 9
  23058390.006    -2841475.065 6  -2214138.326 4
  23786322.070    -3671579.193 5  -2860973.692 4
  22924810.282     3398797.725 6   2648408.915 3
 91 11 20 15  2  0.0000000  0  6 12 16 20  3 17 24
  25011368.782     4787656.947 4   3730638.615 2
  21185154.223    -1651094.198 8  -1286567.971 8
  20544814.016     -810105.984 8   -631254.079 9
  23046709.493    -2902887.424 6  -2261992.167 4
  23769496.814    -3759966.056 5  -2929846.655 2
  22939576.866     3476427.384 6   2708899.425 3
 91 11 20 15  2 30.0000000  0  5 16 20  3 17 24
  21181340.862    -1671138.002 8  -1302186.562 8
  20544527.728     -811595.929 8   -632415.115 9
  23035033.483    -2964241.096 6  -2309800.298 3
  23752730.331    -3848103.519 5  -2998525.297 2
  22954371.021     3554164.352 6   2769473.575 4
 91 11 20 15  3  0.0000000  0  5 16 20  3 17 24
  21177639.933    -1690566.386 8  -1317325.608 9
  20544365.231     -812453.007 8   -633083.025 9
  23023377.540    -3025528.632 6  -2357556.862 3
  23736011.208    -3935982.488 5  -3067002.500 2
  22969191.560     3632020.277 6   2830140.397 4
 91 11 20 15  3 30.0000000  0  5 16 20  3 17 24
  21174058.310    -1709387.247 8  -1331991.261 9
  20544322.059     -812674.958 8   -633256.073 9
  23011723.116    -3086751.086 6  -2405262.737 4
  23719340.334    -4023596.787 5  -3135273.459 4
  22984035.187     3710009.628 6   2890911.190 4
 91 11 20 15  4  0.0000000  0  5 16 20  3 17 24
  21170594.494    -1727599.370 8  -1346182.554 8
  20544407.810     -812231.991 8   -632910.940 9
  23000085.478    -3147910.227 6  -2452919.265 3
  23702715.058    -4110944.662 5  -3203336.831 2
  22998898.288     3788138.373 6   2951790.584 4
 91 11 20 15  4 30.0000000  0  5 16 20  3 17 24
  21167244.628    -1745197.022 8  -1359895.050 8
  20544620.947     -811106.470 8   -632033.971 9
  22988458.328    -3209001.957 6  -2500523.260 5
  23686141.923    -4198026.574 5  -3271192.957 3
  23013789.588     3866415.286 6   3012785.444 4
 91 11 20 15  5  0.0000000  0  5 16 20  3 17 24
  21164015.553    -1762184.182 8  -1373131.825 9
  20544965.711     -809307.604 8   -630632.316 9
  22976846.168    -3270030.385 6  -2548077.955 3
  23669619.760    -4284833.826 5  -3338835.063 2
  23028718.947     3944825.097 6   3073883.870 6
 91 11 20 15  5 30.0000000  0  5 16 20  3 17 24
  21160898.612    -1778551.546 8  -1385885.649 8
  20545434.598     -806829.546 8   -628701.423 9
  22965245.996    -3330993.606 6  -2595581.820 3
  23653155.759    -4371384.351 5  -3406277.081 2
  23043659.701     4023356.567 6   3135077.080 5
 91 11 20 15  6  0.0000000  0  5 16 20  3 17 24
  21157907.593    -1794273.345 8  -1398136.436 8
  20546037.468     -803674.398 8   -626242.923 9
  22953658.720    -3391888.732 6  -2643032.639 3
  23636728.927    -4457677.393 5  -3473518.451 2
  23058622.949     4101995.280 6   3196353.879 5
 91 11 20 15  6 30.0000000  0  5 16 20  3 17 24
  21155041.272    -1809343.098 8  -1409879.143 8
  20546759.977     -799868.182 8   -623277.098 9
  22942087.620    -3452714.068 6  -2690429.060 2
  23620372.855    -4543699.307 5  -3540548.577 2
  23073606.579     4180734.171 6   3257708.709 5
 91 11 20 15  7  0.0000000  0  5 16 20  3 17 24
  21152299.669    -1823757.357 8  -1421111.064 8
  20547609.890     -795409.115 8   -619802.570 9
  22930518.039    -3513474.885 6  -2737775.234 2
  23604043.168    -4629449.460 5  -3607366.909 4
  23088604.587     4259558.049 6   3319129.792 4
 91 11 20 15  7 30.0000000  0  5 16 20  3 17 24
  21149682.782    -1837504.700 8  -1431823.324 8
  20548583.612     -790299.717 9   -615821.275 9
  22918974.824    -3574172.076 6  -2785071.822 3
  23587778.518    -4714924.825 5  -3673971.135 2
  23103616.102     4338467.415 6   3380617.466 5
 91 11 20 15  8  0.0000000  0  5 16 20  3 17 24
  21147192.112    -1850599.988 8  -1442027.484 9
  20549678.753     -784549.443 9   -611340.602 9
  22907429.813    -3634811.112 6  -2832323.082 4
  23571566.341    -4800106.107 5  -3740346.222 2
  23118659.987     4417469.297 6   3442177.248 5
 91 11 20 15  8 30.0000000  0  5 16 20  3 17 24
  21144816.247    -1863058.770 8  -1451735.669 8
  20550892.014     -778161.043 9   -606362.690 9
  22895905.794    -3695388.766 6  -2879526.508 2
  23555416.828    -4884985.192 5  -3806485.824 2
  23133705.373     4496570.738 6   3503814.591 4
 91 11 20 15  9  0.0000000  0  5 16 20  3 17 24
  21142571.102    -1874870.697 8  -1460939.809 8
  20552229.695     -771126.210 8   -600881.067 9
  22884390.761    -3755898.297 6  -2926676.874 3
  23539317.361    -4969569.576 4  -3872395.785 3
  23148782.832     4575781.901 6   3565537.454 4
 91 11 20 15  9 30.0000000  0  5 16 20  3 17 24
  21140441.077    -1886064.760 8  -1469662.506 9
  20553685.776     -763468.843 8   -594914.347 9
  22872883.529    -3816349.496 7  -2973781.757 3
  23523273.369    -5053873.400 5  -3938087.092 2
  23163871.390     4655094.952 6   3627339.689 3
 91 11 20 15 10  0.0000000  0  5 16 20  3 17 24
  21138427.374    -1896638.690 8  -1477901.967 8
  20555264.794     -755183.571 8   -588458.347 9
  22861397.587    -3876737.928 6  -3020837.725 3
  23507285.742    -5137908.251 5  -4003568.864 3
  23178986.629     4734510.099 6   3689221.492 4
 91 11 20 15 10 30.0000000  0  5 16 20  3 17 24
  21136535.090    -1906579.971 8  -1485648.466 8
  20556961.304     -746261.946 8   -581506.485 9
  22849915.832    -3937066.524 7  -3067847.050 3
  23491340.675    -5221695.318 5  -4068857.549 2
  23194118.637     4814027.471 6   3751182.921 4
 91 11 20 15 11  0.0000000  0  5 16 20  3 17 24
  21134765.707    -1915885.064 8  -1492899.225 8
  20558781.659     -736688.562 8   -574046.767 9
  22838443.972    -3997333.678 6  -3114808.516 3
  23475445.394    -5305243.469 5  -4133960.055 5
  23209268.061     4893650.577 6   3813226.757 4
 91 11 20 15 11 30.0000000  0  5 16 20  3 17 24
  21133118.040    -1924553.615 8  -1499653.974 9
  20560732.698     -726453.741 8   -566071.640 9
  22826989.509    -4057535.298 7  -3161718.899 4
  23459598.659    -5388537.264 5  -4198864.399 3
  23224443.259     4973372.395 6   3875347.523 4
 91 11 20 15 12  0.0000000  0  5 16 20  3 17 24
  21131587.011    -1932575.394 8  -1505904.751 9
  20562802.172     -715564.968 8   -557586.933 9
  22815548.222    -4117677.030 7  -3208582.630 3
  23443793.299    -5471574.528 5  -4263568.817 3
  23239632.540     5053199.488 6   3937550.280 4
 91 11 20 15 12 30.0000000  0  5 16 20  3 17 24
  21130187.573    -1939954.464 8  -1511654.706 8
  20565001.143     -704017.225 8   -548588.761 9
  22804113.844    -4177752.059 7  -3255394.383 3
  23428050.306    -5554328.427 5  -4328052.451 2
  23254843.109     5133136.988 6   3999839.097 5
 91 11 20 15 13  0.0000000  0  5 16 20  3 17 24
  21128899.660    -1946712.366 8  -1516920.630 8
  20567319.736     -691820.555 8   -539084.921 9
  22792693.549    -4237765.026 7  -3302157.763 2
  23412359.454    -5636783.983 5  -4392303.616 2
  23270069.872     5213159.055 6   4062193.771 4
 91 11 20 15 13 30.0000000  0  5 16 20  3 17 24
  21127733.182    -1952839.687 8  -1521695.197 8
  20569766.047     -678975.325 8   -529075.721 9
  22781285.539    -4297713.740 6  -3348871.095 4
  23396728.875    -5718935.218 5  -4456317.622 4
  23285319.705     5293268.197 6   4124616.324 4
 91 11 20 15 14  0.0000000  0  5 16 20  3 17 24
  21126688.700    -1958341.191 8  -1525982.114 9
  20572333.777     -665480.854 8   -518560.620 9
  22769891.629    -4357599.442 6  -3395535.312 4
  23381143.876    -5800794.348 5  -4520104.019 1
  23300578.838     5373467.555 6   4187109.167 4
 91 11 20 15 14 30.0000000  0  5 16 20  3 17 24
  21125759.947    -1963211.534 8  -1529777.224 7
  20575028.300     -651309.978 8   -507518.430 9
  22758507.316    -4417418.785 7  -3442147.830 3
  23365623.321    -5882364.327 5  -4583665.122 3
  23315854.777     5453740.624 6   4249659.450 4
 91 11 20 15 15  0.0000000  0  5 16 20  3 17 24
  21124954.392    -1967437.900 8  -1533070.523 8
  20577857.137     -636458.490 8   -495945.897 9
  22747136.493    -4477170.925 6  -3488707.985 4
  23350156.425    -5963663.455 6  -4647015.142 3
  23331145.984     5534097.342 6   4312274.923 5
 91 11 20 15 15 30.0000000  0  5 16 20  3 17 24
  21124273.275    -1971000.544 8  -1535846.647 8
  20580813.396     -620921.104 8   -483838.903 9
  22735775.842    -4536848.685 6  -3535210.190 4
  23334729.700    -6044707.960 5  -4710166.764 2
  23346454.588     5614561.780 6   4374974.323 3
 91 11 20 15 16  0.0000000  0  5 16 20  3 17 24
  21123727.049    -1973909.049 8  -1538113.049 8
  20583900.654     -604693.684 8   -471194.217 9
  22724444.003    -4596450.322 6  -3581653.069 4
  23319358.152    -6125492.853 5  -4773116.100 2
  23361789.875     5695131.366 6   4437755.640 6
 91 11 20 15 16 30.0000000  0  5 16 20  3 17 24
  21123297.442    -1976150.797 8  -1539859.900 9
  20587124.931     -587776.170 8   -458011.801 9
  22713110.034    -4655969.010 6  -3628031.319 4
  23304042.951    -6205999.917 5  -4835848.929 2
  23377140.744     5775804.550 6   4500617.708 4
 91 11 20 15 17  0.0000000  0  5 16 20  3 17 24
  21122998.258    -1977736.800 8  -1541095.789 8
  20590465.216     -570198.960 8   -444315.328 9
  22701801.263    -4715407.815 7  -3674347.319 3
  23288776.017    -6286222.169 5  -4898359.831 4
  23392514.403     5856586.522 6   4563564.541 5
 91 11 20 15 17 30.0000000  0  5 16 20  3 17 24
  21122815.083    -1978676.703 8  -1541828.214 8
  20593933.517     -551976.202 8   -430115.835 9
  22690503.888    -4774769.605 6  -3720603.303 3
  23273568.746    -6366145.918 5  -4960638.106 3
  23407906.647     5937452.191 6   4626576.584 4
 91 11 20 15 18  0.0000000  0  5 16 20  3 17 24
  21122758.719    -1978973.507 8  -1542059.569 9
  20597523.533     -533122.821 8   -415424.949 9
  22679222.409    -4834062.628 7  -3766805.690 4
  23258419.025    -6445759.253 5  -5022674.515 4
  23423305.784     6018379.607 6   4689636.753 5
 91 11 20 15 18 30.0000000  0  5 16 20  3 17 24
  21122829.165    -1978611.193 8  -1541777.287 8
  20601226.260     -513657.215 8   -400256.998 9
  22667951.401    -4893290.648 7  -3812957.432 3
  23243317.886    -6525070.334 5  -5084475.384 2
  23438715.722     6099362.093 6   4752739.830 4
 91 11 20 15 19  0.0000000  0  5 16 20  3 17 24
  21123022.234    -1977602.914 8  -1540991.671 9
  20605050.126     -493570.810 8   -384605.314 9
  22656692.101    -4952452.629 7  -3859057.720 4
  23228284.192    -6604092.170 5  -5146050.854 3
  23454133.740     6180405.278 6   4815890.195 4
 91 11 20 15 19 30.0000000  0  5 16 20  3 17 24
  21123333.721    -1975960.338 8  -1539711.780 9
  20608989.687     -472865.192 8   -368471.122 9
  22645443.586    -5011563.969 7  -3905118.564 2
  23213292.780    -6682848.582 5  -5207419.488 4
  23469562.559     6261485.145 6   4879069.131 4
 91 11 20 15 20  0.0000000  0  5 16 20  3 17 24
  21123770.517    -1973667.753 8  -1537925.395 9
  20613058.781     -451498.673 8   -351821.955 9
  22634216.064    -5070594.952 7  -3951116.806 4
  23198364.607    -6761312.760 5  -5268560.406 2
  23485014.465     6342650.312 6   4942314.560 4
 91 11 20 15 20 30.0000000  0  5 16 20  3 17 24
  21124326.935    -1970749.944 8  -1535651.834 9
  20617245.978     -429467.734 8   -334655.041 9
  22622993.934    -5129551.779 7  -3997057.221 4
  23183484.405    -6839489.147 5  -5329477.065 3
  23500474.765     6423902.759 6   5005627.986 4
 91 11 20 15 21  0.0000000  0  5 16 20  3 17 24
  21125002.363    -1967208.942 8  -1532892.656 9
  20621570.177     -406747.209 8   -316950.804 9
  22611790.388    -5188418.953 7  -4042927.797 4
  23168672.555    -6917352.370 5  -5390149.732 3
  23515951.851     6505267.044 6   5069028.557 5
 91 11 20 15 21 30.0000000  0  5 16 20  3 17 24
  21125792.020    -1963045.817 8  -1529648.695 9
  20626019.407     -383360.710 8   -298727.622 9
  22600604.519    -5247203.792 7  -4088734.229 5
  23153914.976    -6994893.178 5  -5450571.142 4
  23531456.213     6586733.360 6   5132508.640 3
 91 11 20 15 22  0.0000000  0  5 16 20  3 17 24
  21126701.595    -1958266.459 8  -1525924.571 9
  20630595.430     -359320.875 8   -279995.356 9
  22589435.158    -5305915.836 7  -4134483.937 5
  23139219.746    -7072122.262 5  -5510749.655 2
  23546974.063     6668296.221 6   5196063.963 5
 91 11 20 15 22 30.0000000  0  5 16 20  3 17 24
  21127737.074    -1952836.346 8  -1521693.367 9
  20635291.388     -334625.845 8   -260752.549 9
  22578277.785    -5364539.922 7  -4180165.102 4
  23124582.381    -7149039.961 5  -5570685.531 2
  23562520.706     6749954.646 6   5259693.708 4
 91 11 20 15 23  0.0000000  0  5 16 20  3 17 24
  21128891.266    -1946757.176 8  -1516956.389 9
  20640116.844     -309297.604 9   -241016.319 9
  22567132.994    -5423086.534 7  -4225785.881 4
  23110005.883    -7225674.215 5  -5630400.542 4
  23578070.037     6831681.511 5   5323376.806 5
 91 11 20 15 23 30.0000000  0  5 16 20  3 17 24
  21130177.975    -1940010.788 8  -1511699.498 9
  20645055.326     -283339.947 8   -220789.641 9
  22556010.994    -5481557.875 7  -4271348.036 4
  23095467.147    -7302037.748 5  -5689904.609 4
  23593632.874     6913453.227 6   5387094.830 5
 91 11 20 15 24  0.0000000  0  5 16 20  3 17 24
  21131588.808    -1932594.062 8  -1505920.276 9
  20650113.429     -256752.128 8   -200071.934 9
  22544893.198    -5539959.927 7  -4316856.192 4
  23080983.274    -7378153.992 5  -5749215.978 3
  23609202.883     6995265.377 6   5450844.364 3
 91 11 20 15 24 30.0000000  0  5 16 20  3 17 24
  21133125.247    -1924508.316 8  -1499619.722 9
  20655298.639     -229524.232 9   -178855.459 9
  22533798.768    -5598286.470 7  -4362305.493 5
  23066546.465    -7454008.986 5  -5808323.780 3
  23624777.709     7077118.822 5   5514626.090 4
 91 11 20 15 25  0.0000000  0  5 16 20  3 17 24
  21134789.998    -1915759.475 8  -1492802.474 8
  20660598.357     -201656.002 9   -157140.037 9
  22522710.656    -5656543.131 7  -4407700.349 4
  23052166.909    -7529595.248 5  -5867222.203 3
  23640357.019     7159007.226 5   5578435.054 3
 91 11 20 15 25 30.0000000  0  5 16 20  3 17 24
  21136581.856    -1906352.818 8  -1485472.640 9
  20666028.202     -173137.042 8   -134917.519 9
  22511636.922    -5714731.332 7  -4453041.872 4
  23037826.338    -7604897.848 5  -5925899.591 2
  23655951.633     7240947.147 5   5642284.182 3
 91 11 20 15 26  0.0000000  0  5 16 20  3 17 24
  21138493.929    -1896301.323 8  -1477640.329 8
  20671577.964     -143963.146 9   -112184.685 9
  22500581.773    -5772844.411 7  -4498324.850 4
  23023556.527    -7679902.200 5  -5984344.544 3
  23671558.218     7322964.993 5   5706194.025 4
 91 11 20 15 26 30.0000000  0  5 16 20  3 17 24
  21140522.621    -1885625.104 8  -1469321.234 9
  20677252.443     -114144.662 8    -88949.571 9
  22489536.518    -5830889.002 7  -4543554.462 6
  23009351.160    -7754593.386 6  -6042545.492 4
  23687179.810     7405054.526 5   5770159.680 4
 91 11 20 15 27  0.0000000  0  5 16 20  3 17 24
  21142674.530    -1874326.683 8  -1460517.301 8
  20683048.621      -83690.732 8    -65219.308 9
  22478500.564    -5888858.194 7  -4588725.316 5
  22995200.063    -7828969.527 6  -6100500.935 4
  23702818.485     7487227.191 5   5834190.148 2
 91 11 20 15 27 30.0000000  0  5 16 20  3 17 24
  21144943.355    -1862408.876 8  -1451230.731 9
  20688961.732      -52606.982 8    -40998.258 9
  22467484.084    -5946748.937 6  -4633835.032 5
  22981105.313    -7903021.569 6  -6158203.833 4
  23718470.650     7569492.646 5   5898292.916 3
 91 11 20 15 28  0.0000000  0  5 16 20  3 17 24
  21147325.205    -1849880.744 8  -1441468.580 9
  20694993.853      -20909.188 8    -16298.748 9
  22456482.298    -6004568.141 7  -4678888.987 5
  22967069.021    -7976762.350 6  -6215664.187 4
  23734133.599     7651826.951 5   5962449.290 2
 91 11 20 15 28 30.0000000  0  5 16 20  3 17 24
  21149830.882    -1836733.690 8  -1431224.160 9
  20701142.891       11398.047 8      8875.652 9
  22445492.814    -6062319.029 7  -4723889.699 4
  22953093.909    -8050206.312 6  -6272893.262 4
  23749814.243     7734208.115 5   6026642.224 4
 91 11 20 15 29  0.0000000  0  5 16 20  3 17 24
  21152448.973    -1822948.960 8  -1420482.856 8
  20707408.252       44330.470 8     34537.199 9
  22434512.317    -6119999.348 7  -4768835.468 4
  22939178.442    -8123372.420 6  -6329905.827 4
  23765505.688     7816632.902 6   6090869.137 3
 91 11 20 15 29 30.0000000  0  5 16 20  3 17 24
  21155202.565    -1808504.206 8  -1409227.243 9
  20713802.239       77910.184 9     60703.142 9
  22423557.297    -6177598.143 7  -4813717.688 3
  22925303.739    -8196256.376 6  -6386698.537 3
  23781192.317     7899103.266 5   6155131.583 3
 91 11 20 15 30  0.0000000  0  5 16 20  3 17 24
  21158072.777    -1793403.743 8  -1397460.695 9
  20720315.218      112152.117 8     87385.090 9
  22412609.467    -6235110.814 7  -4858532.794 5
  22911491.403    -8268873.062 6  -6443282.975 5
  23796892.452     7981622.099 5   6219431.752 2
 91 11 20 15 30 30.0000000  0  5 16 20  3 17 24
  21161073.690    -1777654.888 8  -1385188.910 9
  20726954.136      147040.479 9    114570.758 9
  22401687.428    -6292542.423 7  -4903284.738 4
  22897718.941    -8341231.490 6  -6499666.185 3
  23812603.372     8064190.640 5   6283770.683 3
 91 11 20 15 31  0.0000000  0  5 16 20  3 17 24
  21164188.240    -1761278.377 7  -1372428.032 9
  20733717.143      182569.442 9    142255.589 9
  22390771.095    -6349899.716 7  -4947978.764 5
  22883997.730    -8413324.720 6  -6555842.740 3
  23828334.691     8146805.612 5   6348145.785 4
 91 11 20 15 31 30.0000000  0  5 16 20  3 17 24
  21167418.799    -1744320.684 8  -1359214.300 9
  20740591.987      218704.198 8    170412.474 9
  22379865.547    -6407207.899 7  -4992634.519 4
  22870334.105    -8485165.213 6  -6611822.356 4
  23844057.302     8229437.397 5   6412533.974 2
 91 11 20 15 32  0.0000000  0  5 16 20  3 17 24
  21170760.882    -1726753.627 8  -1345525.731 8
  20747586.453      255475.162 8    199065.095 9
  22368972.580    -6464433.108 7  -5037225.633 4
  22856711.523    -8556708.192 6  -6667570.144 4
  23859796.700     8312134.140 5   6476973.271 2
 91 11 20 15 32 30.0000000  0  5 16 20  3 17 24
  21174218.102    -1708564.546 8  -1331352.476 9
  20754708.620      292881.675 8    228212.963 9
  22358102.106    -6521564.786 7  -5081743.889 5
  22843162.109    -8627927.490 6  -6723065.700 4
  23875540.915     8394901.326 5   6541466.964 3
 91 11 20 15 33  0.0000000  0  5 16 20  3 17 24
  21177791.313    -1689793.554 8  -1316725.777 9
  20761940.811      330902.649 8    257839.616 9
  22347240.619    -6578635.567 7  -5126214.676 5
  22829669.357    -8698860.481 6  -6778338.157 4
  23891298.601     8477696.756 5   6605982.663 3
 91 11 20 15 33 30.0000000  0  5 16 20  3 17 24
  21181477.567    -1670420.408 8  -1301629.874 9
  20769294.420      369536.181 8    287943.580 9
  22336395.030    -6635631.729 7  -5170627.306 5
  22816221.852    -8769504.724 6  -6833385.612 4
  23907068.572     8560540.984 5   6670536.377 4
 91 11 20 15 34  0.0000000  0  5 16 20  3 17 24
  21185284.629    -1650412.782 8  -1286039.553 9
  20776765.242      408788.683 8    318529.866 9
  22325568.636    -6692532.727 7  -5214965.803 4
  22802833.731    -8839845.581 6  -6888196.669 3
  23922843.656     8643454.785 5   6735144.337 2
 91 11 20 15 34 30.0000000  0  5 16 20  3 17 24
  21189211.608    -1629773.347 8  -1269956.911 9
  20784350.590      448651.791 8    349591.944 9
  22314756.010    -6749340.223 7  -5259231.450 4
  22789506.459    -8909885.729 6  -6942773.442 3
  23938626.541     8726409.643 5   6799784.274 2
 91 11 20 15 35  0.0000000  0  5 16 20  3 17 24
  21193258.506    -1608510.686 8  -1253388.646 9
  20792051.371      489125.488 8    381129.809 9
  22303965.580    -6806063.448 7  -5303431.420 3
  22776229.548    -8979637.256 5  -6997125.274 4
  23954419.302     8809391.232 5   6864445.058 3
 91 11 20 15 35 30.0000000  0  5 16 20  3 17 24
  21197426.822    -1586613.376 8  -1236325.854 9
  20799866.346      530201.344 8    413136.889 9
  22293189.547    -6862698.237 7  -5347562.493 3
  22763020.396    -9049082.906 5  -7051238.813 4
  23970221.067     8892412.408 5   6929136.647 1
 91 11 20 15 36  0.0000000  0  5 16 20  3 17 24
  21201711.461    -1564089.437 8  -1218774.764 9
  20807797.662      571873.549 8    445608.661 9
  22282425.206    -6919252.068 7  -5391630.466 5
  22749854.399    -9118228.264 6  -7105118.325 3
  23986018.331     8975448.298 5   6993839.775 2
 91 11 20 15 36 30.0000000  0  5 16 20  3 17 24
  21206113.313    -1540945.806 8  -1200740.812 9
  20815844.394      614149.262 8    478550.696 9
  22271680.042    -6975727.683 7  -5435637.482 3
  22736760.960    -9187081.314 6  -7158770.096 4
  24001821.579     9058494.644 5   7058550.974 3
 91 11 20 15 37  0.0000000  0  5 16 20  3 17 24
  21210640.476    -1517173.390 8  -1182216.892 9
  20824003.540      657039.616 8    511971.684 9
  22260949.869    -7032118.444 7  -5479578.387 5
  22723707.097    -9255642.657 6  -7212194.542 3
  24017631.738     9141581.939 5   7123294.130 3
 91 11 20 15 37 30.0000000  0  5 16 20  3 17 24
  21215282.164    -1492776.761 8  -1163206.585 9
  20832276.007      700522.892 8    545854.681 9
  22250232.591    -7088432.880 7  -5523459.814 4
  22710719.790    -9323926.201 6  -7265402.527 5
  24033451.181     9224706.680 5   7188066.439 3
 91 11 20 15 38  0.0000000  0  5 16 20  3 17 24
  21220046.771    -1467751.461 8  -1143706.402 9
  20840671.098      744622.101 8    580217.644 9
  22239536.288    -7144658.657 7  -5567272.137 5
  22697779.861    -9391925.197 6  -7318388.782 4
  24049278.424     9307873.204 5   7252871.364 1
 91 11 20 15 38 30.0000000  0  5 16 20  3 17 24
  21224923.793    -1442117.741 8  -1123732.131 9
  20849181.918      789342.831 8    615064.882 9
  22228848.989    -7200804.283 7  -5611022.015 4
  22684886.383    -9459641.158 6  -7371154.488 3
  24065100.274     9391083.690 5   7317710.531 2
 91 11 20 15 39  0.0000000  0  5 16 20  3 17 24
  21229912.339    -1415885.057 8  -1103291.144 8
  20857811.731      834681.303 8    650393.496 9
  22218180.572    -7256865.977 7  -5654706.506 4
  22672062.759    -9527062.456 6  -7423690.597 5
  24080955.106     9474341.950 5   7382586.874 2
 91 11 20 15 39 30.0000000  0  5 16 20  3 17 24
  21235019.006    -1389063.513 8  -1082391.304 9
  20866550.085      880610.293 8    686182.240 9
  22207523.846    -7312849.888 7  -5698330.369 5
  22659280.213    -9594195.695 6  -7476002.236 4
  24096798.839     9557624.459 5   7447482.150 2
 91 11 20 15 40  0.0000000  0  5 16 20  3 17 24
  21240232.398    -1361662.219 8  -1061039.722 9
  20875397.869      927123.633 8    722426.319 9
  22196886.612    -7368758.781 7  -5741895.785 5
  22646567.206    -9661040.268 6  -7528088.944 4
  24112653.060     9640918.184 5   7512386.599 2
 91 11 20 15 40 30.0000000  0  5 16 20  3 17 24
  21245561.502    -1333661.605 8  -1039221.143 9
  20884364.663      974225.164 8    759128.736 9
  22186265.868    -7424578.715 7  -5785391.885 5
  22633901.873    -9727595.827 6  -7579950.438 5
  24128507.874     9724234.421 5   7577308.144 3
 91 11 20 15 41  0.0000000  0  5 16 20  3 17 24
  21251007.837    -1305036.705 8  -1016916.102 9
  20893431.587     1021903.357 8    796280.512 9
  22175660.115    -7480301.167 7  -5828812.022 6
  22621289.902    -9793858.450 6  -7631583.681 4
  24144374.397     9807577.692 5   7642250.715 2
 91 11 20 15 41 30.0000000  0  5 16 20  3 17 24
  21256570.775    -1275796.372 8   -994131.491 9
  20902616.317     1070136.192 8    833864.465 9
  22165072.631    -7535944.156 7  -5872170.244 6
  22608732.499    -9859837.701 6  -7682996.131 5
  24160228.322     9890927.432 6   7707198.371 3
 91 11 20 15 42  0.0000000  0  5 16 20  3 17 24
  21262258.150    -1245925.339 8   -970855.435 9
  20911906.883     1118963.738 8    871911.824 9
  22154503.156    -7591490.496 7  -5915453.147 5
  22596241.040    -9925508.155 6  -7734167.942 4
  24176097.829     9974306.642 6   7772168.956 2
 91 11 20 15 42 30.0000000  0  5 16 20  3 17 24
  21268060.626    -1215433.821 8   -947095.860 9
  20921310.177     1168375.604 8    910414.493 9
  22143949.561    -7646952.884 7  -5958670.643 4
  22583798.755    -9990876.182 6  -7785104.083 6
  24191967.354    10057710.056 6   7837158.429 2
 91 11 20 15 43  0.0000000  0  5 16 20  3 17 24
  21273978.536    -1184330.643 8   -922859.671 8
  20930823.494     1218372.767 8    949373.245 9
  22133410.659    -7702330.908 7  -6001822.418 4
  22571416.133   -10055922.088 6  -7835789.213 4
  24207850.053    10141137.523 6   7902166.616 2
 91 11 20 15 43 30.0000000  0  5 16 20  3 17 24
  21280010.047    -1152630.254 8   -898158.100 9
  20940451.931     1268965.307 8    988795.922 9
  22122890.045    -7757627.894 7  -6044911.028 5
  22559106.348   -10120661.965 6  -7886235.885 5
  24223721.968    10224583.410 5   7967189.594 1
 91 11 20 15 44  0.0000000  0  5 16 20  3 17 24
  21286157.008    -1120347.364 8   -873002.636 8
  20950195.487     1320155.497 8   1028684.292 9
  22112381.123    -7812848.104 7  -6087939.808 4
  22546835.844   -10185126.720 6  -7936468.182 4
  24239607.373    10308037.356 6   8032218.463 1
 91 11 20 15 44 30.0000000  0  5 16 20  3 17 24
  21292409.474    -1087477.302 8   -847389.627 8
  20960049.067     1371948.138 8   1069042.120 9
  22101890.488    -7867972.631 7  -6130894.030 4
  22534616.311   -10249304.414 6  -7986476.762 5
  24255493.964    10391517.222 5   8097267.921 2
 91 11 20 15 45  0.0000000  0  5 16 20  3 17 24
  21298769.275    -1054054.914 8   -821346.227 8
  20970013.857     1424320.470 8   1109851.659 9
  22091415.437    -7923018.372 7  -6173786.852 5
  22522455.534   -10313234.237 6  -8036292.207 5
  24271378.775    10475008.965 5   8162326.180 4
 91 11 20 15 45 30.0000000  0  5 16 20  3 17 24
  21305233.988    -1020083.040 8   -794874.667 9
  20980090.188     1477263.725 8   1151106.064 9
  22080957.765    -7977982.621 7  -6216616.182 4
  22510340.319   -10376935.586 6  -8085929.607 5
  24287269.868    10558515.840 5   8227396.705 2
 91 11 20 15 46  0.0000000  0  5 16 20  3 17 24
  21311801.255     -985567.165 8   -767979.210 8
  20990271.430     1530773.726 8   1192802.097 9
  22070515.398    -8032859.354 7  -6259377.303 5
  22498261.679   -10440381.067 6  -8135367.630 5
  24303161.869    10642043.627 5   8292483.055 2
 91 11 20 15 46 30.0000000  0  5 16 20  3 17 24
  21318474.026     -950494.100 8   -740649.581 8
  21000562.417     1584848.280 8   1234938.026 9
  22060088.614    -8087641.267 7  -6302064.552 4
  22486244.796   -10503547.038 6  -8184587.840 5
  24319066.765    10725611.214 5   8357600.892 2
 91 11 20 15 47  0.0000000  0  5 16 20  3 17 24
  21325261.620     -914836.883 8   -712864.778 8
  21010961.909     1639487.776 8   1277514.186 9
  22049683.730    -8142323.620 7  -6344674.228 5
  22474276.477   -10566434.775 6  -8233591.256 5
  24334970.143    10809215.238 5   8422746.630 3
 91 11 20 15 47 30.0000000  0  5 16 20  3 17 24
  21332164.350     -878578.266 8   -684611.351 9
  21021466.940     1694698.333 8   1320535.315 9
  22039297.412    -8196905.900 7  -6387205.919 5
  22462364.836   -10629017.965 6  -8282357.362 4
  24350884.933    10892845.220 5   8487913.111 3
 91 11 20 15 48  0.0000000  0  5 16 20  3 17 24
  21339179.495     -841693.359 8   -655869.930 9
  21032086.497     1750502.825 8   1364019.252 9
  22028932.995    -8251365.316 7  -6429641.877 5
  22450519.122   -10691264.310 6  -8330861.007 4
  24366820.106    10976527.642 5   8553119.940 2
 91 11 20 15 48 30.0000000  0  5 16 20  3 17 24
  21346318.449     -804180.137 8   -626638.906 8
  21042814.560     1806876.424 8   1407946.638 9
  22018591.647    -8305712.100 7  -6471990.062 5
  22438731.588   -10753198.225 6  -8379121.214 5
  24382741.772    11060240.595 5   8618350.578 3
 91 11 20 15 49  0.0000000  0  5 16 20  3 17 24
  21353572.836     -766054.980 8   -596931.060 8
  21053648.161     1863810.446 8   1452310.722 9
  22008268.290    -8359958.553 7  -6514260.077 6
  22427003.401   -10814835.782 6  -8427150.480 4
  24398678.445    11143950.414 5   8683579.257 3
 91 11 20 15 49 30.0000000  0  5 16 20  3 17 24
  21360936.636     -727367.800 8   -566785.267 9
  21064584.299     1921281.737 8   1497093.457 9
  21997960.830    -8414127.135 7  -6556469.394 5
  22415325.890   -10876194.107 6  -8474962.163 5
  24414604.927    11227635.167 4   8748787.921 2
 91 11 20 15 50  0.0000000  0  5 16 20  3 17 24
  21368409.552     -688090.910 8   -536179.969 8
  21075627.443     1979311.723 8   1542311.539 9
  21987673.753    -8468185.442 7  -6598592.799 6
  22403710.431   -10937256.249 6  -8522543.060 5
  24430529.298    11311316.398 5   8813993.847 2
 91 11 20 15 50 30.0000000  0  5 16 20  3 17 24
  21375995.511     -648209.766 7   -505103.805 7
  21086781.831     2037917.405 8   1587978.219 9
  21977412.449    -8522120.692 7  -6640620.306 6
  22392145.038   -10998008.664 6  -8569882.633 5
  24446457.263    11394996.305 5   8879198.806 2
 91 11 20 15 51  0.0000000  0  5 16 20  3 17 24
  21383695.070     -607749.822 8   -473576.635 8
  21098041.427     2097105.692 8   1634098.880 9
  21967169.747    -8575937.179 7  -6682555.263 4
  22380649.498   -11058456.320 6  -8616984.741 5
  24462373.258    11478685.572 5   8944411.449 2
 91 11 20 15 51 30.0000000  0  5 16 20  3 17 24
  21391504.374     -566723.630 8   -441608.229 8
  21109413.158     2156848.527 8   1680651.652 9
  21956948.927    -8629654.824 7  -6724413.190 5
  22369198.333   -11118619.789 6  -8663865.371 6
  24478299.426    11562376.616 5   9009625.013 3
 91 11 20 15 52  0.0000000  0  5 16 20  3 17 24
  21399426.389     -525115.594 7   -409186.436 8
  21120885.909     2217141.183 8   1727632.858 9
  21946748.786    -8683274.885 7  -6766195.076 6
  22357802.311   -11178504.237 6  -8710528.618 6
  24494225.001    11646061.905 5   9074834.548 3
 91 11 20 15 52 30.0000000  0  5 16 20  3 17 24
  21407453.332     -482927.443 8   -376312.601 8
  21132464.791     2277995.550 8   1775051.750 9
  21936561.227    -8736789.269 7  -6807894.613 5
  22346457.262   -11238099.928 6  -8756966.823 5
  24510150.872    11729761.918 5   9140055.116 2
 91 11 20 15 53  0.0000000  0  5 16 20  3 17 24
  21415588.502     -440161.465 7   -342988.509 7
  21144150.417     2339407.535 8   1822905.164 9
  21926397.679    -8790194.971 7  -6849509.470 5
  22335171.874   -11297410.920 6  -8803183.195 5
  24526088.749    11813475.955 5   9205286.608 3
 91 11 20 15 53 30.0000000  0  5 16 20  3 17 24
  21423845.072     -396783.464 7   -309187.536 8
  21155946.642     2401396.330 8   1871208.030 9
  21916261.686    -8843461.803 7  -6891016.119 6
  22323945.556   -11356404.381 6  -8849152.130 5
  24542026.312    11897224.462 5   9270544.961 2
 91 11 20 15 54  0.0000000  0  5 16 20  3 17 24
  21432204.198     -352856.414 7   -274958.699 8
  21167844.515     2463920.826 8   1919928.329 9
  21906147.888    -8896621.325 7  -6932439.160 6
  22312779.476   -11415108.936 6  -8894895.953 5
  24557952.480    11980982.726 5   9335811.333 2
 91 11 20 15 54 30.0000000  0  5 16 20  3 17 24
  21440661.637     -308402.224 7   -240319.131 8
  21179842.499     2526964.085 8   1969052.859 9
  21896049.081    -8949678.003 7  -6973782.044 5
  22301659.586   -11473536.403 6  -8940423.837 4
  24573897.250    12064759.575 5   9401091.779 2
 91 11 20 15 55  0.0000000  0  5 16 20  3 17 24
  21449232.103     -263389.759 7   -205244.542 8
  21191938.519     2590541.672 8   2018593.743 9
  21885977.548    -9002604.546 7  -7015023.535 6
  22290600.546   -11531667.050 6  -8985720.458 6
  24589851.007    12148576.720 5   9466403.602 2
 91 11 20 15 55 30.0000000  0  5 16 20  3 17 24
  21457898.806     -217821.765 7   -169737.070 8
  21204137.687     2654643.110 8   2068542.822 8
  21875929.102    -9055407.623 7  -7056168.808 6
  22279588.254   -11589502.961 6  -9030787.405 5
  24605807.451    12232435.763 5   9531748.570 2
 91 11 20 15 56  0.0000000  0  5 16 20  3 17 24
  21466673.124     -171706.098 7   -133802.844 8
  21216435.466     2719252.717 8   2118887.891 9
  21865900.148    -9108106.461 7  -7097232.860 6
  22268639.534   -11647068.650 6  -9075643.804 5
  24621773.807    12316309.084 5   9597104.619 1
 91 11 20 15 56 30.0000000  0  5 16 20  3 17 24
  21475563.783     -124990.637 7    -97401.243 8
  21228835.486     2784409.673 8   2169659.438 9
  21855900.283    -9160668.924 7  -7138190.654 6
  22257739.395   -11704331.804 6  -9120264.454 5
  24637734.143    12400205.207 4   9662478.436 2
 91 11 20 15 57  0.0000000  0  5 16 20  3 17 24
  21484564.745      -77705.888 7    -60556.060 9
  21241333.524     2850090.715 8   2220839.400 8
  21845918.985    -9213130.376 7  -7179069.734 6
  22246900.088   -11761310.231 6  -9164663.240 6
  24653696.293    12484069.793 5   9727827.258 1
 91 11 20 15 57 30.0000000  0  5 16 20  3 17 24
  21493673.637      -29821.714 7    -23243.796 9
  21253935.600     2916327.366 8   2272452.288 9
  21835956.883    -9265449.343 7  -7219837.795 6
  22236114.160   -11817962.102 6  -9208807.562 4
  24669647.956    12567942.782 4   9793182.589 2
 91 11 20 15 58  0.0000000  0  5 16 20  3 17 24
  21502895.256       18613.512 8     14497.867 8
  21266638.713     2983077.256 8   2324465.108 8
  21826025.353    -9317661.331 7  -7260522.493 6
  22225391.490   -11874333.051 6  -9252732.999 6
  24685601.120    12651780.929 4   9858511.212 1
 91 11 20 15 58 30.0000000  0  5 16 20  3 17 24
  21512213.097       67605.795 7     52673.582 9
  21279441.048     3050357.326 8   2376891.043 9
  21816113.612    -9369744.911 7  -7301107.123 6
  22214719.478   -11930414.625 6  -9296432.929 5
  24701565.068    12735613.149 4   9923835.239 1
 91 11 20 15 59  0.0000000  0  5 16 20  3 17 24
  21521643.369      117138.127 8     91270.120 9
  21292343.512     3118159.343 8   2429723.705 9
  21806227.366    -9421700.767 7  -7341592.236 6
  22204098.420   -11986225.828 6  -9339922.207 6
  24717508.930    12819453.356 5   9989165.504 1
 91 11 20 15 59 30.0000000  0  5 16 20  3 17 24
  21531166.878      167193.707 8    130274.398 8
  21305339.212     3186459.029 8   2482944.142 8
  21796359.686    -9473541.043 7  -7381987.284 6
  22193521.442   -12041794.325 6  -9383222.348 5
  24733468.376    12903298.963 4  10054499.519 2
 91 11 20 16  0  0.0000000  0  5 16 20  3 17 24
  21540789.626      217772.193 8    169686.132 8
  21318436.857     3255275.973 8   2536567.657 9
  21786520.800    -9525262.104 7  -7422289.442 6
  22182995.732   -12097111.483 6  -9426326.660 6
  24749422.133    12987147.598 4  10119835.881 2
 91 11 20 16  0 30.0000000  0  5 16 20  3 17 24
  21550514.894      268867.902 8    209500.904 8
  21331629.519     3324611.067 7   2590594.905 9
  21776704.110    -9576863.000 8  -7462497.969 6
  22172522.182   -12152160.279 6  -9469221.841 5
  24765386.080    13071006.934 4  10185181.041 2
 91 11 20 16  1  0.0000000  0  5 16 20  3 17 24
  21560339.087      320500.535 8    249734.042 8
  21344923.513     3394464.901 8   2645026.371 8
  21766906.877    -9628335.271 8  -7502606.265 6
  22162100.789   -12206908.851 6  -9511883.071 5
  24781346.433    13154876.725 4  10250534.337 2
 91 11 20 16  1 30.0000000  0  5 16 20  3 17 24
  21570271.210      372687.899 8    290399.451 8
  21358315.543     3464851.964 7   2699873.341 9
  21757139.048    -9679667.526 7  -7542605.448 5
  22151745.970   -12261335.546 6  -9554293.493 5
  24797308.881    13238763.707 5  10315901.066 2
 91 11 20 16  2  0.0000000  0  5 16 20  3 17 24
  21580301.962      425398.828 8    331472.849 7
  21371805.905     3535741.485 8   2755111.833 8
  21747390.397    -9730886.795 7  -7582516.596 5
  22141446.589   -12315459.949 6  -9596468.371 6
  24813280.018    13322640.636 5  10381259.454 3
 91 11 20 16  2 30.0000000  0  5 16 20  3 17 24
  21590432.249      478645.244 8    372963.491 8
  21385390.394     3607117.939 8   2810729.753 9
  21737666.333    -9781988.558 8  -7622336.180 6
  22131198.199   -12369286.798 6  -9638411.372 6
  24829236.479    13406515.562 4  10446616.792 2
 91 11 20 16  3  0.0000000  0  5 16 20  3 17 24
  21600665.371      532425.927 8    414870.464 8
  21399062.430     3678978.286 8   2866724.723 9
  21727964.151    -9832964.661 8  -7662057.847 5
  22121016.939   -12422823.499 6  -9680128.296 6
  24845192.924    13490385.111 4  10511969.929 3
 91 11 20 16  3 30.0000000  0  5 16 20  3 17 24
  21611003.421      586730.479 8    457185.644 8
  21412832.205     3751331.954 8   2923104.105 9
  21718289.838    -9883799.521 7  -7701669.442 6
  22110885.151   -12476063.341 6  -9721613.886 6
  24861141.288    13574265.133 4  10577331.224 2
 91 11 20 16  4  0.0000000  0  4 16 20  3 17
  21621438.582      641568.878 8    499916.811 8
  21426694.012     3824178.817 8   2979867.795 8
  21708648.523    -9934477.336 7  -7741158.676 5
  22100816.619   -12528986.816 6  -9762852.954 5
 91 11 20 16  4 30.0000000  0  4 16 20  3 17
  21631965.495      696915.696 8    543044.138 7
  21440647.241     3897497.559 8   3036999.180 9
  21699029.073    -9985020.831 7  -7780543.249 6
  22090797.263   -12581630.953 7  -9803874.358 5
 91 11 20 16  5  0.0000000  0  4 16 20  3 17
  21642601.246      752776.791 8    586572.214 7
  21454692.520     3971309.047 8   3094514.525 9
  21689440.510   -10035414.249 7  -7819810.880 6
  22080836.050   -12633969.439 6  -9844657.591 5
 91 11 20 16  5 30.0000000  0  4 16 20  3 17
  21653328.418      809153.814 8    630502.312 8
  21468831.332     4045610.153 7   3152411.394 9
  21679874.143   -10085675.295 7  -7858975.355 6
  22070929.422   -12686018.829 6  -9885215.558 5
 91 11 20 16  6  0.0000000  0  4 16 20  3 17
  21664162.020      866089.666 8    674867.860 7
  21483070.588     4120441.087 7   3210721.115 9
  21670345.225   -10135767.756 7  -7898008.467 6
  22061085.737   -12737755.519 6  -9925529.844 5
 91 11 20 16  6 30.0000000  0  4 16 20  3 17
  21675090.044      923527.018 7    719624.207 7
  21497402.155     4195754.458 7   3269406.766 9
  21660837.317   -10185736.035 7  -7936944.829 6
  22051290.615   -12789233.891 7  -9965642.867 6
 91 11 20 16  7  0.0000000  0  4 16 20  3 17
  21686114.917      981462.531 7    764768.711 8
  21511824.271     4271542.943 7   3328462.624 9
  21651351.274   -10235582.357 7  -7975786.156 6
  22041541.964   -12840444.369 6 -10005547.149 6
 91 11 20 16  7 30.0000000  0  4 16 20  3 17
  21697243.811     1039931.011 7    810328.508 8
  21526338.734     4347834.920 7   3387910.830 9
  21641896.135   -10285261.812 7  -8014497.457 7
  22031861.054   -12891357.420 7 -10045219.653 5
 91 11 20 16  8  0.0000000  0  4 16 20  3 17
  21708469.536     1098912.625 8    856288.152 8
  21540953.309     4424608.716 7   3447734.475 8
  21632477.240   -10334772.499 7  -8053077.241 6
  22022224.538   -12941972.469 7 -10084659.940 5
 91 11 20 16  8 30.0000000  0  4 16 20  3 17
  21719781.901     1158377.259 7    902624.174 8
  21555650.336     4501827.248 7   3507904.647 8
  21623081.746   -10384141.134 7  -8091546.335 6
  22012641.070   -12992321.484 7 -10123892.940 6
 91 11 20 16  9  0.0000000  0  4 16 20  3 17
  21731190.801     1218334.138 8    949343.759 7
  21570429.501     4579495.611 8   3568425.353 8
  21613716.529   -10433367.047 7  -8129904.216 6
  22003112.466   -13042409.381 7 -10162922.468 5
 91 11 20 16  9 30.0000000  0  4 16 20  3 17
  21742701.035     1278822.277 8    996477.306 7
  21585297.715     4657652.141 7   3629326.452 7
  21604383.105   -10482407.785 7  -8168117.810 6
  21993634.223   -13092206.625 7 -10201725.501 6
 91 11 20 16 10  0.0000000  0  4 16 20  3 17
  21754308.099     1339806.154 8   1043997.159 7
  21600256.757     4736262.716 8   3690581.338 8
  21595073.641   -10531308.090 7  -8206221.977 6
  21984204.859   -13141759.226 7 -10240337.920 6
 91 11 20 16 10 30.0000000  0  4 16 20  3 17
  21766014.403     1401317.536 8   1091928.027 7
  21615309.926     4815345.181 8   3752203.933 7
  21585798.955   -10580056.576 7  -8244207.847 6
  21974830.340   -13191049.059 7 -10278745.578 6
 91 11 20 16 11  0.0000000  0  4 16 20  3 17
  21777819.929     1463365.454 7   1140276.986 7
  21630450.049     4894907.717 8   3814200.601 8
  21576553.358   -10628644.830 7  -8282068.854 6
  21965507.090   -13240045.694 7 -10316924.774 6
 91 11 20 16 11 30.0000000  0  4 16 20  3 17
  21789725.585     1525930.385 7   1189028.804 8
  21645676.219     4974929.702 8   3876555.289 8
  21567338.945   -10677080.603 8  -8319811.037 6
  21956234.812   -13288756.760 7 -10354881.421 5
 91 11 20 16 12  0.0000000  0  4 16 20  3 17
  21801736.779     1589035.975 8   1238201.901 7
  21660991.402     5055427.041 7   3939280.375 8
  21558152.400   -10725341.758 7  -8357417.146 6
  21947027.589   -13337148.533 7 -10392589.281 6
 91 11 20 16 12 30.0000000  0  4 16 20  3 17
  21813843.286     1652660.245 7   1287779.180 7
  21676400.433     5136381.793 8   4002361.900 7
  21548998.836   -10773439.665 7  -8394896.053 5
  21937879.120   -13385226.856 7 -10430052.874 5
 91 11 20 16 13  0.0000000  0  4 16 20  3 17
  21826033.747     1716734.068 7   1337706.758 8
  21691885.617     5217749.674 7   4065765.331 8
  21539871.064   -10821410.676 7  -8432276.072 6
  21928780.419   -13433028.560 7 -10467300.936 6
 91 11 20 16 13 30.0000000  0  4 16 20  3 17
  21838312.052     1781272.065 7   1387996.020 8
  21707452.345     5299553.999 8   4129508.859 7
  21530771.752   -10869226.721 7  -8469535.340 6
  21919740.177   -13480539.100 7 -10504322.122 6
 91 11 20 16 14  0.0000000  0  4 16 20  3 17
  21850690.486     1846289.938 7   1438659.211 7
  21723105.714     5381808.649 8   4193603.277 7
  21521708.423   -10916866.519 7  -8506657.287 6
  21910758.096   -13527735.489 7 -10541098.511 6
 91 11 20 16 14 30.0000000  0  4 16 20  3 17
  21863149.557     1911752.961 7   1489669.280 8
  21738837.923     5464496.819 7   4258035.502 7
  21512673.887   -10964339.143 7  -8543648.940 7
  21901827.581   -13574637.671 7 -10577645.675 7
 91 11 20 16 15  0.0000000  0  4 16 20  3 17
  21875685.375     1977667.598 7   1541031.261 7
  21754661.257     5547633.460 7   4322817.182 7
  21503674.409   -11011624.852 7  -8580494.957 6
  21892967.512   -13621230.530 7 -10613951.799 6
 91 11 20 16 15 30.0000000  0  4 16 20  3 17
  21888320.135     2044051.102 7   1592758.583 8
  21770566.450     5631226.544 7   4387954.550 7
  21494716.915   -11058712.500 8  -8617186.657 7
  21884158.119   -13667518.571 7 -10650020.414 6
 91 11 20 16 16  0.0000000  0  4 16 20  3 17
  21901042.129     2110892.403 7   1644842.617 7
  21786557.079     5715241.597 7   4453420.700 7
  21485786.993   -11105625.448 7  -8653742.217 6
  21875401.774   -13713529.083 7 -10685872.771 6
 91 11 20 16 16 30.0000000  0  4 16 20  3 17
  21913840.869     2178163.468 7   1697261.549 7
  21802615.764     5799654.413 7   4519196.776 7
  21476887.365   -11152396.095 7  -8690186.909 6
  21866695.494   -13759295.138 7 -10721534.652 6
 91 11 20 16 17  0.0000000  0  5 23 16 20  3 17
  24518256.673     -220744.976 4   -172009.156 3
  21926733.142     2245915.503 7   1750055.246 7
  21818761.386     5884494.568 7   4585305.877 6
  21468018.606   -11198996.127 7  -8726498.636 7
  21858034.200   -13804786.468 7 -10756982.466 7
 91 11 20 16 17 30.0000000  0  5 23 16 20  3 17
  24498908.656     -322371.133 4   -251198.207 2
  21939727.342     2314177.650 7   1803246.448 7
  21834987.052     5969766.565 7   4651751.468 7
  21459188.220   -11245410.278 8  -8762665.548 6
  21849434.942   -13849989.715 7 -10792205.789 6
 91 11 20 16 18  0.0000000  0  5 23 16 20  3 17
  24479608.611     -423811.354 4   -330242.368 2
  21952818.688     2382973.683 7   1856853.647 8
  21851299.359     6055492.909 7   4718551.092 6
  21450392.594   -11291623.720 7  -8798676.055 8
  21840888.471   -13894886.132 7 -10827190.031 6
 91 11 20 16 18 30.0000000  0  5 23 16 20  3 17
  24460337.969     -525082.973 4   -409155.084 2
  21966004.159     2452269.537 7   1910850.331 8
  21867698.899     6141654.742 7   4785690.067 7
  21441630.264   -11337657.262 7  -8834546.379 8
  21832403.443   -13939500.831 7 -10861954.741 6
 91 11 20 16 19  0.0000000  0  5 23 16 20  3 17
  24441096.382     -626205.374 4   -487951.569 3
  21979284.054     2522054.928 7   1965228.454 6
  21884173.998     6228238.703 7   4853157.950 6
  21432906.900   -11383507.508 7  -8870273.883 8
  21823967.275   -13983839.959 7 -10896504.732 7
 91 11 20 16 19 30.0000000  0  5 23 16 20  3 17
  24421878.178     -727197.446 4   -566646.513 2
  21992650.607     2592314.226 7   2019975.868 6
  21900730.032     6315230.704 7   4920943.822 6
  21424217.128   -11429172.677 7  -8905857.164 7
  21815581.188   -14027907.347 7 -10930842.951 6
 91 11 20 16 20  0.0000000  0  5 23 16 20  3 17
  24402680.670     -828084.292 4   -645259.410 2
  22006103.486     2663007.844 7   2075061.719 7
  21917354.732     6402605.779 7   4989028.162 6
  21415562.413   -11474672.088 7  -8941311.286 7
  21807242.759   -14071732.143 7 -10964992.130 6
 91 11 20 16 20 30.0000000  0  5 23 16 20  3 17
  24383500.245     -928837.404 4   -723768.134 4
  22019641.522     2734145.644 7   2130493.679 7
  21934054.678     6490375.978 7   5057420.388 6
  21406940.383   -11519971.022 7  -8976609.183 7
  21798954.691   -14115273.628 7 -10998920.539 7
 91 11 20 16 21  0.0000000  0  5 23 16 20  3 17
  24364358.805    -1029465.725 5   -802179.623 4
  22033264.680     2805701.853 7   2186251.675 7
  21950832.853     6578530.398 7   5126112.004 7
  21398357.930   -11565081.436 7  -9011760.185 7
  21790716.705   -14158543.121 7 -11032637.004 7
 91 11 20 16 21 30.0000000  0  5 23 16 20  3 17
  24345236.542    -1129949.978 4   -880478.846 5
  22046955.911     2877673.345 7   2242333.264 6
  21967681.195     6667077.147 7   5195109.352 7
  21389806.642   -11610006.287 7  -9046766.590 7
  21782536.566   -14201546.232 7 -11066145.899 7
 91 11 20 16 22  0.0000000  0  5 23 16 20  3 17
  24326141.554    -1230270.292 4   -958650.293 3
  22060729.578     2950065.978 7   2298743.016 6
  21984611.676     6756034.787 7   5264426.873 7
  21381294.636   -11654737.350 7  -9081621.986 7
  21774409.197   -14244268.135 7 -11099435.667 7
 91 11 20 16 22 30.0000000  0  5 23 16 20  3 17
  24307081.362    -1330437.331 4  -1036702.352 3
  22074585.086     3022868.123 7   2355471.873 7
  22001614.400     6845383.306 7   5334048.958 7
  21372817.704   -11699293.936 7  -9116341.416 7
  21766326.780   -14286725.206 7 -11132519.067 6
 91 11 20 16 23  0.0000000  0  5 23 16 20  3 17
  24288057.135    -1430397.746 4  -1114593.360 2
  22088526.623     3096130.752 7   2412559.543 7
  22018698.373     6935167.177 7   5404010.294 6
  21364378.848   -11743635.897 8  -9150893.604 7
  21758302.245   -14328895.506 7 -11165379.012 7
 91 11 20 16 23 30.0000000  0  5 23 16 20  3 17
  24269070.669    -1530171.886 4  -1192339.249 2
  22102559.320     3169860.108 7   2470010.889 6
  22035865.391     7025358.230 7   5474288.915 7
  21355980.460   -11787766.783 8  -9185281.326 7
  21750329.869   -14370781.363 7 -11198017.316 6
 91 11 20 16 24  0.0000000  0  5 23 16 20  3 17
  24250116.592    -1629778.667 5  -1269954.704 3
  22116673.545     3244042.089 7   2527814.940 6
  22053100.761     7115923.610 7   5544859.222 7
  21347622.556   -11831698.263 8  -9219513.657 7
  21742412.635   -14412383.572 7 -11230434.579 7
 91 11 20 16 24 30.0000000  0  5 23 16 20  3 17
  24231202.388    -1729228.567 5  -1347447.908 2
  22130878.319     3318664.785 7   2585962.396 6
  22070398.778     7206848.837 7   5615709.910 7
  21339296.115   -11875436.861 8  -9253595.696 7
  21734547.281   -14453719.560 7 -11262644.417 7
 91 11 20 16 25  0.0000000  0  5 23 16 20  3 17
  24212306.472    -1828517.556 5  -1424815.736 4
  22145155.022     3393718.009 7   2644445.330 6
  22087770.557     7298140.384 7   5686846.036 7
  21331013.753   -11918970.970 8  -9287518.382 6
  21726734.993   -14494771.555 7 -11294632.964 7
 91 11 20 16 25 30.0000000  0  5 23 16 20  3 17
  24193435.126    -1927656.925 5  -1502066.987 3
  22159517.180     3469193.058 7   2703256.974 7
  22105210.375     7389784.008 7   5758256.536 7
  21322767.356   -11962303.701 7  -9321284.153 6
  21718980.570   -14535529.092 7 -11326392.077 7
 91 11 20 16 26  0.0000000  0  5 23 16 20  3 17
  24174606.376    -2026627.228 5  -1579186.482 3
  22173961.790     3545090.877 7   2762398.012 6
  22122719.766     7481798.099 7   5829955.671 7
  21314565.335   -12005427.828 8  -9354887.378 7
  21711278.602   -14576000.346 7 -11357928.129 6
 91 11 20 16 26 30.0000000  0  5 23 16 20  3 17
  24155799.788    -2125424.680 5  -1656171.279 3
  22188481.941     3621406.188 7   2821864.372 7
  22140299.883     7574175.826 7   5901938.189 6
  21306393.590   -12048344.810 7  -9388329.184 7
  21703630.887   -14616206.566 7 -11389257.670 7
 91 11 20 16 27  0.0000000  0  5 23 16 20  3 17
  24137038.483    -2224046.167 5  -1733018.980 3
  22203087.529     3698153.463 7   2881667.342 7
  22157945.072     7666907.007 7   5974196.099 6
  21298268.611   -12091052.653 7  -9421608.016 7
  21696032.644   -14656146.504 7 -11420379.705 7
 91 11 20 16 27 30.0000000  0  5 23 16 20  3 17
  24118307.751    -2322489.712 5  -1809728.026 2
  22217771.957     3775341.287 7   2941813.591 7
  22175656.520     7759983.922 7   6046723.437 6
  21290176.910   -12133555.831 7  -9454727.382 7
  21688475.774   -14695838.511 7 -11451308.559 7
 91 11 20 16 28  0.0000000  0  5 23 16 20  3 17
  24099603.997    -2420731.220 5  -1886279.597 3
  22232549.622     3852978.810 7   3002310.251 6
  22193442.602     7853432.428 7   6119540.308 7
  21282133.494   -12175838.198 8  -9487674.701 7
  21680971.675   -14735273.360 7 -11482037.022 7
 91 11 20 16 28 30.0000000  0  5 23 16 20  3 17
  24080955.996    -2518766.417 5  -1962670.898 4
  22247404.050     3931059.435 7   3063152.173 6
  22211293.738     7947250.498 7   6192645.163 6
  21274129.027   -12217901.218 7  -9520451.089 7
  21673518.844   -14774429.823 7 -11512548.574 7
 91 11 20 16 29  0.0000000  0  5 23 16 20  3 17
  24062334.694    -2616600.835 5  -2038905.274 3
  22262350.790     4009572.590 7   3124331.114 6
  22229215.042     8041441.022 7   6266040.233 6
  21266166.842   -12259748.509 8  -9553059.388 7
  21666124.157   -14813303.266 7 -11542839.571 8
 91 11 20 16 29 30.0000000  0  5 23 16 20  3 17
  24043760.159    -2714226.192 5  -2114977.243 2
  22277369.197     4088496.134 7   3185829.856 7
  22247212.778     8136004.696 7   6339726.062 7
  21258245.717   -12301377.470 8  -9585497.567 7
  21658779.238   -14851889.909 7 -11572907.082 7
 91 11 20 16 30  0.0000000  0  5 23 16 20  3 17
  24025214.382    -2811642.562 5  -2190885.836 2
  22292463.147     4167822.947 7   3247642.824 7
  22265279.774     8230939.963 7   6413701.471 6
  21250368.967   -12342782.603 8  -9617761.334 6
  21651490.980   -14890185.417 7 -11602747.749 8
 91 11 20 16 30 30.0000000  0  5 23 16 20  3 17
  24006721.984    -2908869.890 5  -2266647.164 3
  22307631.452     4247532.040 7   3309753.664 7
  22283408.212     8326218.389 7   6487944.245 6
  21242529.701   -12383970.376 8  -9649855.729 7
  21644256.696   -14928202.050 7 -11632371.102 8
 91 11 20 16 31  0.0000000  0  5 23 16 20  3 17
  23988255.675    -3005906.997 5  -2342260.240 2
  22322868.703     4327615.772 7   3372156.439 7
  22301603.222     8421834.265 7   6562449.988 6
  21234734.497   -12424929.158 8  -9681771.685 7
  21637077.868   -14965951.613 7 -11661786.348 7
 91 11 20 16 31 30.0000000  0  5 23 16 20  3 17
  23969821.737    -3102765.906 5  -2417734.475 2
  22338180.606     4408055.273 7   3434836.435 7
  22319864.177     8517773.205 7   6637207.454 6
  21226981.872   -12465662.170 8  -9713511.707 6
  21629943.399   -15003433.637 7 -11690993.113 7
 91 11 20 16 32  0.0000000  0  5 23 16 20  3 17
  23951424.373    -3199451.100 5  -2493073.360 3
  22353552.154     4488851.164 7   3497794.136 7
  22338178.809     8614039.198 7   6712219.774 6
  21219273.604   -12506162.103 8  -9745070.109 7
  21622861.699   -15040646.887 7 -11719990.434 7
 91 11 20 16 32 30.0000000  0  5 23 16 20  3 17
  23933064.179    -3295951.136 5  -2568267.986 2
  22368999.872     4570010.472 7   3561035.026 6
  22356561.775     8710628.886 7   6787484.323 7
  21211613.604   -12546426.956 7  -9776445.373 7
  21615833.066   -15077582.427 7 -11748771.352 7
 91 11 20 16 33  0.0000000  0  5 23 16 20  3 17
  23914744.173    -3392225.496 5  -2643286.760 4
  22384518.019     4651574.705 7   3624591.457 6
  22375009.797     8807572.715 7   6863024.829 6
  21204002.483   -12586431.442 8  -9807617.690 7
  21608862.890   -15114212.575 8 -11777314.313 6
 91 11 20 16 33 30.0000000  0  5 23 16 20  3 17
  23896457.426    -3488289.615 5  -2718141.712 3
  22400116.228     4733542.797 7   3688462.580 5
  22393520.482     8904849.642 7   6938824.899 7
  21196438.110   -12626195.731 8  -9838602.868 7
  21601945.484   -15150552.793 8 -11805631.339 7
 91 11 20 16 34  0.0000000  0  5 23 16 20  3 17
  23878212.962    -3584131.818 5  -2792823.777 2
  22415796.871     4815929.608 7   3752659.979 6
  22412091.440     9002451.319 7   7014878.007 6
  21188910.627   -12665724.397 8  -9869404.445 7
  21595082.942   -15186619.930 7 -11833735.590 7
 91 11 20 16 34 30.0000000  0  5 23 16 20  3 17
  23860022.454    -3679728.834 5  -2867314.779 2
  22431552.760     4898749.997 7   3817195.225 6
  22430728.621     9100385.124 7   7091189.935 6
  21181435.599   -12705004.670 8  -9900012.466 8
  21588275.246   -15222403.815 7 -11861619.129 7
 91 11 20 16 35  0.0000000  0  5 23 16 20  3 17
  23841880.509    -3775097.088 5  -2941627.590 4
  22447401.589     4981986.068 7   3882054.384 6
  22449435.080     9198643.572 7   7167754.818 5
  21174007.041   -12744041.391 8  -9930430.708 7
  21581513.426   -15257914.916 7 -11889290.106 7
 91 11 20 16 35 30.0000000  0  5 23 16 20  3 17
  23823771.546    -3870251.381 5  -3015773.614 2
  22463310.970     5065617.688 7   3947221.775 6
  22468182.006     9297220.071 7   7244567.541 6
  21166624.343   -12782836.223 8  -9960660.470 7
  21574807.674   -15293164.258 7 -11916757.108 8
 91 11 20 16 36  0.0000000  0  5 23 16 20  3 17
  23805696.453    -3965196.028 5  -3089756.303 3
  22479296.207     5149634.149 7   4012689.016 6
  22487006.568     9396117.625 6   7321630.454 6
  21159289.336   -12821388.071 8  -9990700.893 7
  21568147.484   -15328157.084 7 -11944024.245 8
 91 11 20 16 36 30.0000000  0  5 23 16 20  3 17
  23787670.535    -4059939.207 5  -3163582.054 3
  22495358.190     5234020.237 7   4078444.294 6
  22505884.807     9495341.733 6   7398947.795 6
  21152000.781   -12859694.892 8 -10020550.380 7
  21561541.250   -15362890.317 7 -11971089.084 7
 91 11 20 16 37  0.0000000  0  5 23 16 20  3 17
  23769682.083    -4154482.864 5  -3237252.355 4
  22511480.725     5318763.937 7   4144478.219 6
  22524827.786     9594880.689 6   7476510.485 6
  21144758.993   -12897756.620 8 -10050208.884 8
  21554977.298   -15397365.484 7 -11997952.836 8
 91 11 20 16 37 30.0000000  0  5 23 16 20  3 17
  23751738.007    -4248807.189 5  -3310751.712 4
  22527674.911     5403863.916 7   4210789.783 6
  22543831.335     9694732.952 7   7554317.294 5
  21137562.471   -12935564.425 8 -10079669.521 7
  21548471.805   -15431576.390 7 -12024610.677 8
 91 11 20 16 38  0.0000000  0  5 23 16 20  3 17
  23733823.910    -4342900.681 5  -3384071.213 3
  22543937.764     5489320.100 7   4277378.901 6
  22562887.339     9794891.738 6   7632362.966 5
  21130416.921   -12973114.293 8 -10108929.151 7
  21542012.467   -15465513.153 7 -12051054.892 7
 91 11 20 16 38 30.0000000  0  5 23 16 20  3 17
  23715968.568    -4436764.563 5  -3457211.838 4
  22560266.857     5575111.389 7   4344229.145 6
  22581996.409     9895329.287 6   7710625.840 6
  21123319.028   -13010412.021 8 -10137992.300 8
  21535605.009   -15499176.349 7 -12077285.949 8
 91 11 20 16 39  0.0000000  0  5 23 16 20  3 17
  23698153.710    -4530395.545 5  -3530170.993 3
  22576658.597     5661235.331 7   4411338.618 5
  22601166.939     9996027.596 6   7789091.923 5
  21116267.604   -13047456.168 8 -10166857.866 8
  21529251.210   -15532572.293 7 -12103308.757 8
 91 11 20 16 39 30.0000000  0  5 23 16 20  3 17
  23680375.725    -4623801.303 5  -3602954.652 3
  22593109.109     5747704.404 7   4478716.988 7
  22620381.235    10096996.789 6   7867769.065 5
  21109268.950   -13084244.098 8 -10195523.774 8
  21522944.475   -15565703.248 7 -12129125.098 8
 91 11 20 16 40  0.0000000  0  5 23 16 20  3 17
  23662642.692    -4716997.202 5  -3675574.784 4
  22609630.976     5834529.384 7   4546372.714 6
  22639641.703    10198234.015 6   7946655.068 6
  21102321.268   -13120774.128 8 -10223988.713 8
  21516689.305   -15598571.314 7 -12154736.572 8
 91 11 20 16 40 30.0000000  0  5 23 16 20  3 17
  23644951.347    -4809981.449 5  -3748030.014 2
  22626223.288     5921708.215 7   4614304.164 6
  22658958.536    10299739.097 6   8025749.795 5
  21095417.351   -13157043.294 8 -10252250.388 8
  21510484.810   -15631182.131 7 -12180147.607 7
 91 11 20 16 41  0.0000000  0  5 23 16 20  3 17
  23627289.371    -4902749.722 5  -3820316.944 2
  22642877.654     6009248.671 6   4682517.416 6
  22678327.527    10401523.173 6   8105061.953 5
  21088566.186   -13193047.243 7 -10280305.391 8
  21504327.972   -15663540.914 7 -12205362.259 8
 91 11 20 16 41 30.0000000  0  5 23 16 20  3 17
  23609680.461    -4995296.138 5  -3892431.025 2
  22659605.782     6097146.941 7   4751009.470 6
  22697749.567    10503589.732 6   8184594.198 5
  21081764.807   -13228780.438 7 -10308149.431 8
  21498217.289   -15695637.256 7 -12230372.409 8
 91 11 20 16 42  0.0000000  0  5 23 16 20  3 17
  23592115.019    -5087603.935 5  -3964359.132 3
  22676395.352     6185383.994 7   4819765.509 6
  22717225.284    10605932.874 6   8264341.967 5
  21075015.272   -13264244.564 7 -10335783.818 9
  21492161.785   -15727474.249 7 -12255180.469 8
 91 11 20 16 42 30.0000000  0  5 23 16 20  3 17
  23574596.641    -5179651.438 5  -4036084.427 4
  22693247.585     6273945.382 7   4888774.293 5
  22736754.974    10708555.667 6   8344307.613 5
  21068317.302   -13299440.990 8 -10363209.611 8
  21486148.248   -15759063.620 7 -12279795.584 8
 91 11 20 16 43  0.0000000  0  5 23 16 20  3 17
  23557139.426    -5271436.308 5  -4107605.058 4
  22710165.484     6362837.119 7   4958040.476 6
  22756338.307    10811467.377 6   8424498.387 5
  21061673.900   -13334364.831 8 -10390422.989 8
  21480190.778   -15790400.479 7 -12304213.957 7
 91 11 20 16 43 30.0000000  0  5 23 16 20  3 17
  23539722.695    -5362954.780 5  -4178918.125 3
  22727149.921     6452067.635 7   5027570.649 5
  22775976.816    10914676.858 6   8504921.214 5
  21055080.579   -13369007.630 8 -10417417.376 8
  21474277.074   -15821469.087 8 -12328423.292 8
 91 11 20 16 44  0.0000000  0  5 23 16 20  3 17
  23522352.120    -5454212.931 5  -4250028.347 4
  22744190.128     6541635.624 7   5097363.781 5
  22795675.879    11018178.764 7   8585571.898 5
  21048540.604   -13403374.207 8 -10444196.530 8
  21468413.120   -15852267.953 7 -12352422.428 8
 91 11 20 16 44 30.0000000  0  5 23 16 20  3 17
  23505036.705    -5545222.427 5  -4320944.791 4
  22761295.983     6631553.872 6   5167429.825 6
  22815421.411    11121951.728 6   8666433.782 6
  21042056.679   -13437462.391 8 -10470758.750 7
  21462607.642   -15882791.126 8 -12376206.727 9
 91 11 20 16 45  0.0000000  0  5 23 16 20  3 17
  23487763.258    -5635989.077 5  -4391671.979 4
  22778478.881     6721837.329 6   5237780.449 4
  22835220.306    11225989.449 6   8747501.971 5
  21035619.241   -13471262.303 8 -10497096.349 9
  21456854.323   -15913024.498 8 -12399765.210 9
 91 11 20 16 45 30.0000000  0  5 23 16 20  3 17
  23470527.888    -5726517.885 5  -4462213.800 3
  22795727.444     6812461.035 7   5308396.211 6
  22855064.466    11330266.014 6   8828756.268 4
  21029243.560   -13504782.463 7 -10523215.964 8
  21451154.680   -15942979.127 8 -12423106.489 8
 91 11 20 16 46  0.0000000  0  5 23 16 20  3 17
  23453358.182    -5816798.878 5  -4532562.525 4
  22813035.669     6903425.494 7   5379277.491 5
  22874955.097    11434772.738 6   8910189.908 5
  21022920.334   -13538014.379 7 -10549110.968 8
  21445505.992   -15972663.238 8 -12446236.949 9
 91 11 20 16 46 30.0000000  0  5 23 16 20  3 17
  23436219.939    -5906834.811 5  -4602720.264 2
  22830404.744     6994714.251 7   5450411.475 5
  22894879.913    11539503.976 6   8991798.515 5
  21016652.582   -13570960.489 8 -10574783.275 8
  21439903.164   -16002100.388 8 -12469174.996 9
 91 11 20 16 47  0.0000000  0  5 23 16 20  3 17
  23419138.061    -5996624.019 5  -4672685.715 5
  22847839.466     7086303.950 7   5521779.942 4
  22914860.168    11644476.169 6   9073594.863 5
  21010438.769   -13603613.591 8 -10600227.268 8
  21434347.102   -16031290.953 8 -12491920.891 8
 91 11 20 16 47 30.0000000  0  5 23 16 20  3 17
  23402097.260    -6086169.828 5  -4742461.468 4
  22865323.066     7178185.027 6   5593375.449 6
  22934880.314    11749695.539 6   9155583.813 5
  21004281.931   -13635967.006 8 -10625437.746 9
  21428844.123   -16060213.048 8 -12514457.581 8
 91 11 20 16 48  0.0000000  0  5 23 16 20  3 17
  23385101.429    -6175471.872 5  -4812047.248 4
  22882860.325     7270365.460 6   5665204.235 5
  22954952.916    11855158.383 6   9237762.456 5
  20998179.956   -13668023.122 8 -10650416.553 8
  21423389.098   -16088879.069 7 -12536794.742 8
 91 11 20 16 48 30.0000000  0  5 23 16 20  3 17
  23368154.161    -6264527.478 6  -4881440.992 4
  22900459.934     7362828.497 6   5737253.220 5
  22975063.000    11960857.345 6   9320125.119 5
  20992134.939   -13699779.708 8 -10675161.955 8
  21417986.231   -16117277.325 8 -12558923.248 9
 91 11 20 16 49  0.0000000  0  5 23 16 20  3 17
  23351254.567    -6353332.818 6  -4950640.192 3
  22918106.030     7455574.285 6   5809522.518 4
  22995219.834    12066779.660 6   9402661.797 5
  20986150.788   -13731235.999 7 -10699673.370 9
  21412634.947   -16145405.193 8 -12580841.061 8
 91 11 20 16 49 30.0000000  0  5 23 16 20  3 17
  23334416.119    -6441858.476 6  -5019621.468 3
  22935815.663     7548625.199 6   5882029.602 5
  23015418.356    12172911.324 6   9485361.612 5
  20980220.000   -13762391.641 7 -10723950.509 9
  21407330.413   -16173272.683 8 -12602555.979 8
 91 11 20 16 50  0.0000000  0  5 23 16 20  3 17
  23317618.453    -6530085.158 5  -5088369.727 4
  22953577.472     7641980.602 6   5954773.931 5
  23035651.046    12279250.199 6   9568222.887 3
  20974350.358   -13793246.764 8 -10747993.485 8
  21402073.849   -16200904.452 8 -12624087.233 9
 91 11 20 16 50 30.0000000  0  5 23 16 20  3 17
  23300883.135    -6618015.822 5  -5156887.344 3
  22971399.833     7735637.373 6   6027753.087 4
  23055929.316    12385793.689 6   9651243.603 3
  20968540.081   -13823796.651 8 -10771798.606 8
  21396859.863   -16228290.623 8 -12645427.101 8
 91 11 20 16 51  0.0000000  0  5 23 16 20  3 17
  23284201.774    -6705644.296 5  -5225169.010 4
  22989286.341     7829623.333 6   6100988.754 5
  23076245.348    12492551.684 6   9734431.464 4
  20962784.964   -13854034.695 8 -10795360.733 8
  21391694.739   -16255433.759 8 -12666577.596 9
 91 11 20 16 51 30.0000000  0  5 23 16 20  3 17
  23267588.190    -6792985.612 6  -5293227.398 5
  23007232.826     7923940.433 6   6174482.454 4
  23096595.269    12599516.721 6   9817780.661 3
  20957088.602   -13883968.078 8 -10818685.464 8
  21386577.584   -16282330.793 8 -12687536.331 9
 91 11 20 16 52  0.0000000  0  5 23 16 20  3 17
  23251017.149    -6880053.594 5  -5361072.819 3
  23025245.255     8018586.276 6   6248232.321 5
  23116992.846    12706700.338 6   9901300.176 5
  20951452.810   -13913582.717 8 -10841761.832 9
  21381508.994   -16308961.197 8 -12708287.304 8
 91 11 20 16 52 30.0000000  0  5 23 16 20  3 17
  23234496.487    -6966857.830 5  -5428712.227 5
  23043316.142     8113553.584 6   6322232.655 5
  23137431.186    12814095.439 6   9984984.455 5
  20945877.867   -13942876.690 8 -10864588.332 9
  21376493.470   -16335321.493 8 -12728827.803 8
 91 11 20 16 53  0.0000000  0  5 23 16 20  3 17
  23218037.284    -7053392.029 6  -5496141.261 4
  23061445.190     8208827.947 6   6396472.250 5
  23157908.214    12921702.066 6  10068833.602 4
  20940361.696   -13971851.577 7 -10887166.191 8
  21371529.197   -16361413.975 8 -12749159.611 9
 91 11 20 16 53 30.0000000  0  5 23 16 20  3 17
  23201620.050    -7139659.359 6  -5563362.357 4
  23079625.211     8304377.445 6   6470926.242 5
  23178420.020    13029513.205 6  10152842.092 4
  20934911.470   -14000510.280 8 -10909497.674 8
  21366610.504   -16387244.706 7 -12769287.457 9
 91 11 20 16 54  0.0000000  0  5 23 16 20  3 17
  23185252.583    -7225658.376 6  -5630374.374 5
  23097859.781     8400171.586 6   6545570.875 6
  23198977.389    13137529.696 6  10237010.604 3
  20929518.497   -14028850.825 7 -10931581.248 8
  21361741.283   -16412831.364 8 -12789225.120 9
 91 11 20 16 54 30.0000000  0  5 23 16 20  3 17
  23168944.168    -7311371.905 6  -5697163.961 5
  23116136.336     8496210.014 6   6620405.856 5
  23219575.521    13245758.820 6  10321344.777 4
  20924184.594   -14056868.362 7 -10953413.122 9
  21356920.904   -16438164.134 8 -12808964.945 9
 91 11 20 16 55  0.0000000  0  5 23 16 20  3 17
  23152688.226    -7396801.664 6  -5763732.453 4
  23134457.547     8592492.513 6   6695431.011 5
  23240209.636    13354191.160 6  10405837.331 4
  20918913.040   -14084564.133 8 -10974994.275 8
  21352152.720   -16463238.990 8 -12828503.818 9
 91 11 20 16 55 30.0000000  0  5 23 16 20  3 17
  23136484.442    -7481946.889 6  -5830079.266 5
  23152829.136     8689025.363 6   6770651.247 5
  23260879.436    13462829.210 6  10490490.175 4
  20913706.838   -14111931.470 8 -10996319.493 8
  21347430.080   -16488048.469 8 -12847835.905 9
 91 11 20 16 56  0.0000000  0  5 23 16 20  3 17
  23120336.726    -7566808.879 6  -5896205.396 5
  23171248.382     8785821.534 6   6846076.650 5
  23281592.687    13571664.544 6  10575296.723 4
  20908559.407   -14138973.535 8 -11017391.253 8
  21342756.318   -16512591.132 7 -12866960.072 9
 91 11 20 16 56 30.0000000  0  5 23 16 20  3 17
  23104246.561    -7651370.487 6  -5962097.460 5
  23189718.286     8882904.370 6   6921725.461 4
  23302342.532    13680698.068 6  10660257.710 4
  20903480.626   -14165677.984 8 -11038199.942 8
  21338144.610   -16536850.258 8 -12885863.307 9
 91 11 20 16 57  0.0010000  0  5 23 16 20  3 17
  23088207.964    -7735651.948 6  -6027771.237 5
  23208249.356     8980264.247 6   6997590.136 3
  23323125.936    13789912.247 6  10745359.454 3
  20898462.994   -14192051.802 8 -11058750.989 9
  21333576.669   -16560852.606 8 -12904566.453 9
 91 11 20 16 57 30.0010000  0  5 23 16 20  3 17
  23072220.633    -7819639.484 6  -6093215.990 4
  23226830.208     9077891.021 6   7073662.793 5
  23343941.132    13899304.497 6  10830600.452 4
  20893504.724   -14218090.167 8 -11079040.627 9
  21329059.401   -16584604.164 8 -12923074.175 9
 91 11 20 16 58  0.0010000  0  5 23 16 20  3 17
  23056299.857    -7903335.386 6  -6158433.524 5
  23245450.602     9175773.476 6   7149934.671 4
  23364790.198    14008862.984 6  10915970.495 3
  20888617.214   -14243796.323 8 -11099071.418 9
  21324576.301   -16608131.815 7 -12941407.423 9
 91 11 20 16 58 30.0010000  0  5 23 16 20  3 17
  23040430.036    -7986738.105 6  -6223422.612 5
  23264121.376     9273893.617 6   7226391.798 4
  23385665.039    14118570.004 6  11001456.292 4
  20883787.849   -14269171.965 8 -11118844.665 9
  21320142.672   -16631436.303 7 -12959566.781 9
 91 11 20 16 59  0.0010000  0  5 23 16 20  3 17
  23024607.592    -8069839.555 6  -6288176.923 5
  23282840.434     9372257.533 6   7303038.835 4
  23406568.672    14228423.704 6  11087056.354 3
  20879023.556   -14294212.044 8 -11138356.436 8
  21315751.604   -16654514.970 7 -12977550.172 8
 91 11 20 16 59 30.0010000  0  5 23 16 20  3 17
  23008859.503    -8152618.238 6  -6352679.766 4
  23301612.837     9470882.445 6   7379889.249 4
  23427503.768    14338429.400 6  11172774.856 2
  20874321.612   -14318905.990 8 -11157598.490 8
  21311404.318   -16677355.983 7 -12995348.358 9
 91 11 20 17  0  0.0010000  0  5 23 16 20  3 17
  22993171.356    -8235079.705 6  -6416935.402 3
  23320424.503     9569766.621 6   7456941.713 4
  23448457.169    14448566.724 6  11258595.926 4
  20869687.410   -14343259.432 8 -11176575.210 9
  21307105.003   -16699962.427 8 -13012963.766 9
 91 11 20 17  0 30.0010000  0  5 23 16 20  3 17
  22977532.087    -8317228.174 6  -6480947.156 3
  23339298.240     9668920.617 6   7534204.409 5
  23469447.443    14558838.193 6  11344521.521 4
  20865119.170   -14367267.676 8 -11195282.946 8
  21302850.343   -16722306.528 8 -13030374.754 9
 91 11 20 17  1  0.0010000  0  5 23 16 20  3 17
  22961955.761    -8399070.716 6  -6544720.515 3
  23358213.351     9768349.211 6   7611681.086 2
  23490456.301    14669263.767 6  11430567.650 3
  20860616.298   -14390925.801 8 -11213717.871 8
  21298646.656   -16744401.859 8 -13047591.900 9
 91 11 20 17  1 30.0010000  0  5 23 16 20  3 17
  22946441.209    -8480615.269 6  -6608261.655 4
  23377182.715     9868029.913 6   7689354.219 4
  23511501.718    14779842.790 6  11516733.367 4
  20856181.168   -14414239.416 8 -11231884.322 7
  21294486.140   -16766255.971 8 -13064621.076 9
 91 11 20 17  2  0.0010000  0  5 23 16 20  3 17
  22930983.614    -8561866.919 6  -6671574.567 4
  23396197.955     9967946.218 6   7767210.921 2
  23532567.551    14890582.400 5  11603023.745 4
  20851812.297   -14437201.662 8 -11249776.985 8
  21290381.674   -16787847.352 8 -13081445.542 9
 91 11 20 17  2 30.0010000  0  5 23 16 20  3 17
  22915573.379    -8642831.795 6  -6734664.006 4
  23415249.754    10068079.877 6   7845237.013 3
  23553680.429    15001487.443 6  11689443.508 5
  20847511.761   -14459807.857 8 -11267392.212 8
  21286322.178   -16809180.490 8 -13098068.780 9
 91 11 20 17  3  0.0010000  0  5 23 16 20  3 17
  22900224.900    -8723493.660 6  -6797517.331 4
  23434349.244    10168417.064 6   7923421.681 3
  23574812.189    15112552.141 6  11775987.641 4
  20843274.795   -14482060.369 8 -11284731.840 8
  21282303.462   -16830280.753 8 -13114510.557 9
 91 11 20 17  3 30.0010000  0  5 23 16 20  3 17
  22884933.397    -8803843.617 6  -6860127.589 4
  23453478.400    10268948.999 6   8001758.133 4
  23595970.648    15223758.204 6  11862641.476 2
  20839107.980   -14503953.360 8 -11301791.312 9
  21278335.423   -16851134.086 8 -13130759.919 9
 91 11 20 17  4  0.0010000  0  5 23 16 20  3 17
  22869703.335    -8883887.245 6  -6922499.150 5
  23472644.131    10369674.903 6   8080245.676 4
  23617159.680    15335089.245 6  11949393.182 2
  20835009.221   -14525486.299 8 -11318570.232 8
  21274416.819   -16871744.256 8 -13146819.810 9
 91 11 20 17  4 30.0010000  0  5 23 16 20  3 17
  22854538.625    -8963600.868 6  -6984613.578 5
  23491854.221    10470610.507 6   8158896.635 3
  23638366.406    15446542.375 6  12036240.028 3
  20830984.206   -14546656.664 8 -11335066.627 8
  21270534.215   -16892128.019 8 -13162703.282 9
 91 11 20 17  5  0.0010000  0  5 23 16 20  3 17
  22839427.591    -9042969.686 6  -7046459.313 4
  23511103.608    10571769.503 6   8237721.639 3
  23659601.297    15558119.965 5  12123183.354 3
  20827020.651   -14567458.085 8 -11351275.530 8
  21266702.863   -16912271.771 8 -13178399.741 9
 91 11 20 17  5 30.0010000  0  5 23 16 20  3 17
  22824389.098    -9122020.618 6  -7108057.347 3
  23530396.447    10673152.405 6   8316721.127 3
  23680852.085    15669801.684 5  12210208.235 3
  20823137.436   -14587893.296 8 -11367199.074 8
  21262915.887   -16932170.223 8 -13193905.052 9
 91 11 20 17  6  0.0010000  0  5 23 16 20  3 17
  22809408.767    -9200739.237 6  -7169396.469 4
  23549732.457    10774778.784 6   8395910.336 2
  23702133.149    15781606.071 5  12297328.306 4
  20819321.684   -14607947.285 8 -11382825.570 8
  21259174.473   -16951813.755 8 -13209211.725 9
 91 11 20 17  6 30.0010000  0  5 23 16 20  3 17
  22794487.801    -9279140.829 6  -7230488.523 5
  23569120.940    10876639.287 6   8475281.968 2
  23723429.516    15893531.702 6  12384543.269 4
  20815576.082   -14627622.317 8 -11398156.770 8
  21255487.940   -16971209.895 8 -13224325.630 9
 91 11 20 17  7  0.0010000  0  5 23 16 20  3 17
  22779624.997    -9357256.416 6  -7291357.726 5
  23588542.684    10978721.366 6   8554826.256 4
  23744754.049    16005570.156 6  12471846.199 3
  20811901.223   -14646916.760 7 -11413191.399 9
  21251844.561   -16990359.645 8 -13239247.558 9
 91 11 20 17  7 30.0010000  0  5 23 16 20  3 17
  22764817.353    -9435097.455 6  -7352013.007 3
  23608000.724    11081011.419 6   8634532.579 4
  23766084.288    16117713.858 5  12559231.075 3
  20808301.610   -14665837.355 8 -11427934.725 8
  21248246.448   -17009276.631 8 -13253988.089 9
 91 11 20 17  8  0.0010000  0  5 23 16 20  3 17
  22750048.972    -9512644.085 6  -7412438.868 5
  23627518.408    11183511.852 6   8714402.828 4
  23787460.979    16229986.658 5  12646716.592 2
  20804773.647   -14684378.781 7 -11442382.604 8
  21244688.209   -17027955.563 8 -13268543.134 9
 91 11 20 17  8 30.0010000  0  5 23 16 20  3 17
  22735360.339    -9589879.990 6  -7472622.598 5
  23647066.683    11286220.515 6   8794435.336 3
  23808840.375    16342381.101 5  12734296.903 4
  20801317.352   -14702535.936 8 -11456531.042 9
  21241179.145   -17046395.549 8 -13282911.986 9
 91 11 20 17  9  0.0010000  0  5 23 16 20  3 17
  22720721.770    -9666785.409 6  -7532548.823 5
  23666643.123    11389133.324 6   8874626.941 3
  23830256.661    16454881.216 5  12821959.518 4
  20797935.395   -14720316.789 8 -11470386.264 9
  21237715.643   -17064598.976 8 -13297096.503 9
 91 11 20 17  9 30.0010000  0  5 23 16 20  3 17
  22706154.258    -9743317.152 6  -7592183.862 5
  23686266.939    11492264.317 6   8954989.014 1
  23851683.120    16567493.283 5  12909709.393 4
  20794622.978   -14737707.699 7 -11483937.641 9
  21234303.096   -17082543.269 8 -13311079.088 9
 91 11 20 17 10  0.0010000  0  5 23 16 20  3 17
  22691669.181    -9819464.569 6  -7651519.417 5
  23705929.426    11595603.586 6   9035512.891 3
  23873131.776    16680201.058 5  12997533.804 3
  20791394.513   -14754706.697 7 -11497183.618 9
  21230935.536   -17100230.714 8 -13324861.532 9
 91 11 20 17 10 30.0010000  0  5 23 16 20  3 17
  22677251.567    -9895225.969 6  -7710554.195 6
  23725629.989    11699136.656 6   9116187.792 3
  23894589.715    16792973.679 5  13085408.750 5
  20788231.713   -14771314.038 8 -11510124.417 8
  21227618.319   -17117668.039 8 -13338449.066 9
 91 11 20 17 11  0.0010000  0  5 23 16 20  3 17
  22662901.991    -9970624.578 6  -7769306.256 5
  23745367.424    11802858.867 6   9197010.519 2
  23916067.758    16905811.221 6  13173334.278 3
  20785147.143   -14787532.483 7 -11522762.191 8
  21224347.293   -17134855.615 8 -13351841.995 9
 91 11 20 17 11 30.0010000  0  5 23 16 20  3 17
  22648623.787   -10045682.441 6  -7827792.831 5
  23765145.641    11906755.027 6   9277968.366 2
  23937553.879    17018717.198 6  13261313.132 4
  20782133.630   -14803361.936 7 -11535096.854 9
  21221120.922   -17151801.736 8 -13365046.769 9
 91 11 20 17 12  0.0010000  0  5 23 16 20  3 17
  22634397.131   -10120432.557 6  -7886039.576 5
  23784946.629    12010820.160 6   9359057.860 3
  23959051.099    17131696.913 5  13349349.465 3
  20779193.565   -14818805.678 8 -11547130.953 9
  21217941.318   -17168520.056 7 -13378074.037 9
 91 11 20 17 12 30.0010000  0  5 23 16 20  3 17
  22620221.149   -10194895.603 6  -7944062.660 6
  23804789.883    12115069.254 6   9440290.711 3
  23980565.699    17244761.321 5  13437451.757 5
  20776328.745   -14833859.775 7 -11558861.438 9
  21214803.403   -17185007.119 8 -13390921.111 9
 91 11 20 17 13  0.0010000  0  5 23 16 20  3 17
  22606103.313   -10269084.281 6  -8001871.924 5
  23824656.834    12219502.738 6   9521667.201 3
  24002101.292    17357929.686 5  13525635.008 5
  20773537.688   -14848525.012 8 -11570288.919 8
  21211706.547   -17201270.588 8 -13403593.941 9
 91 11 20 17 13 30.0010000  0  5 23 16 20  3 17
  22592044.248   -10342979.870 6  -8059452.810 4
  23844563.047    12324109.324 5   9603179.084 4
  24023651.875    17471195.331 5  13613894.108 3
  20770823.655   -14862794.915 8 -11581408.354 8
  21208657.645   -17217307.061 8 -13416089.891 9
 91 11 20 17 14  0.0010000  0  5 23 16 20  3 17
  22578039.750   -10416580.526 6  -8116803.858 5
  23864498.351    12428880.340 5   9684819.108 3
  24045214.742    17584527.669 5  13702205.139 3
  20768181.588   -14876672.068 8 -11592221.735 9
  21205648.635   -17233117.656 8 -13428409.833 9
 91 11 20 17 14 30.0010000  0  5 23 16 20  3 17
  22564095.508   -10489853.021 6  -8173899.238 5
  23884461.225    12533807.270 5   9766580.578 4
  24066796.509    17697917.428 5  13790560.960 3
  20765619.267   -14890145.465 8 -11602720.509 8
  21202688.188   -17248698.007 8 -13440550.367 9
 91 11 20 17 15  0.0010000  0  5 23 16 20  3 17
  22550225.307   -10562772.484 6  -8230719.515 6
  23904458.581    12638870.988 5   9848448.653 4
  24088385.464    17811345.535 5  13878946.660 3
  20763131.878   -14903214.307 8 -11612904.051 8
  21199763.112   -17264046.158 8 -13452509.965 9
 91 11 20 17 15 30.0010000  0  5 23 16 20  3 17
  22536411.174   -10635344.460 7  -8287269.031 6
  23924481.729    12744061.364 5   9930414.924 4
  24109966.323    17924785.567 5  13967341.590 3
  20760720.956   -14915882.401 8 -11622775.319 8
  21196887.805   -17279159.546 8 -13464286.641 9
 91 11 20 17 16  0.0010000  0  5 23 16 20  3 17
  22522668.080   -10707555.213 7  -8343537.095 6
  23944528.853    12849409.611 5  10012504.694 2
  24131563.358    18038258.516 5  14055762.203 2
  20758388.874   -14928135.546 8 -11632323.238 8
  21194057.467   -17294036.203 8 -13475878.853 9
 91 11 20 17 16 30.0010000  0  5 23 16 20  3 17
  22508999.936   -10779402.762 7  -8399522.121 6
  23964597.546    12954923.992 5  10094723.435 3
  24153163.412    18151772.005 5  14144214.398 3
  20756138.931   -14939978.087 8 -11641551.211 8
  21191268.189   -17308686.408 8 -13487294.613 9
 91 11 20 17 17  0.0010000  0  5 23 16 20  3 17
  22495393.861   -10850896.191 7  -8455231.248 5
  23984718.118    13060616.438 5  10177081.433 2
  24174764.653    18265329.447 4  14232700.862 3
  20753960.027   -14951408.211 7 -11650457.825 9
  21188524.195   -17323104.825 8 -13498529.762 9
 91 11 20 17 17 30.0010000  0  5 23 16 20  3 17
  22481852.231   -10922043.804 7  -8510670.907 5
  24004862.684    13166489.799 5  10259580.375 3
  24196395.890    18378939.082 4  14321227.955 2
  20751866.280   -14962426.464 7 -11659043.515 8
  21185821.558   -17337305.153 8 -13509594.985 9
 91 11 20 17 18  0.0010000  0  5 23 16 20  3 17
  22468387.067   -10992817.838 7  -8565819.468 6
  24025043.809    13272553.891 5  10342227.487 2
  24218025.610    18492617.947 5  14409808.958 3
  20749849.575   -14973020.451 7 -11667298.605 8
  21183158.811   -17351286.283 7 -13520489.400 9
 91 11 20 17 18 30.0010000  0  5 23 16 20  3 17
  22454989.330   -11063209.995 7  -8620670.469 6
  24045263.010    13378797.742 5  10425015.156 2
  24239671.523    18606365.062 5  14498443.186 4
  20747914.713   -14983185.433 7 -11675219.388 8
  21180550.911   -17365023.397 8 -13531193.667 9
 91 11 20 17 19  0.0010000  0  5 23 16 20  3 17
  22441663.856   -11133227.671 7  -8675229.671 6
  24065513.987    13485202.790 5  10507928.436 3
  24261333.333    18720176.566 5  14587127.565 3
  20746059.894   -14992924.151 7 -11682808.012 8
  21177979.587   -17378513.799 8 -13541705.683 9
 91 11 20 17 19 30.0010000  0  5 23 16 20  3 17
  22428415.127   -11202860.111 7  -8729488.680 6
  24085794.648    13591755.914 5  10590956.602 4
  24282996.034    18834054.141 5  14675863.558 4
  20744290.233   -15002234.072 7 -11690062.520 8
  21175463.440   -17391755.598 8 -13552023.978 9
 91 11 20 17 20  0.0010000  0  5 23 16 20  3 17
  22415237.455   -11272112.298 7  -8783451.379 6
  24106093.893    13698450.997 5  10674095.422 2
  24304686.009    18947997.531 5  14764650.577 3
  20742600.301   -15011113.914 7 -11696981.893 8
  21172989.243   -17404739.378 8 -13562141.220 9
 91 11 20 17 20 30.0010000  0  5 23 16 20  3 17
  22402125.431   -11340998.437 7  -8837128.845 6
  24126423.432    13805289.520 5  10757346.001 4
  24326379.893    19061996.279 5  14853480.852 3
  20740995.806   -15019553.211 7 -11703557.977 9
  21170569.928   -17417457.676 8 -13572051.583 9
 91 11 20 17 21  0.0010000  0  5 23 16 20  3 17
  22389088.653   -11409539.910 7  -8890537.747 6
  24146783.822    13912256.232 5  10840696.475 2
  24348082.467    19176038.411 5  14942344.933 4
  20739471.058   -15027554.695 7 -11709792.922 8
  21168193.173   -17429943.750 8 -13581780.990 9
 91 11 20 17 21 30.0010000  0  5 23 16 20  3 17
  22376111.537   -11477735.831 7  -8943677.368 5
  24167165.816    14019350.515 5  10924146.347 4
  24369788.339    19290110.276 5  15031232.167 4
  20738034.452   -15035109.942 7 -11715680.160 9
  21165860.777   -17442207.301 8 -13591336.999 9
 91 11 20 17 22  0.0010000  0  5 23 16 20  3 17
  22363192.879   -11545599.917 7  -8996558.421 6
  24187569.099    14126575.622 5  11007698.175 3
  24391499.324    19404191.836 6  15120126.963 2
  20736680.594   -15042221.044 7 -11721221.317 8
  21163566.475   -17454256.966 8 -13600726.348 9
 91 11 20 17 22 30.0010000  0  5 23 16 20  3 17
  22350349.170   -11613124.697 7  -9049175.062 6
  24208001.751    14233928.123 5  11091349.280 2
  24413210.885    19518287.842 5  15209033.047 3
  20735411.876   -15048888.510 8 -11726416.789 8
  21161313.233   -17466103.788 8 -13609957.626 9
 91 11 20 17 23  0.0010000  0  5 23 16 20  3 17
  22337560.935   -11680294.659 7  -9101515.223 6
  24228444.594    14341400.445 5  11175093.739 2
  24434915.553    19632381.374 5  15297937.133 4
  20734226.186   -15055118.359 8 -11731271.249 8
  21159093.862   -17477748.101 8 -13619031.118 9
 91 11 20 17 23 30.0010000  0  5 23 16 20  3 17
  22324854.524   -11747092.846 7  -9153565.670 6
  24248927.014    14449005.687 5  11258941.750 2
  24456628.632    19746481.549 5  15386846.421 4
  20733123.856   -15060904.086 7 -11735779.641 9
  21156924.870   -17489169.630 8 -13627931.003 9
 91 11 20 17 24  0.0010000  0  5 23 16 20  3 17
  22312211.980   -11813509.046 7  -9205318.485 6
  24269425.034    14556748.701 5  11342897.133 2
  24478352.792    19860608.637 5  15475776.716 5
  20732108.759   -15066244.440 7 -11739940.986 8
  21154795.734   -17500359.990 8 -13636650.767 9
 91 11 20 17 24 30.0010000  0  5 23 16 20  3 17
  22299646.480   -11879532.597 7  -9256765.323 5
  24289953.017    14664624.246 5  11426955.810 2
  24500076.044    19974768.130 5  15564732.189 4
  20731177.912   -15071131.819 7 -11743749.359 8
  21152708.879   -17511313.038 8 -13645185.613 9
 91 11 20 17 25  0.0010000  0  5 23 16 20  3 17
  22287152.927   -11945173.576 7  -9307914.053 5
  24310504.697    14772622.762 5  11511110.234 3
  24521802.909    20088936.636 5  15653694.726 4
  20730336.079   -15075572.467 7 -11747209.623 8
  21150666.995   -17522028.447 8 -13653535.277 9
 91 11 20 17 25 30.0010000  0  5 23 16 20  3 17
  22274735.230   -12010436.900 7  -9358768.524 5
  24331086.635    14880739.137 5  11595357.010 2
  24543527.976    20203111.717 5  15742662.417 3
  20729571.323   -15079565.395 7 -11750321.038 7
  21148679.066   -17532504.910 8 -13661698.764 9
 91 11 20 17 26  0.0010000  0  5 23 16 20  3 17
  22262391.260   -12075328.014 7  -9409332.948 6
  24351680.579    14988971.347 5  11679693.994 4
  24565255.731    20317268.810 5  15831616.056 3
  20728899.490   -15083113.814 7 -11753086.070 8
  21146728.620   -17542745.341 8 -13669678.334 9
 91 11 20 17 26 30.0010000  0  5 23 16 20  3 17
  22250112.676   -12139834.551 7  -9459597.710 6
  24372298.500    15097335.213 5  11764133.541 2
  24586969.997    20431392.948 5  15920544.018 5
  20728308.590   -15086200.711 7 -11755491.473 8
  21144829.740   -17552725.909 8 -13677455.411 9
 91 11 20 17 27  0.0010000  0  5 23 16 20  3 17
  22237910.210   -12203970.690 7  -9509573.861 5
  24392945.511    15205842.079 5  11848684.560 3
  24608675.572    20545479.506 5  16009442.737 3
  20727811.538   -15088828.109 7 -11757538.819 8
  21142976.719   -17562451.171 8 -13685033.555 9
 91 11 20 17 27 30.0010000  0  5 23 16 20  3 17
  22225773.723   -12267744.105 7  -9559267.373 6
  24413620.703    15314495.944 5  11933350.101 2
  24630388.931    20659540.461 5  16098321.481 4
  20727399.923   -15090992.872 7 -11759225.687 8
  21141174.669   -17571925.658 8 -13692416.304 9
 91 11 20 17 28  0.0010000  0  5 23 16 20  3 17
  22213703.477   -12331166.505 7  -9608687.383 5
  24434323.764    15423285.498 5  12018121.349 3
  24652087.910    20773575.821 5  16187180.298 3
  20727074.336   -15092699.134 7 -11760555.283 8
  21139417.886   -17581160.824 8 -13699612.560 9
 91 11 20 17 28 30.0010000  0  5 23 16 20  3 17
  22201703.974   -12394233.457 7  -9657830.417 6
  24455049.928    15532194.910 5  12102986.007 2
  24673788.390    20887606.159 5  16276035.169 2
  20726838.706   -15093938.537 7 -11761521.090 8
  21137707.573   -17590160.801 8 -13706625.553 9
 91 11 20 17 29  0.0010000  0  5 23 16 20  3 17
  22189767.450   -12456961.496 7  -9706709.380 6
  24475786.266    15641196.656 5  12187922.632 2
  24695483.181    21001636.216 5  16364889.823 3
  20726691.514   -15094720.341 7 -11762130.332 8
  21136032.631   -17598941.111 8 -13713467.392 9
 91 11 20 17 29 30.0010000  0  5 23 16 20  3 17
  22177899.853   -12519314.713 7  -9755296.262 6
  24496543.893    15750274.408 4  12272918.435 3
  24717185.145    21115671.428 5  16453748.543 2
  20726631.851   -15095030.314 7 -11762371.912 8
  21134411.646   -17607487.118 8 -13720126.661 9
 91 11 20 17 30  0.0010000  0  5 23 16 20  3 17
  22166110.224   -12581284.602 7  -9803584.440 5
  24517315.324    15859413.194 5  12357961.775 2
  24738888.033    21229691.076 5  16542595.054 2
  20726664.221   -15094872.302 8 -11762248.850 8
  21132827.253   -17615803.198 8 -13726606.768 9
 91 11 20 17 30 30.0010000  0  5 23 16 20  3 17
  22154394.340   -12642869.161 7  -9851572.387 7
  24538102.617    15968619.231 4  12443057.558 2
  24760566.613    21343684.177 4  16631420.981 2
  20726779.044   -15094244.188 7 -11761759.451 8
  21131286.312   -17623895.316 8 -13732912.370 9
 91 11 20 17 31  0.0010000  0  5 23 16 20  3 17
  22142749.199   -12704054.221 7  -9899249.026 6
  24558896.523    16077911.456 4  12528220.471 3
  24782262.905    21457655.955 5  16720230.212 1
  20726991.902   -15093138.796 8 -11760898.160 8
  21129791.543   -17631757.640 8 -13739038.921 9
 91 11 20 17 31 30.0010000  0  5 23 16 20  3 17
  22131179.303   -12764833.727 7  -9946609.656 6
  24579719.519    16187297.112 4  12613456.225 2
  24803951.379    21571590.380 4  16809010.377 2
  20727291.103   -15091560.095 7 -11759668.028 8
  21128333.665   -17639408.312 8 -13745000.546 9
 91 11 20 17 32  0.0010000  0  5 23 16 20  3 17
  22119689.155   -12825227.461 7  -9993669.678 6
  24600542.794    16296793.980 4  12698778.600 3
  24825616.784    21685488.864 4  16897762.501 2
  20727682.320   -15089506.000 7 -11758067.473 8
  21126916.847   -17646851.657 8 -13750800.631 9
 91 11 20 17 32 30.0010000  0  5 23 16 20  3 17
  22108270.954   -12885238.413 7 -10040431.428 6
  24621408.647    16406401.548 4  12784187.265 2
  24847282.189    21799353.846 4  16986488.619 3
  20728163.492   -15086975.548 7 -11756095.740 8
  21125539.885   -17654087.972 8 -13756439.396 9
 91 11 20 17 33  0.0010000  0  5 23 16 20  3 17
  22096922.013   -12944865.787 7 -10086894.278 6
  24642277.206    16516102.774 4  12869668.922 3
  24868945.779    21913173.447 4  17075179.286 3
  20728739.995   -15083977.483 7 -11753759.626 8
  21124202.518   -17661126.119 8 -13761923.741 9
 91 11 20 17 33 30.0010000  0  5 23 16 20  3 17
  22085650.115   -13004099.750 7 -10133050.571 6
  24663178.431    16625901.370 4  12955226.387 3
  24890595.305    22026950.554 4  17163836.889 1
  20729401.340   -15080491.233 7 -11751043.097 8
  21122902.023   -17667935.284 8 -13767229.655 9
 91 11 20 17 34  0.0010000  0  5 23 16 20  3 17
  22074454.073   -13062944.338 7 -10178903.453 7
  24684099.148    16735778.822 4  13040845.354 2
  24912247.203    22140688.494 4  17252463.977 2
  20730154.405   -15076518.853 7 -11747947.770 8
  21121651.593   -17674509.757 8 -13772352.683 9
 91 11 20 17 34 30.0010000  0  5 23 16 20  3 17
  22063333.276   -13121389.201 7 -10224444.862 6
  24705003.985    16845728.391 4  13126520.526 3
  24933872.438    22254393.177 4  17341065.140 2
  20731001.630   -15072057.458 7 -11744471.375 7
  21120447.912   -17680849.071 8 -13777292.478 9
 91 11 20 17 35  0.0010000  0  5 23 16 20  3 17
  22052286.223   -13179428.795 7 -10269670.472 6
  24725943.880    16955755.196 4  13212255.870 2
  24955505.456    22368072.516 5  17429646.591 1
  20731948.968   -15067103.189 7 -11740610.924 8
  21119287.420   -17686950.294 8 -13782046.743 9
 91 11 20 17 35 30.0010000  0  5 23 16 20  3 17
  22041318.308   -13237070.800 7 -10314586.279 6
  24746901.469    17065859.301 4  13298051.446 2
  24977135.786    22481725.350 4  17518207.370 1
  20732982.352   -15061657.022 7 -11736367.182 7
  21118171.286   -17692814.569 8 -13786616.373 9
 91 11 20 17 36  0.0010000  0  5 23 16 20  3 17
  22030427.156   -13294306.047 7 -10359185.125 7
  24767862.060    17176065.747 4  13383926.741 1
  24998755.925    22595353.816 4  17606749.174 3
  20734116.477   -15055717.401 8 -11731738.922 8
  21117099.232   -17698457.793 8 -13791013.753 9
 91 11 20 17 36 30.0010000  0  5 23 16 20  3 17
  22019612.139   -13351143.113 7 -10403473.710 7
  24788867.323    17286374.472 4  13469881.724 2
  25020377.547    22708939.524 4  17695257.618 3
  20735336.334   -15049288.405 7 -11726729.317 9
  21116064.050   -17703888.418 8 -13795245.467 9
 91 11 20 17 37  0.0010000  0  5 23 16 20  3 17
  22008869.680   -13407579.905 7 -10447450.392 6
  24809869.289    17396784.531 4  13555915.691 3
  25041983.587    22822464.491 4  17783718.798 2
  20736652.412   -15042361.710 7 -11721331.903 8
  21115071.744   -17709102.771 8 -13799308.644 9
 91 11 20 17 37 30.0010000  0  5 23 16 20  3 17
  21998205.154   -13463631.874 7 -10491127.212 7
  24830892.229    17507286.746 4  13642021.395 2
  25063566.854    22935907.075 4  17872115.817 3
  20738066.839   -15034937.002 8 -11715546.425 9
  21114123.499   -17714099.583 8 -13803202.306 9
 91 11 20 17 38  0.0010000  0  5 23 16 20  3 17
  21987612.593   -13519298.840 7 -10534504.046 7
  24851932.567    17617872.184 4  13728192.012 1
  25085139.912    23049268.287 4  17960449.330 3
  20739579.285   -15027005.601 7 -11709366.128 8
  21113218.129   -17718855.911 8 -13806908.572 9
 91 11 20 17 38 30.0010000  0  5 23 16 20  3 17
  21977086.883   -13574590.183 7 -10577588.173 7
  24873000.477    17728518.310 4  13814409.946 3
  25106699.796    23162543.834 4  18048716.151 3
  20741183.483   -15018560.480 7 -11702785.520 7
  21112362.510   -17723351.422 8 -13810411.602 9
 91 11 20 17 39  0.0010000  0  5 23 16 20  3 17
  21966636.122   -13629513.030 7 -10620385.183 7
  24894067.200    17839207.970 4  13900661.791 1
  25128234.778    23275722.277 4  18136907.310 2
  20742887.200   -15009607.103 8 -11695808.903 8
  21111559.067   -17727577.012 8 -13813704.310 9
 91 11 20 17 39 30.0010000  0  5 23 16 20  3 17
  21956260.293   -13684049.738 7 -10662881.304 7
  24915134.813    17949947.170 4  13986952.235 3
  25149757.179    23388816.335 3  18225032.686 2
  20744688.359   -15000139.649 7 -11688431.681 8
  21110809.598   -17731519.662 8 -13816776.526 9
 91 11 20 17 40  0.0010000  0  5 23 16 20  3 17
  21945954.334   -13738193.434 7 -10705071.174 7
  24936211.413    18060723.142 4  14073271.319 2
  25171243.318    23501825.972 3  18313092.275 1
  20746586.943   -14990163.609 7 -11680658.166 7
  21110105.970   -17735196.388 8 -13819641.524 9
 91 11 20 17 40 30.0010000  0  5 23 16 20  3 17
  21935735.015   -13791913.888 7 -10746931.263 7
  24957310.209    18171554.280 4  14159633.382 1
  25192759.715    23614761.977 3  18401094.504 2
  20748583.859   -14979663.425 7 -11672476.228 8
  21109457.223   -17738621.488 8 -13822310.457 9
 91 11 20 17 41  0.0010000  0  3 23  3 17
  21925595.130   -13845192.738 7 -10788447.253 7
  20750681.794   -14968647.198 7 -11663892.187 7
  21108842.644   -17741831.167 8 -13824811.527 9
 91 11 20 17 41 30.0010000  0  3 23  3 17
  21915543.385   -13898020.945 7 -10829612.093 7
  20752881.080   -14957104.261 7 -11654897.718 7
  21108273.645   -17744837.892 8 -13827154.431 9
 91 11 20 17 42  0.0010000  0  3 23  3 17
  21905573.186   -13950418.407 7 -10870441.296 8
  20755175.399   -14945046.277 7 -11645501.915 8
  21107734.625   -17747660.483 8 -13829353.859 9
 91 11 20 17 42 30.0010000  0  3 23  3 17
  21895682.438   -14002392.664 7 -10910940.727 7
  20757565.329   -14932475.604 7 -11635706.623 8
  21107235.462   -17750288.771 8 -13831401.886 9
 91 11 20 17 43  0.0010000  0  3 23  3 17
  21885866.027   -14053956.972 7 -10951120.720 7
  20760051.810   -14919390.443 7 -11625510.427 7
  21106778.877   -17752696.377 8 -13833277.944 9
 91 11 20 17 43 30.0010000  0  3 23  3 17
  21876126.066   -14105136.959 7 -10991001.236 7
  20762642.923   -14905787.180 7 -11614910.512 8
  21106370.856   -17754848.029 8 -13834954.551 9
 91 11 20 17 44  0.0010000  0  3 23  3 17
  21866461.367   -14155944.313 7 -11030591.377 8
  20765332.665   -14891669.377 7 -11603909.657 8
  21106011.416   -17756734.938 8 -13836424.866 9
 91 11 20 17 44 30.0010000  0  3 23  3 17
  21856863.207   -14206376.103 7 -11069888.884 7
  20768116.830   -14877030.345 7 -11592502.641 8
  21105699.022   -17758357.910 8 -13837689.513 9
 91 11 20 17 45  0.0010000  0  3 23  3 17
  21847339.698   -14256428.233 7 -11108890.549 8
  20771000.531   -14861868.976 7 -11580688.645 8
  21105442.400   -17759729.377 8 -13838758.175 9
 91 11 20 17 45 30.0010000  0  3 23  3 17
  21837887.840   -14306101.219 7 -11147596.769 7
  20773984.064   -14846193.730 7 -11568474.211 8
  21105217.868   -17760883.225 8 -13839657.255 9
 91 11 20 17 46  0.0010000  0  3 23  3 17
  21828510.931   -14355369.760 7 -11185987.839 8
  20777064.429   -14829999.560 7 -11555855.429 7
  21105034.989   -17761851.201 8 -13840411.492 9
 91 11 20 17 46 30.0010000  0  3 23  3 17
  21819217.974   -14404215.088 7 -11224049.141 7
  20780247.942   -14813287.516 7 -11542833.123 8
  21104886.296   -17762638.713 8 -13841025.117 9
 91 11 20 17 47  0.0010000  0  3 23  3 17
  21810005.655   -14452624.131 7 -11261770.468 8
  20783526.471   -14796048.770 7 -11529400.408 8
  21104775.365   -17763225.694 8 -13841482.478 9
 91 11 20 17 47 30.0010000  0  3 23  3 17
  21800877.272   -14500592.191 7 -11299148.168 7
  20786907.224   -14778278.565 7 -11515553.556 8
  21104701.917   -17763604.778 8 -13841777.846 9
 91 11 20 17 48  0.0010000  0  3 23  3 17
  21791831.637   -14548122.445 7 -11336184.715 8
  20790389.607   -14759977.349 7 -11501292.920 8
  21104673.438   -17763749.319 8 -13841890.465 9
 91 11 20 17 48 30.0010000  0  3 23  3 17
  21782866.937   -14595231.928 7 -11372893.392 8
  20793970.025   -14741150.745 7 -11486622.914 8
  21104695.024   -17763643.343 8 -13841807.844 9
 91 11 20 17 49  0.0010000  0  3 23  3 17
  21773978.389   -14641933.957 7 -11409284.557 8
  20797656.576   -14721800.008 7 -11471544.486 8
  21104755.280   -17763306.448 8 -13841545.308 9
 91 11 20 17 49 30.0010000  0  3 23  3 17
  21765166.884   -14688235.838 7 -11445363.910 8
  20801437.270   -14701927.625 7 -11456059.586 7
  21104863.506   -17762752.410 8 -13841113.569 9
 91 11 20 17 50  0.0010000  0  3 23  3 17
  21756437.535   -14734135.312 7 -11481129.708 8
  20805320.171   -14681525.961 7 -11440162.268 7
  21105011.013   -17761981.364 8 -13840512.730 9
 91 11 20 17 50 30.0010000  0  3 23  3 17
  21747775.928   -14779639.482 7 -11516587.464 9
  20809303.218   -14660595.300 7 -11423852.736 7
  21105193.577   -17761014.006 8 -13839758.944 9
 91 11 20 17 51  0.0010000  0  3 23  3 17
  21739192.864   -14824753.413 7 -11551741.143 9
  20813387.895   -14639131.640 7 -11407127.898 7
  21105419.924   -17759845.519 8 -13838848.420 9
 91 11 20 17 51 30.0010000  0  3 23  3 17
  21730682.654   -14869472.402 7 -11586587.064 9
  20817575.685   -14617125.557 7 -11389980.375 8
  21105685.830   -17758440.093 8 -13837753.297 9
 91 11 20 17 52  0.0010000  0  3 23  3 17
  21722245.596   -14913801.302 7 -11621129.019 9
  20821865.123   -14594581.482 7 -11372413.655 8
  21105995.519   -17756799.249 8 -13836474.733 9
 91 11 20 17 52 30.0010000  0  3 23  3 17
  21713884.691   -14957748.010 7 -11655373.158 8
  20826257.989   -14571507.205 7 -11354433.766 7
  21106349.584   -17754929.025 8 -13835017.440 9
 91 11 20 17 53  0.0010000  0  3 23  3 17
  21705598.123   -15001294.033 7 -11689305.098 9
  20830748.872   -14547904.077 7 -11336041.794 7
  21106751.305   -17752835.402 8 -13833386.081 9
 91 11 20 17 53 30.0010000  0  3 23  3 17
  21697391.914   -15044417.391 7 -11722907.683 8
  20835341.089   -14523767.674 7 -11317234.269 7
  21107187.805   -17750534.899 8 -13831593.523 9
 91 11 20 17 54  0.0010000  0  3 23  3 17
  21689264.842   -15087111.800 7 -11756176.026 9
  20840035.546   -14499089.525 7 -11298004.597 7
  21107663.865   -17748037.848 8 -13829647.808 9
 91 11 20 17 54 30.0010000  0  3 23  3 17
  21681224.706   -15129374.932 7 -11789108.311 8
  20844835.822   -14473871.321 7 -11278354.105 7
  21108174.423   -17745344.427 8 -13827549.086 9
 91 11 20 17 55  0.0010000  0  3 23  3 17
  21673267.005   -15171205.470 7 -11821703.504 8
  20849738.618   -14448111.414 7 -11258281.507 8
  21108723.337   -17742451.432 8 -13825294.860 9
 91 11 20 17 55 30.0010000  0  4 23 20  3 17
  21665381.863   -15212619.212 7 -11853973.933 8
  25828581.154        1816.96914      1397.104 3
  20854743.061   -14421807.067 7 -11237784.661 8
  21109319.018   -17739339.572 8 -13822870.091 9
 91 11 20 17 56  0.0010000  0  3 23  3 17
  21657576.171   -15253626.869 7 -11885927.939 9
  20859855.120   -14394954.738 7 -11216860.812 7
  21109957.888   -17735984.300 8 -13820255.648 9
 91 11 20 17 56 30.0010000  0  3 23  3 17
  21649849.616   -15294228.091 7 -11917565.231 8
  20865065.807   -14367562.330 7 -11195516.112 7
  21110642.599   -17732389.255 8 -13817454.368 9
 91 11 20 17 57  0.0010000  0  3 23  3 17
  21642202.215   -15334429.386 7 -11948890.906 9
  20870382.330   -14339622.877 7 -11173745.141 7
  21111371.704   -17728545.141 8 -13814459.021 9
 91 11 20 17 57 30.0010000  0  3 23  3 17
  21634624.057   -15374234.786 7 -11979908.082 9
  20875801.687   -14311135.855 7 -11151547.494 8
  21112153.561   -17724449.576 8 -13811267.723 9
 91 11 20 17 58  0.0010000  0  3 23  3 17
  21627128.350   -15413647.081 7 -12010618.942 8
  20881328.660   -14282110.771 7 -11128930.553 7
  21112975.885   -17720130.646 8 -13807902.372 9
 91 11 20 17 58 30.0010000  0  3 23  3 17
  21619701.887   -15452661.049 7 -12041019.413 8
  20886951.556   -14252546.514 7 -11105893.488 8
  21113835.692   -17715597.737 8 -13804370.283 9
 91 11 20 17 59  0.0010000  0  3 23  3 17
  21612355.171   -15491272.551 7 -12071106.272 8
  20892683.900   -14222434.774 7 -11082429.811 7
  21114742.563   -17710837.977 8 -13800661.419 9
 91 11 20 17 59 30.0010000  0  3 23  3 17
  21605090.907   -15529459.876 7 -12100862.600 8
  20898520.248   -14191766.238 7 -11058532.256 7
  21115692.605   -17705855.535 8 -13796779.011 9
 91 11 20 18  0  0.0010000  0  3 23  3 17
  21597905.780   -15567218.936 7 -12130285.224 9
  20904458.836   -14160538.595 7 -11034199.031 8
  21116679.520   -17700654.646 8 -13792726.398 9
 91 11 20 18  0 30.0010000  0  3 23  3 17
  21590800.993   -15604554.627 7 -12159377.938 8
  20910512.247   -14128751.137 7 -11009429.593 7
  21117711.717   -17695230.440 8 -13788499.757 9
 91 11 20 18  1  0.0010000  0  3 23  3 17
  21583773.267   -15641472.694 7 -12188145.229 9
  20916668.788   -14096411.093 7 -10984229.550 7
  21118788.867   -17689597.256 8 -13784110.256 9
 91 11 20 18  1 30.0010000  0  3 23  3 17
  21576826.772   -15677968.614 7 -12216583.578 8
  20922924.255   -14063516.928 7 -10958597.740 7
  21119891.511   -17683767.322 8 -13779567.446 9
 91 11 20 18  2  0.0010000  0  3 23  3 17
  21569960.320   -15714057.129 7 -12244704.462 8
  20929287.652   -14030072.909 7 -10932537.470 7
  21121040.905   -17677741.137 8 -13774871.711 9
 91 11 20 18  2 30.0010000  0  3 23  3 17
  21563172.727   -15749736.973 7 -12272506.900 9
  20935753.882   -13996074.688 7 -10906045.340 8
  21122228.392   -17671503.002 8 -13770010.814 9
 91 11 20 18  3  0.0010000  0  4 23 21  3 17
  21556460.082   -15785017.956 7 -12299998.540 9
  24725208.790     -201827.581 4   -157268.319 1
  20942334.918   -13961525.529 7 -10879123.925 7
  21123455.736   -17665053.229 8 -13764985.009 9
 91 11 20 18  3 30.0010000  0  4 23 21  3 17
  21549818.476   -15819901.533 7 -12327180.516 9
  24709263.130     -285654.072 4   -222587.769 2
  20949014.303   -13926420.750 7 -10851769.543 7
  21124725.361   -17658375.579 8 -13759781.628 9
 91 11 20 18  4  0.0010000  0  4 23 21  3 17
  21543258.416   -15854388.665 7 -12354053.564 9
  24693324.659     -369302.761 4   -287768.773 1
  20955800.099   -13890763.542 7 -10823984.717 7
  21126042.050   -17651459.020 8 -13754392.090 9
 91 11 20 18  4 30.0010000  0  4 23 21  3 17
  21536770.006   -15888469.084 7 -12380609.709 9
  24677450.056     -452767.670 4   -352806.571 2
  20962686.339   -13854555.525 7 -10795770.670 7
  21127404.301   -17644303.756 8 -13748816.555 9
 91 11 20 18  5  0.0010000  0  4 23 21  3 17
  21530365.532   -15922130.906 7 -12406839.664 8
  24661593.742     -536040.720 4   -417694.797 2
  20969684.382   -13817796.411 7 -10767127.196 7
  21128808.538   -17636919.328 8 -13743062.445 9
 91 11 20 18  5 30.0010000  0  4 23 21  3 17
  21524040.823   -15955360.237 7 -12432732.615 8
  24645796.164     -619124.864 5   -482435.875 1
  20976783.183   -13780486.263 7 -10738054.360 7
  21130257.726   -17629305.225 8 -13737129.384 9
 91 11 20 18  6  0.0010000  0  4 23 21  3 17
  21517801.532   -15988160.787 7 -12458291.441 8
  24630006.108     -702019.977 4   -547029.667 2
  20983987.191   -13742623.937 7 -10708551.245 8
  21131750.697   -17621467.539 8 -13731022.092 9
 91 11 20 18  6 30.0010000  0  4 23 21  3 17
  21511637.801   -16020541.396 7 -12483523.030 9
  24614274.492     -784720.710 5   -611471.987 4
  20991297.925   -13704204.393 7 -10678613.977 7
  21133282.337   -17613411.119 8 -13724744.376 9
 91 11 20 18  7  0.0010000  0  4 23 21  3 17
  21505556.505   -16052505.260 7 -12508429.875 8
  24598576.154     -867229.943 5   -675765.065 3
  20998717.793   -13665224.797 7 -10648240.266 7
  21134856.836   -17605134.345 8 -13718294.946 9
 91 11 20 18  7 30.0010000  0  4 23 21  3 17
  21499550.175   -16084066.062 7 -12533022.645 8
  24582918.004     -949547.231 5   -739908.187 2
  21006239.290   -13625682.762 7 -10617428.301 7
  21136472.429   -17596641.856 8 -13711677.441 9
 91 11 20 18  8  0.0010000  0  4 23 21  3 17
  21493619.684   -16115234.676 7 -12557309.797 9
  24567279.328    -1031675.512 4   -803904.452 3
  21013873.795   -13585580.203 7 -10586179.556 7
  21138127.879   -17587947.816 8 -13704902.881 9
 91 11 20 18  8 30.0010000  0  4 23 21  3 17
  21487759.028   -16146007.109 7 -12581288.245 9
  24551690.421    -1113637.035 5   -867770.793 2
  21021612.339   -13544924.583 7 -10554499.860 7
  21139820.812   -17579057.920 8 -13697975.713 9
 91 11 20 18  9  0.0010000  0  4 23 21  3 17
  21481987.735   -16176367.944 7 -12604945.967 9
  24536124.896    -1195420.583 5   -931497.999 3
  21029451.308   -13503711.210 7 -10522385.551 7
  21141547.005   -17569971.192 8 -13690895.181 9
 91 11 20 18  9 30.0010000  0  4 23 21  3 17
  21476289.576   -16206319.569 7 -12628284.821 8
  24520596.541    -1277017.725 5   -995079.949 2
  21037405.100   -13461934.685 8 -10489832.422 7
  21143313.996   -17560686.974 8 -13683660.761 9
 91 11 20 18 10  0.0010000  0  4 23 21  3 17
  21470664.568   -16235851.525 7 -12651296.664 9
  24505095.774    -1358419.351 5  -1058509.542 1
  21045460.225   -13419588.695 7 -10456835.577 7
  21145121.734   -17551194.479 8 -13676264.045 9
 91 11 20 18 10 30.0010000  0  4 23 21  3 17
  21465127.404   -16264972.831 7 -12673988.516 9
  24489657.671    -1439627.401 5  -1121788.302 2
  21053624.484   -13376678.653 7 -10423399.192 7
  21146965.454   -17541492.878 8 -13668704.411 9
 91 11 20 18 11  0.0010000  0  4 23 21  3 17
  21459660.984   -16293687.553 7 -12696363.562 9
  24474239.636    -1520626.225 5  -1184904.032 1
  21061902.344   -13333194.009 7 -10389515.096 7
  21148856.849   -17531569.039 8 -13660971.593 9
 91 11 20 18 11 30.0010000  0  4 23 21  3 17
  21454270.420   -16322021.455 7 -12718441.864 9
  24458859.991    -1601439.450 5  -1247875.622 3
  21070282.741   -13289146.450 7 -10355192.351 7
  21150788.117   -17521425.185 8 -13653067.347 9
 91 11 20 18 12  0.0010000  0  4 23 21  3 17
  21448951.803   -16349963.169 7 -12740214.570 8
  24443515.107    -1682065.304 5  -1310701.199 2
  21078771.068   -13244532.514 7 -10320428.282 7
  21152766.744   -17511041.129 8 -13644975.932 9
 91 11 20 18 12 30.0010000  0  4 23 21  3 17
  21443712.933   -16377491.601 7 -12761665.250 9
  24428216.397    -1762498.012 5  -1373376.276 2
  21087372.123   -13199344.253 7 -10285216.688 6
  21154791.249   -17500395.876 8 -13636680.995 9
 91 11 20 18 13  0.0010000  0  4 23 21  3 17
  21438555.888   -16404587.891 7 -12782779.204 9
  24412941.680    -1842731.178 5  -1435895.399 2
  21096082.295   -13153574.242 7 -10249551.783 7
  21156866.411   -17489479.047 8 -13628174.442 9
 91 11 20 18 13 30.0010000  0  4 23 21  3 17
  21433482.516   -16431246.529 7 -12803552.129 8
  24397708.321    -1922771.785 5  -1498264.957 3
  21104898.878   -13107234.254 7 -10213442.738 7
  21158992.842   -17478302.792 8 -13619465.743 9
 91 11 20 18 14  0.0010000  0  4 23 21  3 17
  21428502.050   -16457442.417 7 -12823964.482 9
  24382516.336    -2002607.317 5  -1560474.277 2
  21113826.706   -13060322.058 7 -10176887.814 7
  21161166.930   -17466876.623 8 -13610562.295 9
 91 11 20 18 14 30.0010000  0  4 23 21  3 17
  21423597.160   -16483190.498 7 -12844027.885 9
  24367371.728    -2082244.062 5  -1622528.657 4
  21122857.647   -13012847.630 7 -10139894.789 7
  21163381.799   -17455234.781 8 -13601490.792 9
 91 11 20 18 15  0.0010000  0  4 23 21  3 17
  21418782.785   -16508506.993 7 -12863755.005 9
  24352250.189    -2161670.690 5  -1684419.350 2
  21132001.020   -12964808.565 7 -10102461.796 6
  21165638.636   -17443389.220 8 -13592260.548 9
 91 11 20 18 15 30.0010000  0  4 23 21  3 17
  21414045.766   -16533397.177 7 -12883149.931 9
  24337177.215    -2240875.572 5  -1746137.267 2
  21141250.211   -12916203.483 7 -10064587.733 7
  21167928.157   -17431350.357 8 -13582879.666 9
 91 11 20 18 16  0.0010000  0  4 23 21  3 17
  21409385.197   -16557881.336 7 -12902228.467 9
  24322149.227    -2319857.816 5  -1807681.743 2
  21150605.832   -12867034.091 7 -10026273.972 7
  21170254.829   -17419120.143 8 -13573349.688 9
 91 11 20 18 16 30.0010000  0  4 23 21  3 17
  21404802.560   -16581989.860 7 -12921014.338 9
  24307161.706    -2398629.734 5  -1869062.325 1
  21160069.992   -12817303.863 7  -9987523.183 6
  21172620.206   -17406687.627 8 -13563662.058 9
 91 11 20 18 17  0.0010000  0  4 23 21  3 17
  21400281.697   -16605730.276 7 -12939513.342 9
  24292208.946    -2477198.499 5  -1930284.651 2
  21169642.658   -12767015.523 7  -9948337.505 7
  21175027.237   -17394042.678 8 -13553808.892 9
 91 11 20 18 17 30.0010000  0  4 23 21  3 17
  21395836.062   -16629099.418 7 -12957723.054 9
  24277299.079    -2555575.341 5  -1991357.438 2
  21179319.065   -12716167.350 7  -9908715.608 7
  21177476.846   -17381175.377 8 -13543782.460 9
 91 11 20 18 18  0.0010000  0  4 23 21  3 17
  21391457.611   -16652104.434 7 -12975649.035 9
  24262403.590    -2633765.257 5  -2052284.564 3
  21189102.199   -12664758.322 7  -9868656.669 6
  21179970.220   -17368071.655 8 -13533571.791 9
 91 11 20 18 18 30.0010000  0  4 23 21  3 17
  21387148.681   -16674733.805 7 -12993282.295 9
  24247566.560    -2711770.593 5  -2113067.877 3
  21198991.150   -12612791.175 7  -9828162.831 6
  21182506.749   -17354733.779 8 -13523178.673 9
 91 11 20 18 19  0.0010000  0  4 23 21  3 17
  21382923.111   -16696957.825 7 -13010599.710 9
  24232767.903    -2789564.253 5  -2173686.230 2
  21208989.217   -12560258.640 7  -9787228.433 7
  21185092.173   -17341162.137 8 -13512603.373 9
 91 11 20 18 19 30.0010000  0  4 23 21  3 17
  21378771.582   -16718770.568 7 -13027596.639 9
  24218000.133    -2867140.588 5  -2234135.277 3
  21219090.136   -12507161.551 7  -9745854.121 7
  21187718.641   -17327357.257 8 -13501846.342 9
 91 11 20 18 20  0.0010000  0  4 23 21  3 17
  21374698.003   -16740155.125 7 -13044259.921 9
  24203284.818    -2944489.971 5  -2294407.449 2
  21229299.857   -12453498.168 7  -9704038.553 6
  21190392.188   -17313313.082 8 -13490902.838 9
 91 11 20 18 20 30.0010000  0  4 23 21  3 17
  21370714.956   -16761097.944 7 -13060579.004 9
  24188609.080    -3021612.683 5  -2354502.977 3
  21239624.715   -12399266.968 7  -9661780.543 7
  21193106.814   -17299035.581 8 -13479777.522 9
 91 11 20 18 21  0.0020000  0  4 23 21  3 17
  21366809.862   -16781613.230 7 -13076564.944 9
  24173972.015    -3098526.394 5  -2414435.672 3
  21250048.204   -12344474.021 7  -9619084.805 6
  21195866.412   -17284526.997 8 -13468472.141 9
 91 11 20 18 21 30.0020000  0  4 23 21  3 17
  21362988.404   -16801701.892 8 -13092218.438 9
  24159375.710    -3175239.755 5  -2474212.246 3
  21260580.213   -12289117.622 7  -9575950.016 6
  21198675.758   -17269782.474 8 -13456982.902 9
 91 11 20 18 22  0.0020000  0  4 23 21  3 17
  21359245.803   -16821371.305 7 -13107545.256 9
  24144811.794    -3251751.363 5  -2533831.569 3
  21271224.043   -12233196.972 7  -9532375.551 7
  21201523.197   -17254809.898 8 -13445315.969 9
 91 11 20 18 22 30.0020000  0  4 23 21  3 17
  21355579.931   -16840641.750 8 -13122561.190 9
  24130287.454    -3328063.578 5  -2593295.502 2
  21281968.893   -12176714.065 7  -9488362.964 6
  21204414.995   -17239625.658 8 -13433484.101 9
 91 11 20 18 23  0.0020000  0  4 23 21  3 17
  21351983.337   -16859525.127 7 -13137275.524 9
  24115802.674    -3404178.233 5  -2652605.500 3
  21292824.987   -12119674.341 7  -9443916.505 6
  21207342.461   -17224232.831 8 -13421489.710 9
 91 11 20 18 23 30.0020000  0  4 23 21  3 17
  21348468.566   -16878021.254 8 -13151688.107 9
  24101364.067    -3480086.505 5  -2711754.698 2
  21303785.696   -12062073.723 7  -9399032.992 7
  21210310.411   -17208638.492 8 -13409338.284 9
 91 11 20 18 24  0.0020000  0  4 23 21  3 17
  21345018.850   -16896132.242 7 -13165800.583 9
  24086955.754    -3555782.974 5  -2770738.832 3
  21314854.334   -12003912.814 7  -9353712.891 7
  21213317.031   -17192841.544 8 -13397029.003 9
 91 11 20 18 24 30.0020000  0  4 23 21  3 17
  21341649.178   -16913848.160 8 -13179605.204 9
  24072595.987    -3631279.584 5  -2829567.213 2
  21326026.696   -11945193.314 7  -9307957.541 7
  21216362.024   -17176842.039 8 -13384561.886 9
 91 11 20 18 25  0.0020000  0  4 23 21  3 17
  21338352.972   -16931160.318 8 -13193095.213 9
  24058264.106    -3706573.454 5  -2888237.606 2
  21337311.490   -11885913.690 7  -9261765.709 6
  21219443.279   -17160633.169 8 -13371931.632 9
 91 11 20 18 25 30.0020000  0  4 23 21  3 17
  21335136.495   -16948068.141 8 -13206270.158 9
  24043971.505    -3781660.955 5  -2946747.158 3
  21348698.804   -11826075.934 7  -9215138.964 6
  21222567.723   -17144226.075 8 -13359146.933 9
 91 11 20 18 26  0.0020000  0  4 23 21  3 17
  21331997.969   -16964566.833 8 -13219126.300 9
  24029729.265    -3856528.966 5  -3005085.724 4
  21360187.749   -11765678.743 7  -9168076.306 7
  21225729.336   -17127614.164 8 -13346202.630 9
 91 11 20 18 26 30.0020000  0  4 23 21  3 17
  21328933.484   -16980656.953 8 -13231664.065 9
  24015526.603    -3931161.936 6  -3063241.122 2
  21371790.625   -11704714.586 7  -9120571.858 6
  21228931.416   -17110786.196 8 -13333089.983 9
 91 11 20 18 27  0.0020000  0  4 23 21  3 17
  21325946.949   -16996356.539 8 -13243897.520 9
  24001375.192    -4005543.239 5  -3121200.445 3
  21383499.617   -11643184.271 7  -9072626.261 6
  21232172.480   -17093739.145 8 -13319806.631 9
 91 11 20 18 27 30.0020000  0  4 23 21  3 17
  21323035.677   -17011661.369 8 -13255823.376 9
  23987261.560    -4079675.009 5  -3178965.291 2
  21395315.927   -11581088.706 7  -9024240.208 6
  21235466.593   -17076465.521 8 -13306346.728 9
 91 11 20 18 28  0.0020000  0  4 23 21  3 17
  21320194.240   -17026579.845 8 -13267448.165 9
  23973206.387    -4153563.956 5  -3236540.937 2
  21407237.479   -11518431.863 7  -8975416.793 6
  21238792.185   -17058955.188 8 -13292702.388 9
 91 11 20 18 28 30.0020000  0  4 23 21  3 17
  21317428.660   -17041116.951 8 -13278775.783 9
  23959189.290    -4227226.845 6  -3293940.410 3
  21419269.945   -11455221.745 7  -8926162.246 5
  21242171.752   -17041212.029 8 -13278876.620 9
 91 11 20 18 29  0.0020000  0  4 23 21  3 17
  21314741.309   -17055249.694 8 -13289788.314 9
  23945213.865    -4300662.830 6  -3351163.099 2
  21431403.448   -11391448.215 7  -8876468.694 7
  21245591.488   -17023225.072 8 -13264860.869 9
 91 11 20 18 29 30.0020000  0  4 23 21  3 17
  21312127.423   -17068976.329 7 -13300484.387 9
  23931286.706    -4373900.739 6  -3408231.433 4
  21443645.177   -11327120.249 7  -8826343.107 6
  21249059.789   -17004991.722 8 -13250653.126 9
 91 11 20 18 30  0.0020000  0  4 23 21  3 17
  21309596.269   -17082299.672 8 -13310866.199 9
  23917377.243    -4446929.300 5  -3465136.620 2
  21455994.225   -11262235.888 7  -8775783.956 7
  21252580.841   -16986504.277 8 -13236247.399 9
 91 11 20 18 30 30.0020000  0  4 23 21  3 17
  21307134.986   -17095219.020 7 -13320933.213 9
  23903512.748    -4519752.745 5  -3521881.972 3
  21468446.701   -11196794.363 7  -8724790.662 6
  21256149.271   -16967758.160 8 -13221640.118 9
 91 11 20 18 31  0.0020000  0  4 23 21  3 17
  21304750.728   -17107744.920 7 -13330693.645 9
  23889698.597    -4592373.270 5  -3578469.213 4
  21481003.808   -11130800.569 7  -8673367.015 7
  21259762.077   -16948767.198 8 -13206842.030 9
 91 11 20 18 31 30.0020000  0  4 23 21  3 17
  21302444.716   -17119865.482 7 -13340138.236 9
  23875923.448    -4664773.650 6  -3634884.899 4
  21493669.437   -11064246.479 7  -8621506.778 7
  21263421.039   -16929532.833 8 -13191854.289 9
 91 11 20 18 32  0.0020000  0  4 23 21  3 17
  21300213.968   -17131577.539 7 -13349264.522 9
  23862195.047    -4736935.002 6  -3691114.372 3
  21506439.402   -10997129.372 7  -8569207.832 6
  21267126.767   -16910069.125 8 -13176687.826 9
 91 11 20 18 32 30.0020000  0  4 23 21  3 17
  21298059.058   -17142888.890 7 -13358078.570 9
  23848502.018    -4808875.568 6  -3747171.807 2
  21519319.094   -10929456.231 7  -8516475.603 6
  21270874.184   -16890394.875 8 -13161357.317 9
 91 11 20 18 33  0.0020000  0  4 23 21  3 17
  21295985.099   -17153794.781 7 -13366576.680 9
  23834854.273    -4880582.903 6  -3803047.506 3
  21532304.603   -10861224.920 7  -8463308.449 6
  21274652.470   -16870514.888 8 -13145866.488 9
 91 11 20 18 33 30.0020000  0  4 23 21  3 17
  21293985.182   -17164310.469 7 -13374770.736 9
  23821248.495    -4952062.581 6  -3858745.782 2
  21545392.633   -10792438.051 7  -8409708.393 5
  21278478.709   -16850411.968 8 -13130201.936 9
 91 11 20 18 34  0.0020000  0  4 23 21  3 17
  21292053.321   -17174462.485 8 -13382681.411 9
  23807692.485    -5023326.703 6  -3914276.129 4
  21558584.701   -10723105.725 7  -8355683.291 6
  21282347.842   -16830076.044 8 -13114355.822 9
 91 11 20 18 34 30.0020000  0  4 23 21  3 17
  21290191.610   -17184251.124 7 -13390308.940 9
  23794171.237    -5094366.906 6  -3969631.973 4
  21571886.793   -10653216.327 7  -8301224.110 6
  21286266.428   -16809488.148 8 -13098313.367 9
 91 11 20 18 35  0.0020000  0  4 23 21  3 17
  21288400.642   -17193669.195 7 -13397647.720 9
  23780697.068    -5165160.742 6  -4024795.833 3
  21585294.109   -10582758.163 7  -8246321.757 6
  21290235.672   -16788634.725 8 -13082064.007 9
 91 11 20 18 35 30.0020000  0  4 23 21  3 17
  21286682.528   -17202717.868 7 -13404698.676 9
  23767276.856    -5235707.415 6  -4079767.112 3
  21598810.559   -10511737.053 7  -8190980.734 6
  21294251.089   -16767521.786 8 -13065612.420 9
 91 11 20 18 36  0.0020000  0  4 23 21  3 17
  21285032.784   -17211380.270 8 -13411448.637 9
  23753901.020    -5306003.616 6  -4134543.239 2
  21612431.030   -10440157.996 7  -8135204.944 6
  21298317.181   -16746170.252 8 -13048974.896 9
 91 11 20 18 36 30.0020000  0  4 23 21  3 17
  21283457.361   -17219656.067 8 -13417897.351 9
  23740568.338    -5376059.569 6  -4189132.120 4
  21626154.021   -10368032.720 7  -8079003.534 6
  21302414.737   -16724609.899 8 -13032174.689 9
 91 11 20 18 37  0.0020000  0  4 23 21  3 17
  21281956.608   -17227528.794 7 -13424031.985 9
  23727283.941    -5445867.875 5  -4243528.054 4
  21639981.957   -10295359.017 7  -8022374.790 6
  21306560.874   -16702845.745 8 -13015215.660 9
 91 11 20 18 37 30.0020000  0  4 23 21  3 17
  21280536.492   -17234984.162 7 -13429841.389 9
  23714043.013    -5515436.904 6  -4297737.492 4
  21653918.696   -10222136.736 7  -7965318.549 6
  21310742.086   -16680861.714 8 -12998085.294 9
 91 11 20 18 38  0.0020000  0  4 23 21  3 17
  21279198.217   -17242027.017 7 -13435329.369 9
  23700849.741    -5584777.131 6  -4351768.697 3
  21667955.284   -10148362.846 7  -7907832.512 6
  21314966.452   -16658657.947 8 -12980783.709 9
 91 11 20 18 38 30.0020000  0  4 23 21  3 17
  21277935.798   -17248660.280 8 -13440498.181 9
  23687696.656    -5653888.515 6  -4405621.570 3
  21682102.193   -10074034.977 7  -7849914.808 6
  21319238.492   -16636225.025 8 -12963303.560 9
 91 11 20 18 39  0.0020000  0  4 23 21  3 17
  21276750.719   -17254889.364 8 -13445352.048 9
  23674592.415    -5722768.751 6  -4459294.361 2
  21696349.825    -9999158.539 7  -7791569.636 6
  21323549.812   -16613551.690 8 -12945636.061 9
 91 11 20 18 39 30.0020000  0  4 23 21  3 17
  21275640.275   -17260728.058 8 -13449901.717 9
  23661527.158    -5791426.818 6  -4512794.010 2
  21710702.385    -9923738.776 7  -7732801.097 6
  21327914.496   -16590637.703 8 -12927781.055 9
 91 11 20 18 40  0.0020000  0  4 23 21  3 17
  21274603.295   -17266175.677 8 -13454146.646 9
  23648505.684    -5859840.729 6  -4566103.418 5
  21725159.594    -9847766.771 7  -7673602.242 6
  21332316.348   -16567490.172 8 -12909744.056 9
 91 11 20 18 40 30.0020000  0  4 23 21  3 17
  21273637.670   -17271245.280 8 -13458097.028 9
  23635533.960    -5928007.429 6  -4619220.181 3
  21739719.898    -9771256.569 7  -7613984.025 6
  21336764.670   -16544115.313 8 -12891529.923 9
 91 11 20 18 41  0.0020000  0  4 23 21  3 17
  21272745.493   -17275937.062 8 -13461752.999 9
  23622610.503    -5995922.884 6  -4672141.211 4
  21754380.350    -9694202.585 7  -7553942.064 6
  21341255.257   -16520507.618 8 -12873134.349 9
 91 11 20 18 41 30.0020000  0  4 23 21  3 17
  21271921.651   -17280254.204 8 -13465117.035 9
  23609731.422    -6063594.971 6  -4724872.591 4
  21769145.729    -9616603.794 7  -7493475.592 6
  21345796.519   -16496668.795 8 -12854558.681 9
 91 11 20 18 42  0.0020000  0  4 23 21  3 17
  21271170.384   -17284200.061 7 -13468191.760 9
  23596906.594    -6131018.706 6  -4777410.484 5
  21784015.444    -9538465.498 7  -7432588.721 6
  21350376.137   -16472597.703 8 -12835802.007 9
 91 11 20 18 42 30.0020000  0  4 23 21  3 17
  21270487.155   -17287780.308 7 -13470981.604 9
  23584120.156    -6198200.905 6  -4829760.148 2
  21798988.568    -9459792.592 7  -7371285.294 5
  21355000.741   -16448293.594 8 -12816863.775 9
 91 11 20 18 43  0.0020000  0  4 23 21  3 17
  21269879.172   -17290991.523 8 -13473483.884 9
  23571377.170    -6265138.441 6  -4881919.223 4
  21814058.541    -9380583.788 7  -7309564.262 6
  21359669.704   -16423749.496 8 -12797738.531 9
 91 11 20 18 43 30.0020000  0  4 23 21  3 17
  21269336.244   -17293840.702 8 -13475704.060 9
  23558689.361    -6331839.390 6  -4933893.912 4
  21829232.832    -9300849.470 7  -7247433.745 6
  21364383.653   -16398970.518 8 -12778430.252 9
 91 11 20 18 44  0.0020000  0  4 23 21  3 17
  21268863.465   -17296329.328 7 -13477643.268 9
  23546039.610    -6398294.881 6  -4985677.346 3
  21844508.159    -9220591.398 7  -7184895.108 5
  21369147.039   -16373959.090 8 -12758940.851 9
 91 11 20 18 44 30.0020000  0  4 23 21  3 17
  21268460.557   -17298449.302 7 -13479295.217 9
  23533449.226    -6464506.025 6  -5037270.401 5
  21859881.225    -9139800.076 7  -7121940.948 5
  21373950.927   -16348701.224 8 -12739259.417 9
 91 11 20 18 45  0.0020000  0  4 23 21  3 17
  21268128.078   -17300205.070 8 -13480663.356 9
  23520893.027    -6530477.399 6  -5088676.618 3
  21875355.014    -9058478.988 7  -7058574.003 6
  21378807.253   -16323190.246 8 -12719380.771 9
 91 11 20 18 45 30.0020000  0  4 23 21  3 17
  21267858.873   -17301596.588 8 -13481747.667 9
  23508373.699    -6596216.058 6  -5139901.513 4
  21890930.432    -8976625.278 7  -6994792.015 5
  21383709.159   -16297431.365 8 -12699308.942 9
 91 11 20 18 46  0.0020000  0  4 23 21  3 17
  21267668.492   -17302614.673 8 -13482540.988 9
  23495916.111    -6661697.718 6  -5190926.165 3
  21906613.467    -8894234.272 7  -6930591.358 4
  21388659.035   -16271416.012 8 -12679037.255 9
 91 11 20 18 46 30.0020000  0  4 23 21  3 17
  21267544.386   -17303261.639 7 -13483045.119 9
  23483504.103    -6726933.914 6  -5241759.532 4
  21922390.941    -8811316.629 7  -6865980.333 6
  21393659.570   -16245147.502 8 -12658568.315 9
 91 11 20 18 47  0.0020000  0  4 23 21  3 17
  21267497.916   -17303524.419 8 -13483249.884 9
  23471134.970    -6791924.828 6  -5292401.762 4
  21938271.547    -8727873.196 7  -6800959.599 6
  21398700.885   -16218635.308 8 -12637909.485 9
 91 11 20 18 47 30.0020000  0  4 23 21  3 17
  21267519.502   -17303396.990 8 -13483150.591 9
  23458810.509    -6856670.900 6  -5342853.191 5
  21954245.092    -8643906.025 7  -6735530.767 5
  21403796.157   -16191882.636 8 -12617063.274 9
 91 11 20 18 48  0.0020000  0  4 23 21  3 17
  21267620.224   -17302875.629 8 -13482744.349 9
  23446542.989    -6921169.752 6  -5393111.995 4
  21970328.051    -8559413.039 7  -6669692.193 5
  21408934.897   -16164872.837 8 -12596016.713 9
 91 11 20 18 48 30.0020000  0  4 23 21  3 17
  21267793.208   -17301964.781 8 -13482034.593 9
  23434308.170    -6985446.125 6  -5443197.432 5
  21986507.264    -8474394.268 7  -6603443.914 4
  21414118.606   -16137620.456 8 -12574781.126 9
 91 11 20 18 49  0.0020000  0  4 23 21  3 17
  21268040.548   -17300667.697 8 -13481023.874 9
  23422127.307    -7049482.900 6  -5493096.165 4
  22002783.588    -8388841.600 7  -6536779.638 4
  21419350.897   -16110128.002 8 -12553358.478 9
 91 11 20 18 49 30.0020000  0  4 23 21  3 17
  21268352.034   -17299016.714 7 -13479737.396 9
  23409980.908    -7113288.016 6  -5542814.359 4
  22019158.559    -8302773.190 7  -6469713.465 5
  21424626.342   -16082401.610 8 -12531753.534 9
 91 11 20 18 50  0.0020000  0  4 23 21  3 17
  21268732.763   -17297014.205 7 -13478176.998 9
  23397884.278    -7176860.583 6  -5592351.377 4
  22035640.551    -8216191.917 7  -6402247.672 5
  21429946.163   -16054451.819 8 -12509974.523 9
 91 11 20 18 50 30.0020000  0  4 23 21  3 17
  21269181.844   -17294653.779 7 -13476337.732 9
  23385833.227    -7240191.993 6  -5641700.446 3
  22052210.964    -8129099.346 7  -6334383.463 5
  21435302.542   -16026287.155 8 -12488028.083 9
 91 11 20 18 51  0.0020000  0  4 23 21  3 17
  21269700.185   -17291937.390 7 -13474221.076 9
  23373832.538    -7303279.676 6  -5690859.616 4
  22068880.633    -8041497.889 7  -6266122.725 4
  21440706.910   -15997888.048 8 -12465898.963 9
 91 11 20 18 51 30.0020000  0  4 23 21  3 17
  21270285.082   -17288855.923 7 -13471819.960 9
  23361869.018    -7366137.998 6  -5739840.055 6
  22085649.821    -7953386.234 7  -6197464.434 6
  21446162.825   -15969239.337 8 -12443575.335 9
 91 11 20 18 52  0.0020000  0  4 23 21  3 17
  21270939.238   -17285417.122 7 -13469140.414 9
  23349951.357    -7428767.490 6  -5788642.189 5
  22102513.450    -7864765.611 7  -6128409.541 5
  21451657.131   -15940350.234 8 -12421064.409 9
 91 11 20 18 52 30.0020000  0  4 23 21  3 17
  21271657.838   -17281636.779 7 -13466194.729 9
  23338071.789    -7491169.731 6  -5837267.227 4
  22119473.003    -7775641.563 7  -6058962.362 5
  21457203.595   -15911220.149 8 -12398365.700 9
 91 11 20 18 53  0.0020000  0  4 23 21  3 17
  21272440.899   -17277531.231 8 -13462995.641 9
  23326247.068    -7553340.769 6  -5885712.109 5
  22136527.310    -7686021.816 7  -5989128.923 5
  21462789.619   -15881853.602 8 -12375482.732 9
 91 11 20 18 53 30.0020000  0  4 23 21  3 17
  21273286.310   -17273100.993 8 -13459543.556 9
  23314454.735    -7615246.757 6  -5933950.467 4
  22153674.836    -7595899.263 7  -5918903.689 5
  21468426.022   -15852253.258 8 -12352417.574 9
 91 11 20 18 54  0.0020000  0  4 23 21  3 17
  21274190.790   -17268346.729 8 -13455838.989 9
  23302736.460    -7676873.613 6  -5981971.301 5
  22170923.085    -7505278.043 7  -5848289.902 5
  21474101.095   -15822430.494 8 -12329179.107 9
 91 11 20 18 54 30.0020000  0  4 23 21  3 17
  21275160.620   -17263248.336 8 -13451866.269 9
  23291058.041    -7738213.719 6  -6029768.718 3
  22188261.586    -7414154.500 7  -5777284.672 6
  21479818.728   -15792365.977 8 -12305752.265 9
 91 11 20 18 55  0.0020000  0  4 23 21  3 17
  21276196.989   -17257790.658 8 -13447613.586 9
  23279443.473    -7799259.762 6  -6077336.959 4
  22205700.810    -7322521.593 7  -5705882.534 5
  21485590.336   -15762045.016 8 -12282125.604 9
 91 11 20 18 55 30.0020000  0  4 23 21  3 17
  21277304.729   -17251975.380 7 -13443082.245 9
  23267879.877    -7860039.039 6  -6124697.336 3
  22223233.271    -7230383.717 7  -5634086.915 5
  21491405.115   -15731472.659 8 -12258303.035 9
 91 11 20 18 56  0.0020000  0  4 23 21  3 17
  21278485.602   -17245787.822 8 -13438260.824 9
  23256361.860    -7920571.130 6  -6171865.116 4
  22240859.876    -7137740.240 7  -5561897.338 5
  21497275.054   -15700646.146 8 -12234282.420 9
 91 11 20 18 56 30.0020000  0  4 23 21  3 17
  21279730.047   -17239226.283 8 -13433147.977 9
  23244890.890    -7980859.905 6  -6218843.260 4
  22258587.499    -7044589.335 7  -5489312.354 5
  21503188.147   -15669566.460 8 -12210064.511 9
 91 11 20 18 57  0.0020000  0  4 23 21  3 17
  21281049.441   -17232294.627 7 -13427746.728 9
  23233460.404    -8040919.968 6  -6265643.232 3
  22276411.065    -6950935.502 7  -5416335.465 5
  21509151.620   -15638247.778 8 -12185660.402 9
 91 11 20 18 57 30.0020000  0  4 23 21  3 17
  21282443.765   -17224991.116 8 -13422055.717 9
  23222072.793    -8100754.039 6  -6312267.081 3
  22294324.568    -6856786.392 7  -5342972.656 5
  21515154.669   -15606690.586 8 -12161070.424 9
 91 11 20 18 58  0.0020000  0  4 23 21  3 17
  21283904.366   -17217303.699 8 -13416065.532 9
  23210732.246    -8160341.560 6  -6358698.823 3
  22312335.496    -6762136.944 7  -5269219.987 5
  21521205.672   -15574876.327 8 -12136280.124 9
 91 11 20 18 58 30.0020000  0  4 23 21  3 17
  21285434.506   -17209251.718 8 -13409791.274 9
  23199444.450    -8219690.889 6  -6404944.957 4
  22330442.959    -6667001.955 7  -5195088.946 5
  21527309.758   -15542801.839 8 -12111287.053 9
 91 11 20 18 59  0.0020000  0  4 23 21  3 17
  21287036.593   -17200849.988 7 -13403244.462 9
  23188191.450    -8278797.903 6  -6451002.274 5
  22348634.654    -6571380.541 7  -5120578.893 5
  21533468.690   -15510447.322 8 -12086075.785 9
 91 11 20 18 59 30.0020000  0  4 23 21  3 17
  21288695.044   -17192116.731 7 -13396439.327 9
  23176994.204    -8337657.672 7  -6496866.927 4
  22366927.106    -6475275.020 7  -5045691.611 5
  21539676.500   -15477815.209 8 -12060648.182 9
 91 11 20 19  0  0.0020000  0  3 23 21 17
  21290417.049   -17183079.058 7 -13389396.976 9
  23165835.924    -8396283.067 6  -6542548.961 4
  21545934.061   -15444932.320 8 -12035025.186 9
 91 11 20 19  0 30.0020000  0  3 23 21 17
  21292193.621   -17173742.997 7 -13382122.106 9
  23154727.116    -8454666.262 6  -6588042.297 5
  21552240.186   -15411799.770 8 -12009207.646 9
 91 11 20 19  1  0.0020000  0  3 23 21 17
  21294031.949   -17164096.273 8 -13374605.159 9
  23143660.885    -8512805.101 6  -6633345.228 4
  21558586.795   -15378439.701 8 -11983212.801 9
 91 11 20 19  1 30.0020000  0  3 23 21 17
  21295929.032   -17154107.537 8 -13366821.718 9
  23132652.799    -8570673.502 6  -6678437.432 4
  21564978.670   -15344853.953 8 -11957042.105 9
 91 11 20 19  2  0.0020000  0  3 23 21 17
  21297894.171   -17143764.364 7 -13358762.077 9
  23121694.778    -8628250.682 6  -6723302.723 4
  21571416.125   -15311027.456 8 -11930683.803 9
 91 11 20 19  2 30.0020000  0  3 23 21 17
  21299931.868   -17133076.757 8 -13350434.060 9
  23110794.325    -8685548.884 6  -6767950.634 5
  21577898.532   -15276957.156 8 -11904135.542 9
 91 11 20 19  3  0.0020000  0  3 23 21 17
  21302028.005   -17122053.898 7 -13341844.807 9
  23099940.045    -8742572.443 6  -6812384.555 5
  21584428.910   -15242653.090 8 -11877405.123 9
 91 11 20 19  3 30.0020000  0  3 23 21 17
  21304184.712   -17110712.736 7 -13333007.538 9
  23089142.723    -8799314.738 6  -6856599.330 6
  21591002.756   -15208098.000 8 -11850479.105 9
 91 11 20 19  4  0.0020000  0  3 23 21 17
  21306405.881   -17099060.953 7 -13323928.229 9
  23078389.463    -8855799.247 6  -6900613.230 4
  21597627.871   -15173281.639 8 -11823349.499 9
 91 11 20 19  4 30.0020000  0  3 23 21 17
  21308685.804   -17087083.410 7 -13314595.080 9
  23067689.879    -8912038.427 6  -6944435.976 6
  21604300.363   -15138208.119 8 -11796019.505 9
 91 11 20 19  5  0.0020000  0  3 23 21 17
  21311027.187   -17074766.539 7 -13304997.520 9
  23057036.137    -8968027.939 7  -6988064.173 5
  21611024.996   -15102885.168 8 -11768495.151 9
 91 11 20 19  5 30.0020000  0  3 23 21 17
  21313436.923   -17062108.160 7 -13295133.860 9
  23046423.787    -9023790.396 7  -7031515.466 5
  21617794.005   -15067311.953 8 -11740775.790 9
 91 11 20 19  6  0.0020000  0  3 23 21 17
  21315911.695   -17049099.461 7 -13284997.227 9
  23035857.314    -9079326.967 6  -7074790.744 5
  21624606.501   -15031494.143 8 -11712865.839 9
 91 11 20 19  6 30.0020000  0  3 23 21 17
  21318451.243   -17035742.476 7 -13274589.206 9
  23025333.088    -9134618.751 6  -7117875.260 6
  21631475.046   -14995431.114 8 -11684764.807 8
 91 11 20 19  7  0.0020000  0  3 23 21 17
  21321056.735   -17022066.391 7 -13263932.541 9
  23014857.146    -9189667.018 6  -7160770.019 4
  21638379.556   -14959130.410 8 -11656478.579 9
 91 11 20 19  7 30.0020000  0  3 23 21 17
  21323712.902   -17008092.771 7 -13253044.024 9
  23004430.362    -9244469.786 6  -7203473.483 6
  21645335.946   -14922584.361 8 -11628001.188 9
 91 11 20 19  8  0.0020000  0  3 23 21 17
  21326428.714   -16993827.174 8 -13241928.003 9
  22994054.550    -9299000.849 7  -7245965.225 5
  21652335.193   -14885788.482 8 -11599329.118 9
 91 11 20 19  8 30.0020000  0  3 23 21 17
  21329200.298   -16979274.577 8 -13230588.336 9
  22983726.097    -9353265.002 6  -7288248.967 5
  21659386.024   -14848733.453 8 -11570455.122 9
 91 11 20 19  9  0.0020000  0  3 23 21 17
  21332022.556   -16964414.859 8 -13219009.360 9
  22973450.711    -9407259.793 6  -7330322.808 5
  21666492.607   -14811406.391 8 -11541369.158 9
 91 11 20 19  9 30.0020000  0  3 23 21 17
  21334915.541   -16949230.426 8 -13207177.370 9
  22963231.393    -9460992.546 7  -7372192.464 5
  21673649.238   -14773797.398 8 -11512063.511 9
 91 11 20 19 10  0.0020000  0  3 23 21 17
  21337869.705   -16933701.853 7 -13195077.213 9
  22953044.741    -9514475.554 6  -7413867.512 5
  21680859.860   -14735906.446 8 -11482538.152 9
 91 11 20 19 10 30.0020000  0  3 23 21 17
  21340894.910   -16917806.583 7 -13182691.319 9
  22942919.549    -9567713.013 7  -7455351.214 5
  21688123.531   -14697729.155 8 -11452789.674 9
 91 11 20 19 11  0.0020000  0  3 23 21 17
  21343993.563   -16901542.578 8 -13170018.101 9
  22932829.431    -9620697.578 6  -7496637.833 4
  21695443.862   -14659273.989 8 -11422824.687 9
 91 11 20 19 11 30.0020000  0  3 23 21 17
  21347152.174   -16884927.473 7 -13157071.303 9
  22922804.665    -9673418.046 7  -7537718.671 5
  21702811.257   -14620542.419 8 -11392644.326 8
 91 11 20 19 12  0.0020000  0  3 23 21 17
  21350378.545   -16867976.483 7 -13143862.775 9
  22912825.776    -9725866.655 7  -7578587.657 5
  21710231.124   -14581553.473 8 -11362263.406 8
 91 11 20 19 12 30.0020000  0  3 23 21 17
  21353663.967   -16850702.105 8 -13130402.263 9
  22902902.046    -9778018.220 7  -7619225.187 6
  21717700.446   -14542312.141 8 -11331685.819 9
 91 11 20 19 13  0.0020000  0  3 23 21 17
  21357010.256   -16833127.157 8 -13116707.530 9
  22893035.885    -9829873.053 7  -7659631.481 6
  21725212.346   -14502823.851 7 -11300915.801 8
 91 11 20 19 13 30.0020000  0  3 23 21 17
  21360408.093   -16815266.978 8 -13102790.531 9
  22883216.787    -9881455.146 6  -7699825.260 6
  21732770.122   -14463100.390 8 -11269962.534 9
 91 11 20 19 14  0.0020000  0  3 23 21 17
  21363863.201   -16797110.254 7 -13088642.470 9
  22873450.144    -9932772.985 7  -7739813.144 6
  21740373.758   -14423138.220 7 -11238823.257 8
 91 11 20 19 14 30.0020000  0  3 23 21 17
  21367376.174   -16778659.265 7 -13074265.108 9
  22863728.174    -9983844.593 6  -7779609.136 6
  21748028.348   -14382917.335 7 -11207482.354 8
 91 11 20 19 15  0.0020000  0  3 23 21 17
  21370938.915   -16759914.169 7 -13059658.576 9
  22854052.674   -10034692.303 6  -7819230.673 6
  21755738.413   -14342422.537 8 -11175928.031 8
 91 11 20 19 15 30.0020000  0  3 23 21 17
  21374562.802   -16740871.935 7 -13044820.529 9
  22844419.142   -10085327.286 6  -7858686.441 5
  21763494.651   -14301653.512 8 -11144160.028 8
 91 11 20 19 16  0.0020000  0  3 23 21 17
  21378245.740   -16721529.996 7 -13029748.894 9
  22834827.281   -10135731.318 7  -7897962.272 5
  21771306.939   -14260595.085 8 -11112166.497 9
 91 11 20 19 16 30.0020000  0  3 23 21 17
  21381981.762   -16701907.280 8 -13014458.502 9
  22825279.796   -10185911.206 7  -7937063.410 6
  21779175.888   -14219262.247 8 -11079959.147 8
 91 11 20 19 17  0.0020000  0  3 23 21 17
  21385768.442   -16682004.000 8 -12998949.476 9
  22815775.168   -10235845.838 7  -7975973.471 5
  21787085.007   -14177674.105 8 -11047552.840 8
 91 11 20 19 17 30.0020000  0  3 23 21 17
  21389613.876   -16661796.237 8 -12983203.199 9
  22806330.814   -10285506.288 7  -8014669.870 5
  21795047.803   -14135831.132 8 -11014947.966 8
 91 11 20 19 18  0.0020000  0  3 23 21 17
  21393516.879   -16641291.784 8 -12967225.735 9
  22796932.615   -10334877.742 7  -8053141.098 6
  21803059.163   -14093736.285 8 -10982146.826 8
 91 11 20 19 18 30.0020000  0  3 23 21 17
  21397475.636   -16620483.235 8 -12951011.309 9
  22787593.485   -10383961.677 7  -8091388.298 6
  21811117.272   -14051395.754 8 -10949154.259 8
 91 11 20 19 19  0.0020000  0  3 23 21 17
  21401496.148   -16599356.948 8 -12934549.300 9
  22778305.310   -10432748.560 7  -8129404.017 6
  21819220.961   -14008804.679 8 -10915966.453 8
 91 11 20 19 19 30.0020000  0  3 23 21 17
  21405580.232   -16577892.907 8 -12917824.109 9
  22769077.391   -10481243.748 7  -8167192.453 5
  21827378.013   -13965937.048 8 -10882563.157 8
 91 11 20 19 20  0.0020000  0  3 23 21 17
  21409719.459   -16556128.225 7 -12900864.666 9
  22759897.145   -10529490.092 7  -8204786.960 6
  21835587.835   -13922798.440 8 -10848948.702 8
 91 11 20 19 20 30.0020000  0  3 23 21 17
  21413923.443   -16534047.992 8 -12883659.334 9
  22750764.277   -10577494.256 7  -8242192.773 6
  21843851.909   -13879367.988 7 -10815106.836 8
 91 11 20 19 21  0.0020000  0  3 23 21 17
  21418187.700   -16511642.039 8 -12866200.194 9
  22741675.471   -10625246.049 7  -8279401.920 6
  21852173.255   -13835624.314 7 -10781020.892 8
 91 11 20 19 21 30.0020000  0  3 23 21 17
  21422505.303   -16488951.473 8 -12848519.285 9
  22732629.522   -10672771.658 7  -8316434.828 6
  21860557.857   -13791587.996 7 -10746706.923 8
 91 11 20 19 22  0.0020000  0  3 23 21 17
  21426875.379   -16465996.346 8 -12830632.220 9
  22723635.157   -10720050.553 7  -8353275.472 6
  21868990.710   -13747275.815 8 -10712178.005 8
 91 11 20 19 22 30.0020000  0  3 23 21 17
  21431295.815   -16442757.770 8 -12812524.293 9
  22714691.449   -10767047.326 7  -8389896.297 6
  21877473.348   -13702702.401 8 -10677445.532 8
 91 11 20 19 23  0.0020000  0  3 23 21 17
  21435771.726   -16419236.847 8 -12794196.359 9
  22705803.791   -10813760.674 7  -8426296.254 6
  21885998.844   -13657882.667 8 -10642521.113 8
 91 11 20 19 23 30.0020000  0  3 23 21 17
  21440299.185   -16395438.295 8 -12775652.094 9
  22696966.216   -10860193.699 7  -8462477.772 6
  21894576.795   -13612827.528 8 -10607413.269 8
 91 11 20 19 24  0.0020000  0  3 23 21 17
  21444888.715   -16371332.970 8 -12756868.779 9
  22688186.488   -10906339.090 7  -8498435.177 6
  21903195.231   -13567522.274 8 -10572110.523 8
 91 11 20 19 24 30.0020000  0  3 23 21 17
  21449535.498   -16346906.488 8 -12737835.211 9
  22679452.933   -10952215.825 7  -8534183.230 6
  21911866.139   -13521948.756 7 -10536598.768 8
 91 11 20 19 25  0.0020000  0  3 23 21 17
  21454239.833   -16322174.946 8 -12718563.935 9
  22670773.648   -10997833.690 7  -8569729.567 6
  21920591.894   -13476094.012 7 -10500867.867 8
 91 11 20 19 25 30.0020000  0  3 23 21 17
  21459005.644   -16297144.428 8 -12699059.691 9
  22662148.023   -11043178.540 7  -8605063.169 6
  21929373.419   -13429949.911 7 -10464911.500 8
 91 11 20 19 26  0.0020000  0  3 23 21 17
  21463824.208   -16271826.230 8 -12679331.265 9
  22653570.962   -11088254.535 7  -8640187.277 6
  21938215.183   -13383504.975 7 -10428720.722 8
 91 11 20 19 26 30.0020000  0  3 23 21 17
  21468692.539   -16246240.128 8 -12659394.084 9
  22645040.371   -11133067.455 7  -8675106.394 6
  21947104.044   -13336769.071 8 -10392303.225 8
 91 11 20 19 27  0.0020000  0  3 23 21 17
  21473606.433   -16220412.244 8 -12639268.486 9
  22636557.436   -11177632.044 7  -8709832.012 6
  21956050.440   -13289767.431 8 -10355678.646 8
 91 11 20 19 27 30.0020000  0  3 23 21 17
  21478570.392   -16194334.171 8 -12618947.930 9
  22628126.974   -11221955.247 7  -8744369.551 5
  21965045.416   -13242501.091 8 -10318847.824 7
 91 11 20 19 28  0.0020000  0  3 23 21 17
  21483581.118   -16168004.502 8 -12598431.331 9
  22619738.183   -11266038.643 7  -8778720.217 5
  21974091.347   -13194972.788 8 -10281812.862 8
 91 11 20 19 28 30.0020000  0  3 23 21 17
  21488638.330   -16141421.423 8 -12577717.246 9
  22611396.455   -11309870.548 7  -8812874.913 6
  21983179.263   -13147204.649 8 -10244591.033 7
 91 11 20 19 29  0.0020000  0  3 23 21 17
  21493746.183   -16114574.575 8 -12556797.658 9
  22603101.791   -11353435.379 7  -8846821.504 6
  21992320.228   -13099179.915 8 -10207169.265 8
 91 11 20 19 29 30.0020000  0  3 23 21 17
  21498905.620   -16087462.024 8 -12535671.004 9
  22594869.197   -11396724.881 7  -8880553.562 6
  22001508.867   -13050892.104 8 -10169542.506 8
 91 11 20 19 30  0.0020000  0  3 23 21 17
  21504117.214   -16060088.427 8 -12514340.944 9
  22586687.855   -11439732.424 7  -8914065.914 6
  22010747.571   -13002335.369 8 -10131706.191 8
 91 11 20 19 30 30.0020000  0  3 23 21 17
  21509372.871   -16032454.648 8 -12492808.149 9
  22578548.497   -11482474.076 7  -8947371.068 6
  22020041.435   -12953496.865 8 -10093650.311 8
 91 11 20 19 31  0.0020000  0  3 23 21 17
  21514685.188   -16004546.118 8 -12471061.267 9
  22570461.892   -11524973.597 7  -8980487.565 6
  22029394.368   -12904355.650 8 -10055358.543 7
 91 11 20 19 31 30.0030000  0  3 23 21 17
  21520052.076   -15976347.800 7 -12449088.590 9
  22562418.758   -11567232.858 7  -9013416.834 6
  22038802.761   -12854909.538 8 -10016829.199 7
 91 11 20 19 32  0.0030000  0  3 23 21 17
  21525471.730   -15947853.048 8 -12426884.925 9
  22554428.391   -11609253.433 7  -9046160.112 6
  22048266.310   -12805166.494 7  -9978068.478 7
 91 11 20 19 32 30.0030000  0  3 23 21 17
  21530952.529   -15919059.794 8 -12404448.662 9
  22546470.411   -11651052.877 7  -9078731.087 5
  22057785.614   -12755144.099 7  -9939090.072 7
 91 11 20 19 33  0.0030000  0  3 23 21 17
  21536487.302   -15889975.105 8 -12381785.320 9
  22538559.773   -11692615.451 7  -9111117.479 6
  22067356.185   -12704851.536 7  -9899901.157 8
 91 11 20 19 33 30.0030000  0  3 23 21 17
  21542073.640   -15860618.213 8 -12358909.873 9
  22530704.924   -11733905.909 7  -9143291.845 5
  22076981.324   -12654288.356 7  -9860501.365 6
 91 11 20 19 34  0.0030000  0  3 23 21 17
  21547706.431   -15831020.363 8 -12335846.664 9
  22522896.528   -11774936.359 7  -9175263.602 6
  22086649.338   -12603467.770 7  -9820900.979 6
 91 11 20 19 34 30.0030000  0  3 23 21 17
  21553380.910   -15801191.611 7 -12312603.543 9
  22515143.885   -11815701.888 7  -9207028.905 6
  22096373.105   -12552379.203 7  -9781091.779 7
 91 11 20 19 35  0.0030000  0  3 23 21 17
  21559101.248   -15771156.621 7 -12289199.732 9
  22507431.726   -11856202.316 7  -9238587.648 6
  22106141.842   -12501030.792 7  -9741080.116 7
 91 11 20 19 35 30.0030000  0  3 23 21 17
  21564853.957   -15740907.874 8 -12265629.348 9
  22499775.635   -11896437.694 7  -9269939.848 7
  22115964.535   -12449425.211 7  -9700868.054 6
 91 11 20 19 36  0.0030000  0  3 23 21 17
  21570653.449   -15710424.817 8 -12241876.381 9
  22492168.701   -11936419.449 7  -9301094.429 7
  22125831.307   -12397558.899 7  -9660452.814 7
 91 11 20 19 36 30.0030000  0  3 23 21 17
  21576504.490   -15679681.745 8 -12217920.818 9
  22484607.330   -11976134.238 7  -9332040.972 7
  22135758.334   -12345419.363 7  -9619824.678 7
 91 11 20 19 37  0.0030000  0  3 23 21 17
  21582406.503   -15648657.519 8 -12193746.158 9
  22477106.231   -12015572.499 7  -9362772.053 7
  22145735.130   -12292996.714 7  -9578975.935 7
 91 11 20 19 37 30.0030000  0  3 23 21 17
  21588363.693   -15617361.518 8 -12169359.729 9
  22469650.992   -12054751.137 7  -9393300.838 7
  22155759.582   -12240285.772 7  -9537902.556 6
 91 11 20 19 38  0.0030000  0  3 23 21 17
  21594370.337   -15585801.503 8 -12144767.564 9
  22462242.206   -12093683.350 7  -9423637.589 7
  22165847.902   -12187284.806 7  -9496603.185 7
 91 11 20 19 38 30.0030000  0  3 23 21 17
  21600421.933   -15553989.112 8 -12119978.749 9
  22454880.203   -12132368.080 8  -9453781.493 6
  22175991.382   -12133987.409 7  -9455072.811 7
 91 11 20 19 39  0.0030000  0  3 23 21 17
  21606521.814   -15521949.353 8 -12095012.769 9
  22447562.280   -12170812.539 7  -9483738.178 7
  22186187.614   -12080398.807 7  -9413315.531 7
 91 11 20 19 39 30.0030000  0  3 23 21 17
  21612662.458   -15489688.706 8 -12069874.653 9
  22440292.903   -12209016.499 7  -9513507.462 7
  22196441.431   -12026522.784 7  -9371334.291 8
 91 11 20 19 40  0.0030000  0  3 23 21 17
  21618841.789   -15457183.000 8 -12044545.576 9
  22433068.513   -12246977.262 7  -9543087.245 6
  22206744.982   -11972367.765 7  -9329135.653 7
 91 11 20 19 40 30.0030000  0  3 23 21 17
  21625073.873   -15424449.369 8 -12019038.902 9
  22425889.685   -12284709.717 7  -9572489.133 7
  22217101.320   -11917955.512 7  -9286736.567 6
 91 11 20 19 41  0.0030000  0  3 23 21 17
  21631350.036   -15391468.448 8 -11993339.532 9
  22418755.216   -12322190.986 7  -9601695.286 6
  22227505.018   -11863282.280 7  -9244134.137 7
 91 11 20 19 41 30.0030000  0  3 23 21 17
  21637675.949   -15358214.678 8 -11967427.533 9
  22411676.518   -12359404.634 7  -9630692.919 6
  22237959.688   -11808340.173 7  -9201322.181 7
 91 11 20 19 42  0.0030000  0  3 23 21 17
  21644054.929   -15324703.748 8 -11941315.162 9
  22404646.680   -12396345.296 7  -9659477.851 7
  22248461.717   -11753131.421 7  -9158302.453 6
 91 11 20 19 42 30.0030000  0  3 23 21 17
  21650478.284   -15290962.613 8 -11915023.394 9
  22397668.425   -12433006.447 7  -9688044.974 6
  22259023.095   -11697654.013 7  -9115073.377 6
 91 11 20 19 43  0.0030000  0  3 23 21 17
  21656940.606   -15256988.485 8 -11888550.076 9
  22390746.814   -12469383.768 7  -9716390.938 7
  22269630.053   -11641900.564 7  -9071629.217 7
 91 11 20 19 43 30.0030000  0  3 23 21 17
  21663449.101   -15222791.266 8 -11861902.930 9
  22383874.360   -12505495.295 7  -9744529.799 6
  22280294.876   -11585866.778 7  -9027966.603 6
 91 11 20 19 44  0.0030000  0  3 23 21 17
  21669997.173   -15188379.753 8 -11835088.786 9
  22377050.487   -12541356.175 7  -9772473.359 7
  22291014.858   -11529545.500 7  -8984079.989 7
 91 11 20 19 44 30.0030000  0  3 23 21 17
  21676589.917   -15153727.266 8 -11808086.889 9
  22370275.789   -12576959.914 7  -9800216.537 7
  22301786.686   -11472920.198 7  -8939956.464 7
 91 11 20 19 45  0.0030000  0  3 23 21 17
  21683233.616   -15118823.072 8 -11780888.853 9
  22363551.732   -12612311.866 8  -9827763.516 6
  22312619.100   -11415992.178 7  -8895597.077 6
 91 11 20 19 45 30.0030000  0  3 23 21 17
  21689922.285   -15083679.270 8 -11753504.097 9
  22356867.862   -12647418.903 8  -9855119.652 7
  22323511.753   -11358759.738 7  -8851000.459 6
 91 11 20 19 46  0.0030000  0  3 23 21 17
  21696652.328   -15048293.177 8 -11725930.566 9
  22350236.151   -12682278.312 8  -9882282.825 7
  22334458.380   -11301232.237 7  -8806173.918 6
 91 11 20 19 46 30.0030000  0  3 23 21 17
  21703430.935   -15012676.565 8 -11698177.406 9
  22343648.816   -12716886.715 8  -9909250.392 7
  22345455.070   -11243428.468 7  -8761132.129 6
 91 11 20 19 47  0.0030000  0  3 23 21 17
  21710251.509   -14976847.572 8 -11670258.760 9
  22337107.043   -12751252.437 7  -9936028.873 7
  22356510.516   -11185357.437 7  -8715882.049 6
 91 11 20 19 47 30.0030000  0  3 23 21 17
  21717108.066   -14940817.015 8 -11642183.067 9
  22330615.929   -12785376.349 7  -9962618.914 7
  22367610.931   -11127022.048 7  -8670426.000 6
 91 11 20 19 48  0.0030000  0  3 23 21 17
  21724004.776   -14904569.150 8 -11613938.046 9
  22324171.895   -12819238.347 7  -9989004.860 7
  22378762.598   -11068425.177 7  -8624766.184 6
 91 11 20 19 48 30.0030000  0  3 23 21 17
  21730946.787   -14868098.295 8 -11585519.254 9
  22317781.817   -12852834.505 8 -10015183.667 7
  22389965.254   -11009553.881 7  -8578892.541 6
 91 11 20 19 49  0.0030000  0  3 23 21 17
  21737926.246   -14831400.354 8 -11556923.518 9
  22311432.521   -12886171.990 7 -10041160.895 7
  22401225.757   -10950400.274 7  -8532798.915 6
 91 11 20 19 49 30.0030000  0  3 23 21 17
  21744959.085   -14794457.424 8 -11528136.898 9
  22305141.368   -12919239.324 7 -10066927.622 7
  22412536.622   -10890947.303 7  -8486472.019 7
 91 11 20 19 50  0.0030000  0  3 23 21 17
  21752036.579   -14757265.114 8 -11499155.953 9
  22298903.299   -12952040.487 8 -10092486.930 7
  22423901.757   -10831189.829 7  -8439907.829 6
 91 11 20 19 50 30.0030000  0  4 23 21 11 17
  21759158.153   -14719837.243 8 -11469991.448 9
  22292704.790   -12984595.798 7 -10117854.669 8
  25551819.642     -258771.791 5   -201640.866 4
  22435339.432   -10771122.793 7  -8393102.433 6
 91 11 20 19 51  0.0030000  0  4 23 21 11 17
  21766322.287   -14682191.646 8 -11440657.284 9
  22286559.033   -13016900.215 8 -10143026.904 7
  25532667.400     -359388.078 5   -280043.015 4
  22446824.781   -10710755.442 7  -8346063.024 7
 91 11 20 19 51 30.0030000  0  4 23 21 11 17
  21773527.796   -14644336.831 8 -11411160.099 9
  22280462.450   -13048951.643 7 -10168002.012 7
  25513539.745     -459889.770 5   -358355.905 4
  22458366.495   -10650093.498 7  -8298794.065 7
 91 11 20 19 52  0.0030000  0  4 23 21 11 17
  21780769.288   -14606269.361 8 -11381497.196 9
  22274408.446   -13080752.948 7 -10192782.227 7
  25494439.959     -560271.207 6   -436575.111 2
  22469967.871   -10589142.623 7  -8251299.963 7
 91 11 20 19 52 30.0030000  0  4 23 21 11 17
  21788052.747   -14568003.564 8 -11351679.742 9
  22268401.505   -13112300.910 7 -10217365.025 7
  25475357.570     -660536.664 5   -514703.962 3
  22481616.903   -10527906.942 7  -8203583.941 6
 91 11 20 19 53  0.0030000  0  4 23 21 11 17
  21795372.485   -14529537.746 8 -11321706.439 9
  22262447.630   -13143586.845 8 -10241743.650 8
  25456302.769     -760682.733 5   -592739.747 3
  22493324.691   -10466388.065 7  -8155647.225 6
 91 11 20 19 53 30.0030000  0  4 23 21 11 17
  21802734.173   -14490847.512 8 -11291558.256 9
  22256543.820   -13174618.643 8 -10265924.257 8
  25437265.943     -860698.009 5   -670673.588 3
  22505087.045   -10404568.328 7  -8107476.093 6
 91 11 20 19 54  0.0030000  0  4 23 21 11 17
  21810139.958   -14451946.386 8 -11261245.741 9
  22250684.665   -13205407.741 8 -10289915.737 8
  25418264.506     -960589.560 5   -748511.046 2
  22516906.671   -10342449.105 7  -8059071.600 7
 91 11 20 19 54 30.0030000  0  4 23 21 11 17
  21817579.300   -14412838.379 8 -11230772.008 9
  22244876.186   -13235939.314 8 -10313706.561 7
  25399277.744    -1060352.987 6   -826248.666 3
  22528788.053   -10280026.454 7  -8010430.661 6
 91 11 20 19 55  0.0030000  0  4 23 21 11 17
  21825062.128   -14373514.284 8 -11200129.895 9
  22239112.379   -13266230.868 7 -10337310.346 6
  25380316.477    -1159993.259 6   -903890.307 2
  22540720.686   -10217316.400 7  -7961565.766 6
 91 11 20 19 55 30.0030000  0  4 23 21 11 17
  21832589.611   -14333962.432 8 -11169310.302 9
  22233395.042   -13296268.003 7 -10360715.892 7
  25361382.188    -1259504.364 5   -981431.267 3
  22552709.387   -10154324.641 7  -7912481.367 6
 91 11 20 19 56  0.0030000  0  4 23 21 11 17
  21840156.968   -14294192.880 8 -11138321.068 9
  22227730.457   -13326034.033 7 -10383910.190 7
  25342467.670    -1358884.010 5  -1058869.755 4
  22564743.947   -10091068.738 7  -7863191.139 6
 91 11 20 19 56 30.0030000  0  4 23 21 11 17
  21847763.902   -14254209.529 8 -11107165.251 9
  22222113.843   -13355536.367 7 -10406898.996 7
  25323584.946    -1458132.368 5  -1136205.947 2
  22576832.481   -10027565.702 7  -7813708.346 6
 91 11 20 19 57  0.0030000  0  4 23 21 11 17
  21855413.414   -14214014.201 8 -11075844.241 9
  22216557.205   -13384767.294 8 -10429676.331 8
  25304725.903    -1557236.631 6  -1213429.844 2
  22588963.279    -9963795.936 7  -7764017.700 6
 91 11 20 19 57 30.0030000  0  4 23 21 11 17
  21863098.595   -14173630.335 8 -11044376.326 9
  22211045.815   -13413730.141 8 -10452244.776 7
  25285895.931    -1656191.941 6  -1290537.734 2
  22601154.350    -9899747.955 7  -7714110.285 6
 91 11 20 19 58  0.0030000  0  4 23 21 11 17
  21870815.849   -14133076.039 8 -11012775.604 9
  22205582.100   -13442453.731 8 -10474626.781 8
  25267088.767    -1755000.661 6  -1367531.386 1
  22613395.468    -9835418.099 7  -7663983.229 6
 91 11 20 19 58 30.0030000  0  4 23 21 11 17
  21878565.176   -14092349.123 8 -10981040.367 9
  22200154.960   -13470954.521 8 -10496835.178 8
  25248315.753    -1853663.741 5  -1444411.507 4
  22625694.155    -9770792.902 7  -7613626.025 6
 91 11 20 19 59  0.0030000  0  4 23 21 11 17
  21886350.190   -14051445.895 8 -10949167.761 9
  22194772.772   -13499230.373 8 -10518868.306 8
  25229573.329    -1952176.667 5  -1521174.619 2
  22638047.408    -9705867.381 7  -7563034.817 6
 91 11 20 19 59 30.0030000  0  4 23 21 11 17
  21894169.685   -14010350.055 8 -10917145.055 9
  22189436.181   -13527289.415 8 -10540732.478 8
  25210851.287    -2050538.611 5  -1597820.059 5
  22650458.213    -9640648.087 7  -7512214.703 5
 91 11 20 20  0  0.0030000  0  4 23 21 11 17
  21902031.741   -13969046.187 8 -10884960.259 9
  22184139.743   -13555117.745 7 -10562416.886 8
  25192163.727    -2148745.948 5  -1674345.072 3
  22662925.381    -9575138.983 7  -7461168.751 6
 91 11 20 20  0 30.0030000  0  4 23 21 11 17
  21909934.560   -13927519.182 8 -10852601.591 9
  22178892.480   -13582684.657 7 -10583897.603 7
  25173508.851    -2246785.072 5  -1750739.003 3
  22675449.507    -9509324.380 7  -7409884.761 7
 91 11 20 20  1  0.0030000  0  4 23 21 11 17
  21917876.364   -13885781.387 8 -10820078.676 9
  22173697.969   -13609985.647 8 -10605171.103 8
  25154881.232    -2344657.100 5  -1827002.696 3
  22688026.402    -9443221.231 7  -7358375.901 6
 91 11 20 20  1 30.0030000  0  4 23 21 11 17
  21925856.837   -13843822.634 8 -10787383.587 9
  22168554.134   -13637011.002 8 -10626229.829 8
  25136292.004    -2442348.657 6  -1903125.797 3
  22700666.555    -9376816.072 7  -7306631.718 6
 91 11 20 20  2  0.0030000  0  4 23 21 11 17
  21933885.281   -13801648.180 8 -10754520.430 9
  22163463.661   -13663764.654 8 -10647076.852 7
  25117739.944    -2539854.688 6  -1979104.364 3
  22713355.271    -9310116.466 7  -7254658.112 6
 91 11 20 20  2 30.0030000  0  4 23 21 11 17
  21941950.911   -13759271.978 8 -10721500.072 9
  22158420.251   -13690267.988 8 -10667728.822 8
  25099219.976    -2637179.104 6  -2054941.403 4
  22726104.837    -9243136.280 7  -7202465.868 6
 91 11 20 20  3  0.0030000  0  4 23 21 11 17
  21950049.801   -13716698.727 8 -10688326.182 9
  22153421.497   -13716535.145 8 -10688196.762 7
  25080732.064    -2734314.794 6  -2130631.358 4
  22738903.891    -9175873.535 7  -7150053.438 6
 91 11 20 20  3 30.0030000  0  4 23 21 11 17
  21958188.862   -13673928.349 8 -10654998.686 9
  22148465.042   -13742586.069 8 -10708496.206 7
  25062279.837    -2831263.280 5  -2206175.444 4
  22751756.587    -9108328.248 7  -7097420.843 6
 91 11 20 20  4  0.0030000  0  4 23 21 11 17
  21966365.109   -13630966.180 8 -10621521.745 9
  22143544.552   -13768429.425 8 -10728633.919 8
  25043865.390    -2928025.302 5  -2281574.167 3
  22764664.757    -9040507.493 7  -7044573.605 6
 91 11 20 20  4 30.0030000  0  4 23 21 11 17
  21974571.615   -13587821.986 7 -10587902.965 9
  22138669.310   -13794054.069 8 -10748601.206 7
  25025491.113    -3024597.694 6  -2356825.194 3
  22777620.881    -8972402.182 7  -6991504.621 5
 91 11 20 20  5  0.0030000  0  4 23 21 11 17
  21982822.200   -13544489.405 8 -10554137.395 9
  22133839.665   -13819446.607 8 -10768387.631 8
  25007158.211    -3120975.348 6  -2431924.483 3
  22790639.372    -8904006.927 7  -6938209.705 6
 91 11 20 20  5 30.0030000  0  4 23 21 11 17
  21991102.172   -13500962.289 8 -10520220.243 9
  22129051.971   -13844600.350 8 -10787987.975 7
  24988852.270    -3217158.971 6  -2506872.597 2
  22803707.316    -8835325.457 7  -6884691.772 5
 91 11 20 20  6  0.0030000  0  4 23 21 11 17
  21999420.219   -13457246.053 7 -10486155.720 9
  22124320.048   -13869483.685 8 -10807377.612 7
  24970588.017    -3313140.280 6  -2581663.085 1
  22816833.440    -8766352.193 7  -6830946.473 5
 91 11 20 20  6 30.0030000  0  4 23 21 11 17
  22007776.640   -13413354.812 8 -10451954.843 9
  22119635.188   -13894084.438 8 -10826547.046 8
  24952359.746    -3408920.237 6  -2656296.619 2
  22830016.207    -8697090.944 7  -6776976.740 5
 91 11 20 20  7  0.0030000  0  4 23 21 11 17
  22016163.633   -13369278.217 8 -10417609.514 9
  22115009.397   -13918398.419 8 -10845493.019 8
  24934170.128    -3504489.358 6  -2730765.925 2
  22843247.555    -8627530.117 6  -6722773.598 5
 91 11 20 20  7 30.0030000  0  4 23 21 11 17
  22024585.091   -13325028.694 8 -10383129.442 9
  22110435.171   -13942433.393 8 -10864221.562 8
  24916029.387    -3599851.578 6  -2805073.970 4
  22856544.551    -8557669.849 7  -6668337.120 5
 91 11 20 20  8  0.0030000  0  4 23 21 11 17
  22033034.748   -13280609.540 8 -10348517.190 9
  22105914.291   -13966188.258 8 -10882731.833 8
  24897920.127    -3695003.275 6  -2879217.922 4
  22869888.611    -8487516.902 6  -6613672.568 6
 91 11 20 20  8 30.0030000  0  4 23 21 11 17
  22041519.777   -13236009.880 8 -10313764.267 9
  22101444.680   -13989672.617 8 -10901031.320 8
  24879856.430    -3789934.465 6  -2953190.079 2
  22883306.118    -8417060.767 7  -6558771.782 6
 91 11 20 20  9  0.0030000  0  4 23 21 11 17
  22050047.367   -13191214.396 8 -10278858.750 9
  22097027.541   -14012905.771 8 -10919135.046 9
  24861829.308    -3884639.618 6  -3026986.188 3
  22896771.596    -8346301.977 7  -6503635.147 6
 91 11 20 20  9 30.0030000  0  4 23 21 11 17
  22058606.437   -13146232.479 8 -10243807.968 9
  22092648.479   -14035905.719 8 -10937057.054 9
  24843845.968    -3979125.694 6  -3100611.598 1
  22910286.545    -8275275.711 7  -6448290.092 5
 91 11 20 20 10  0.0030000  0  4 23 21 11 17
  22067200.303   -13101069.445 8 -10208616.049 9
  22088318.277   -14058672.100 8 -10954797.047 8
  24825910.286    -4073382.721 6  -3174058.501 2
  22923848.244    -8203988.914 7  -6392742.040 6
 91 11 20 20 10 30.0030000  0  4 23 21 11 17
  22075825.631   -13055746.600 8 -10173299.590 9
  22084023.150   -14081220.398 8 -10972367.120 8
  24808017.461    -4167416.276 6  -3247331.279 3
  22937467.825    -8132442.678 7  -6336991.840 5
 91 11 20 20 11  0.0030000  0  4 23 21 11 17
  22084482.126   -13010263.765 8 -10137858.462 9
  22079772.399   -14103566.226 8 -10989779.388 7
  24790162.433    -4261226.482 5  -3320430.012 4
  22951125.761    -8060643.657 7  -6281044.667 6
 91 11 20 20 11 30.0030000  0  4 23 21 11 17
  22093168.914   -12964619.715 8 -10102291.702 9
  22075560.615   -14125689.112 8 -11007017.960 8
  24772359.249    -4354805.215 6  -3393348.324 2
  22964842.766    -7988575.657 7  -6224887.889 5
 91 11 20 20 12  0.0030000  0  4 23 21 11 17
  22101886.589   -12918797.464 8 -10066586.084 8
  22071397.394   -14147582.786 8 -11024077.926 8
  24754591.159    -4448139.691 6  -3466076.309 4
  22978610.447    -7916198.513 6  -6168490.241 5
 91 11 20 20 12 30.0030000  0  4 23 21 11 17
  22110644.714   -12872774.936 8 -10030724.417 9
  22067275.251   -14169240.282 8 -11040953.853 8
  24736883.009    -4541227.537 6  -3538612.144 4
  22992450.965    -7843497.881 6  -6111840.526 4
 91 11 20 20 13  0.0030000  0  4 23 21 11 17
  22119445.731   -12826542.137 8  -9994698.894 9
  22063201.062   -14190653.484 8 -11057639.433 8
  24719215.048    -4634064.921 6  -3610952.822 4
  23006341.845    -7770478.136 6  -6054942.137 5
 91 11 20 20 13 30.0030000  0  4 23 21 11 17
  22128278.508   -12780107.659 8  -9958516.229 8
  22059178.455   -14211799.443 8 -11074116.767 8
  24701600.745    -4726646.588 6  -3683094.217 4
  23020304.671    -7697136.984 6  -5997793.303 5
 91 11 20 20 14  0.0030000  0  4 23 21 11 17
  22137149.378   -12733489.399 8  -9922190.365 9
  22055199.299   -14232691.107 8 -11090395.959 8
  24684026.910    -4818973.615 5  -3755037.199 3
  23034316.079    -7623480.436 6  -5940398.731 5
 91 11 20 20 14 30.0030000  0  4 23 21 11 17
  22146053.212   -12686705.206 8  -9885735.192 9
  22051276.211   -14253323.482 8 -11106473.110 9
  24666514.221    -4911041.999 6  -3826778.594 4
  23048388.040    -7549532.317 6  -5882776.938 5
 91 11 20 20 15  0.0030000  0  4 23 21 11 17
  22154983.728   -12639769.875 8  -9849162.269 9
  22047394.201   -14273702.077 8 -11122352.529 8
  24649040.829    -5002846.300 6  -3898314.263 4
  23062513.363    -7475304.415 6  -5824937.146 5
 91 11 20 20 15 30.0030000  0  4 23 21 11 17
  22163944.519   -12592681.698 8  -9812470.256 9
  22043568.555   -14293828.793 8 -11138035.674 9
  24631624.378    -5094382.826 6  -3969641.271 4
  23076691.141    -7400790.567 7  -5766874.530 5
 91 11 20 20 16  0.0030000  0  4 23 21 11 17
  22172935.901   -12545438.831 8  -9775657.693 9
  22039781.875   -14313717.834 8 -11153533.625 8
  24614253.803    -5185652.237 6  -4040760.137 5
  23090922.282    -7326010.425 6  -5708604.424 5
 91 11 20 20 16 30.0030000  0  4 23 21 11 17
  22181957.559   -12498028.254 8  -9738714.450 9
  22036045.260   -14333359.317 8 -11168838.690 8
  24596936.294    -5276645.885 6  -4111664.090 4
  23105199.597    -7250968.925 6  -5650130.662 5
 91 11 20 20 17  0.0030000  0  4 23 21 11 17
  22191011.587   -12450438.206 8  -9701631.363 9
  22032356.022   -14352743.974 8 -11183943.629 9
  24579672.741    -5367356.650 6  -4182347.619 4
  23119535.073    -7175644.903 6  -5591436.738 5
 91 11 20 20 17 30.0030000  0  4 23 21 11 17
  22200102.190   -12402666.864 8  -9664407.017 8
  22028715.331   -14371878.495 8 -11198853.654 9
  24562474.853    -5457785.929 6  -4252811.830 4
  23133922.725    -7100032.113 6  -5532517.792 4
 91 11 20 20 18  0.0030000  0  4 23 21 11 17
  22209228.777   -12354719.646 8  -9627045.617 8
  22025117.829   -14390771.949 8 -11213575.851 9
  24545317.730    -5547933.073 6  -4323056.202 4
  23148367.020    -7024141.084 6  -5473382.070 5
 91 11 20 20 18 30.0030000  0  4 23 21 11 17
  22218380.840   -12306608.740 8  -9589556.655 9
  22021568.280   -14409429.531 8 -11228114.248 8
  24528215.766    -5637795.405 7  -4393078.659 4
  23162862.288    -6947955.123 6  -5414016.499 4
 91 11 20 20 19  0.0030000  0  4 23 21 11 17
  22227572.480   -12258323.058 8  -9551931.500 9
  22018064.014   -14427851.546 8 -11242469.065 9
  24511170.463    -5727361.902 6  -4462870.585 5
  23177421.109    -6871460.352 6  -5354410.301 6
 91 11 20 20 19 30.0030000  0  4 23 21 11 17
  22236791.692   -12209869.546 8  -9514175.567 9
  22014598.105   -14446051.039 8 -11256650.489 9
  24494181.228    -5816633.559 6  -4532432.734 5
  23192030.885    -6794665.193 6  -5294570.054 4
 91 11 20 20 20  0.0030000  0  4 23 21 11 17
  22246043.885   -12161254.369 8  -9476293.650 9
  22011178.385   -14464022.492 8 -11270654.220 8
  24477250.154    -5905607.895 6  -4601763.206 4
  23206704.233    -6717575.297 6  -5234500.114 5
 91 11 20 20 20 30.0030000  0  5 23 21 11 17 12
  22255324.853   -12112482.726 8  -9438289.819 9
  22007802.711   -14481764.489 8 -11284479.146 9
  24460374.537    -5994282.786 6  -4670860.370 4
  23221429.145    -6640182.715 6  -5174194.341 6
  25393084.627      -19004.49315    -14812.060 1
 91 11 20 20 21  0.0030000  0  5 23 21 11 17 12
  22264638.819   -12063534.844 8  -9400148.646 8
  22004472.616   -14499264.936 8 -11298115.842 9
  24443557.378    -6082653.294 6  -4739720.339 4
  23236218.501    -6562484.247 6  -5113650.205 5
  25383273.329      -70579.002 5    -54999.955 2
 91 11 20 20 21 30.0030000  0  5 23 21 11 17 12
  22273984.842   -12014421.686 8  -9361878.692 9
  22001191.085   -14516509.362 8 -11311553.036 8
  24426803.180    -6170716.230 6  -4808340.673 4
  23251060.627    -6484495.505 6  -5052879.868 5
  25373530.977     -121782.301 5    -94898.537 2
 91 11 20 20 22  0.0030000  0  5 23 21 11 17 12
  22283362.641   -11965152.745 8  -9323487.337 9
  21997959.636   -14533496.509 8 -11324789.742 9
  24410100.547    -6258471.845 6  -4876721.527 4
  23265953.707    -6406229.809 6  -4991893.736 4
  25363857.571     -172614.805 4   -134508.049 2
 91 11 20 20 22 30.0030000  0  5 23 21 11 17 12
  22292762.341   -11915724.339 8  -9284971.727 9
  21994774.029   -14550222.862 8 -11337823.227 8
  24393463.858    -6345916.462 6  -4944860.053 5
  23280903.466    -6327676.400 6  -4930683.397 3
  25354249.516     -223072.903 5   -173825.973 3
 91 11 20 20 23  0.0030000  0  5 23 21 11 17 12
  22302202.210   -11866126.437 8  -9246324.045 9
  21991647.491   -14566681.109 8 -11350647.784 9
  24376881.736    -6433042.771 6  -5012750.566 6
  23295902.678    -6248838.593 6  -4869251.459 4
  25344720.319     -273149.214 5   -212846.286 3
 91 11 20 20 23 30.0030000  0  5 23 21 11 17 12
  22311676.544   -11816363.759 7  -9207547.967 8
  21988562.938   -14582874.082 8 -11363265.644 8
  24360366.763    -6519840.935 6  -5080385.345 4
  23310957.365    -6169714.750 6  -4807596.613 4
  25335272.963     -322833.796 5   -251561.450 2
 91 11 20 20 24  0.0030000  0  5 23 21 11 17 12
  22321176.670   -11766430.747 7  -9168639.171 8
  21985530.526   -14598816.588 8 -11375688.331 9
  24343910.562    -6606309.238 6  -5147763.123 4
  23326076.495    -6090286.862 6  -4745704.846 3
  25325891.848     -372125.106 4   -289970.121 2
 91 11 20 20 24 30.0030000  0  5 23 21 11 17 12
  22330709.165   -11716331.206 7  -9129600.617 9
  21982540.397   -14614525.663 8 -11387929.130 9
  24327514.617    -6692448.906 6  -5214884.809 5
  23341245.394    -6010559.713 6  -4683579.929 4
  25316586.886     -421024.103 4   -328073.014 1
 91 11 20 20 25  0.0030000  0  5 23 21 11 17 12
  22340272.844   -11666079.810 7  -9090443.735 9
  21979588.640   -14630023.548 8 -11400005.359 9
  24311191.509    -6778266.200 6  -5281755.301 5
  23356469.452    -5930563.750 6  -4621245.516 5
  25307353.888     -469537.342 4   -365875.482 1
 91 11 20 20 25 30.0030000  0  5 23 21 11 17 12
  22349862.018   -11615676.350 7  -9051168.357 9
  21976680.666   -14645310.340 8 -11411917.114 8
  24294919.076    -6863755.046 6  -5348369.866 3
  23371744.780    -5850296.262 6  -4558699.549 3
  25298205.420     -517658.589 4   -403372.371 1
 91 11 20 20 26  0.0030000  0  5 23 21 11 17 12
  22359479.950   -11565121.294 7  -9011774.861 8
  21973812.548   -14660378.578 8 -11423658.552 9
  24278712.291    -6948910.769 6  -5414724.847 4
  23387072.859    -5769755.314 6  -4495940.498 3
  25289114.816     -565383.279 4   -440560.258 1
 91 11 20 20 26 30.0030000  0  5 23 21 11 17 12
  22369133.271   -11514413.382 7  -8972262.256 8
  21970992.698   -14675217.271 8 -11435221.157 9
  24262575.376    -7033730.921 6  -5480818.320 5
  23402448.316    -5688949.567 6  -4432975.104 3
  25280107.554     -612709.193 4   -477437.753 3
 91 11 20 20 27  0.0030000  0  5 23 21 11 17 12
  22378812.366   -11463543.439 7  -8932623.384 8
  21968215.722   -14689800.526 8 -11446584.713 8
  24246495.699    -7118212.056 6  -5546647.673 4
  23417878.043    -5607862.796 6  -4369790.738 3
  25271178.522     -659632.898 4   -514001.416 1
 91 11 20 20 27 30.0030000  0  5 23 21 11 17 12
  22388523.848   -11412520.299 8  -8892865.142 7
  21965492.110   -14704117.807 8 -11457741.026 9
  24230491.284    -7202352.798 6  -5612211.734 5
  23433357.817    -5526481.483 6  -4306376.866 3
  25262326.254     -706152.685 4   -550250.398 2
 91 11 20 20 28  0.0030000  0  5 23 21 11 17 12
  22398261.698   -11361350.696 8  -8852992.779 7
  21962814.357   -14718169.885 8 -11468690.693 9
  24214542.623    -7286143.761 7  -5677503.288 5
  23448905.053    -5444802.973 6  -4242731.420 4
  25253554.029     -752259.398 4   -586177.828 2
 91 11 20 20 28 30.0030000  0  5 23 21 11 17 12
  22408025.950   -11310037.788 8  -8813008.759 8
  21960189.983   -14731967.894 8 -11479442.376 9
  24198663.814    -7369582.593 6  -5742520.448 5
  23464511.062    -5362824.206 6  -4178852.006 3
  25244857.050     -797950.972 4   -621781.811 2
 91 11 20 20 29  0.0030000  0  5 23 21 11 17 12
  22417812.067   -11258602.413 7  -8772929.308 7
  21957610.265   -14745536.852 8 -11490015.588 9
  24182850.061    -7452670.917 6  -5807264.432 5
  23480163.820    -5280558.490 6  -4114748.983 4
  25236240.115     -843229.036 4   -657063.601 1
 91 11 20 20 29 30.0030000  0  5 23 21 11 17 12
  22427625.773   -11207047.212 8  -8732756.471 7
  21955068.030   -14758894.511 8 -11500424.156 9
  24167109.162    -7535396.939 6  -5871726.106 4
  23495869.941    -5198022.221 6  -4050435.143 4
  25227703.521     -888082.015 5   -692014.203 3
 91 11 20 20 30  0.0030000  0  5 23 21 11 17 12
  22437459.564   -11155362.927 8  -8692483.055 7
  21952563.854   -14772050.385 8 -11510675.491 9
  24151436.301    -7617758.706 6  -5935903.973 4
  23511621.345    -5115231.892 6  -3985923.333 4
  25219256.272     -932507.910 5   -726631.975 3
 91 11 20 20 30 30.0030000  0  5 23 21 11 17 12
  22447317.645   -11103549.418 8  -8652108.940 7
  21950098.959   -14785001.643 8 -11520767.374 9
  24135832.107    -7699756.245 6  -5999798.056 5
  23527426.409    -5032184.762 6  -3921211.433 3
  25210875.578     -976507.220 5   -760916.896 2
 91 11 20 20 31  0.0030000  0  5 23 21 11 17 12
  22457203.909   -11051595.066 7  -8611625.078 7
  21947680.533   -14797724.313 8 -11530681.140 9
  24120297.173    -7781375.238 6  -6063397.159 6
  23543281.520    -4948875.713 6  -3856295.419 5
  25202586.009    -1020065.935 5   -794858.966 1
 91 11 20 20 31 30.0030000  0  5 23 21 11 17 12
  22467122.229   -10999483.884 7  -8571019.010 8
  21945302.592   -14810202.509 8 -11540404.404 9
  24104841.968    -7862610.746 7  -6126697.418 5
  23559183.118    -4865288.104 6  -3791162.352 3
  25194388.193    -1063179.419 5   -828453.643 2
 91 11 20 20 32  0.0030000  0  5 23 21 11 17 12
  22477064.857   -10947215.692 7  -8530290.595 7
  21942977.089   -14822431.034 8 -11549933.127 9
  24089457.211    -7943466.075 6  -6189701.465 4
  23575144.971    -4781402.444 6  -3725797.056 4
  25186261.121    -1105850.744 5   -861703.807 3
 91 11 20 20 32 30.0030000  0  5 23 21 11 17 12
  22487044.951   -10894787.632 7  -8489437.606 7
  21940694.478   -14834404.466 8 -11559263.059 9
  24074144.121    -8023933.560 6  -6252403.272 3
  23591176.068    -4697192.873 6  -3660179.365 4
  25178229.379    -1148072.567 5   -894603.765 3
 91 11 20 20 33  0.0030000  0  5 23 21 11 17 12
  22497058.304   -10842187.272 7  -8448450.353 7
  21938467.917   -14846125.962 8 -11568396.676 9
  24058901.164    -8104013.103 6  -6314802.786 5
  23607262.027    -4612664.785 6  -3594313.493 4
  25170283.073    -1189845.197 5   -927154.090 2
 91 11 20 20 33 30.0030000  0  5 23 21 11 17 12
  22507097.764   -10789407.472 7  -8407323.270 8
  21936282.435   -14857606.568 8 -11577342.585 9
  24043738.862    -8183700.998 6  -6376897.141 5
  23623401.961    -4527820.998 6  -3528201.581 2
  25162419.517    -1231165.045 5   -959351.271 2
 91 11 20 20 34  0.0030000  0  5 23 21 11 17 12
  22517171.984   -10736462.094 7  -8366067.177 8
  21934142.811   -14868854.249 8 -11586106.976 9
  24028653.602    -8262993.772 7  -6438683.634 4
  23639604.244    -4442670.567 6  -3461850.753 4
  25154647.992    -1272028.859 5   -991193.021 3
 91 11 20 20 34 30.0030000  0  5 23 21 11 17 12
  22527277.998   -10683364.812 7  -8324692.706 8
  21932045.469   -14879874.287 8 -11594694.000 9
  24013639.400    -8341891.331 7  -6500162.155 5
  23655862.891    -4357242.781 6  -3395283.778 5
  25146959.514    -1312436.678 5  -1022679.546 2
 91 11 20 20 35  0.0030000  0  5 23 21 11 17 12
  22537407.972   -10630110.759 7  -8283196.078 8
  21929992.486   -14890659.866 8 -11603098.311 9
  23998701.944    -8420382.456 6  -6561323.970 6
  23672176.401    -4271557.704 6  -3328516.338 5
  25139352.894    -1352377.883 5  -1053802.440 2
 91 11 20 20 35 30.0030000  0  5 23 21 11 17 12
  22547569.740   -10576712.374 7  -8241586.992 8
  21927983.268   -14901211.733 8 -11611320.516 9
  23983845.736    -8498459.441 7  -6622163.085 4
  23688526.767    -4185612.996 6  -3261546.584 5
  25131846.090    -1391844.972 4  -1084555.919 2
 91 11 20 20 36  0.0030000  0  5 23 21 11 17 12
  22557757.892   -10523177.069 7  -8199871.211 8
  21926022.335   -14911526.349 8 -11619357.844 9
  23969062.662    -8576125.426 7  -6682681.946 5
  23704930.216    -4099414.151 6  -3194378.799 4
  25124428.019    -1430841.316 4  -1114942.595 2
 91 11 20 20 36 30.0030000  0  5 23 21 11 17 12
  22567974.523   -10469484.583 7  -8158032.957 8
  21924108.447   -14921586.989 8 -11627197.270 9
  23954365.635    -8653375.667 7  -6742876.854 5
  23721377.430    -4012956.141 6  -3127009.039 4
  25117090.901    -1469362.467 4  -1144958.927 1
 91 11 20 20 37  0.0030000  0  5 23 21 11 17 12
  22578223.228   -10415634.100 7  -8116071.601 8
  21922242.548   -14931399.261 8 -11634843.166 9
  23939739.962    -8730214.913 7  -6802751.490 6
  23737887.604    -3926227.368 6  -3059428.321 4
  25109852.411    -1507413.659 4  -1174609.099 3
 91 11 20 20 37 30.0030000  0  5 23 21 11 17 12
  22588504.007   -10361627.421 7  -8073988.531 8
  21920419.803   -14940964.448 8 -11642296.541 9
  23925203.023    -8806638.156 7  -6862301.985 5
  23754444.842    -3839207.189 6  -2991620.544 5
  25102704.767    -1544990.044 5  -1203889.246 2
 91 11 20 20 38  0.0030000  0  5 23 21 11 17 12
  22598804.573   -10307474.164 7  -8031791.260 8
  21918645.639   -14950286.308 8 -11649560.311 9
  23910734.436    -8882648.955 7  -6921531.085 5
  23771056.036    -3751900.686 6  -2923589.632 4
  25095634.759    -1582095.203 5  -1232802.175 1
 91 11 20 20 38 30.0030000  0  5 23 21 11 17 12
  22609133.619   -10253198.814 7  -7989498.840 8
  21916918.835   -14959382.387 8 -11656648.141 9
  23896350.100    -8958249.423 7  -6980440.434 5
  23787721.796    -3664309.225 6  -2855336.705 3
  25088674.164    -1618732.039 5  -1261350.555 2
 91 11 20 20 39  0.0030000  0  5 23 21 11 17 12
  22619482.157   -10198825.312 7  -7947129.953 8
  21915222.308   -14968274.717 8 -11663577.227 9
  23882041.602    -9033438.946 7  -7039029.581 5
  23804444.218    -3576450.509 6  -2786875.516 2
  25081787.645    -1654900.367 5  -1289533.514 2
 91 11 20 20 39 30.0030000  0  5 23 21 11 17 12
  22629842.682   -10144362.637 7  -7904691.569 8
  21913570.453   -14976955.646 8 -11670341.584 9
  23867811.961    -9108208.620 7  -7097291.580 5
  23821210.125    -3488327.345 6  -2718208.262 4
  25074995.549    -1690591.385 5  -1317344.907 2
 91 11 20 20 40  0.0030000  0  5 23 21 11 17 12
  22640229.890   -10089805.185 7  -7862179.343 8
  21911963.864   -14985402.579 8 -11676923.586 9
  23853664.459    -9182550.514 7  -7155220.242 6
  23838034.474    -3399939.081 6  -2649334.453 4
  25068287.388    -1725797.849 5  -1344778.327 2
 91 11 20 20 40 30.0040000  0  5 23 21 11 17 12
  22650628.792   -10035135.734 7  -7819579.844 7
  21910402.840   -14993610.553 8 -11683319.403 9
  23839597.597    -9256458.556 6  -7212810.822 6
  23854908.593    -3311292.160 6  -2580259.070 5
  25061687.754    -1760512.951 5  -1371829.307 2
 91 11 20 20 41  0.0040000  0  5 23 21 11 17 12
  22661057.670    -9980335.681 7  -7776878.575 7
  21908884.392   -15001577.371 8 -11689527.297 9
  23825620.060    -9329926.077 7  -7270058.135 5
  23871819.582    -3222397.252 6  -2510990.471 5
  25055170.569    -1794732.735 5  -1398493.847 2
 91 11 20 20 41 30.0040000  0  5 23 21 11 17 12
  22671514.730    -9925390.640 7  -7734064.329 7
  21907415.415   -15009309.200 8 -11695552.098 9
  23811721.381    -9402962.432 7  -7326969.503 5
  23888782.746    -3133243.364 6  -2441520.085 4
  25048751.105    -1828465.919 5  -1424779.259 2
 91 11 20 20 42  0.0040000  0  5 23 21 11 17 12
  22682003.882    -9870282.146 7  -7691122.725 7
  21905989.000   -15016817.514 8 -11701402.729 9
  23797906.654    -9475563.201 7  -7383541.444 5
  23905800.757    -3043831.410 6  -2371848.588 3
  25042427.582    -1861708.689 5  -1450682.491 2
 91 11 20 20 42 30.0040000  0  5 23 21 11 17 12
  22692521.495    -9815003.200 7  -7648048.308 8
  21904598.863   -15024117.059 8 -11707090.676 9
  23784173.158    -9547722.526 7  -7439769.393 6
  23922862.550    -2954158.399 6  -2301973.674 4
  25036193.108    -1894455.433 5  -1476199.322 3
 91 11 20 20 43  0.0040000  0  5 23 21 11 17 12
  22703074.182    -9759559.903 7  -7604845.819 7
  21903247.989   -15031202.753 8 -11712611.991 9
  23770529.601    -9619432.532 7  -7495647.225 6
  23939984.285    -2864201.172 6  -2231877.279 5
  25030056.059    -1926698.725 5  -1501323.804 2
 91 11 20 20 43 30.0040000  0  5 23 21 11 17 12
  22713649.066    -9703976.084 7  -7561533.822 7
  21901943.306   -15038070.280 8 -11717963.301 9
  23756966.698    -9690694.966 7  -7551176.300 6
  23957148.616    -2773969.442 6  -2161567.025 3
  25024023.030    -1958441.050 5  -1526057.955 2
 91 11 20 20 44  0.0040000  0  5 23 21 11 17 12
  22724253.023    -9648265.650 7  -7518123.174 8
  21900678.776   -15044706.251 8 -11723134.183 9
  23743494.327    -9761498.572 7  -7606347.851 5
  23974378.577    -2683465.091 6  -2091044.303 4
  25018078.438    -1989671.400 5  -1550393.218 2
 91 11 20 20 44 30.0040000  0  5 23 21 11 17 12
  22734873.766    -9592446.260 7  -7474627.625 8
  21899460.419   -15051114.678 8 -11728127.759 9
  23730105.596    -9831848.569 7  -7661165.947 5
  23991644.835    -2592692.881 6  -2020312.899 2
  25012232.493    -2020395.562 5  -1574333.985 2
 91 11 20 20 45  0.0040000  0  5 23 21 11 17 12
  22745515.206    -9536524.542 7  -7431052.344 8
  21898285.828   -15057290.118 8 -11732939.800 9
  23716810.397    -9901742.647 7  -7715628.789 5
  24008965.345    -2501654.600 6  -1949374.139 3
  25006471.985    -2050611.796 5  -1597879.020 3
 91 11 20 20 45 30.0040000  0  5 23 21 11 17 12
  22756179.418    -9480479.998 7  -7387381.350 7
  21897153.815   -15063219.420 8 -11737560.044 8
  23703598.540    -9971167.859 6  -7769726.255 5
  24026350.002    -2410339.015 6  -1878219.317 3
  25000829.579    -2080307.662 5  -1621018.614 2
 91 11 20 20 46  0.0040000  0  5 23 21 11 17 12
  22766867.030    -9424306.311 7  -7343609.715 8
  21896072.163   -15068918.557 8 -11742000.942 9
  23690475.732   -10040126.408 7  -7823460.082 4
  24043778.739    -2318749.270 6  -1806850.855 4
  24995277.722    -2109485.750 5  -1643754.706 2
 91 11 20 20 46 30.0040000  0  5 23 21 11 17 12
  22777579.510    -9368016.252 7  -7299747.402 8
  21895030.682   -15074402.972 8 -11746274.519 9
  23677439.547   -10108627.500 7  -7876837.471 5
  24061257.837    -2226895.100 6  -1735276.367 3
  24989822.400    -2138155.929 5  -1666095.023 2
 91 11 20 20 47  0.0040000  0  5 23 21 11 17 12
  22788311.481    -9311623.621 7  -7255805.159 8
  21894023.682   -15079684.038 8 -11750389.640 9
  23664489.112   -10176687.080 7  -7929870.840 5
  24078785.498    -2134809.668 6  -1663521.677 3
  24984460.926    -2166334.706 5  -1688052.459 2
 91 11 20 20 47 30.0040000  0  5 23 21 11 17 12
  22799059.035    -9255143.525 7  -7211794.765 8
  21893053.554   -15084787.286 8 -11754366.204 9
  23651616.034   -10244318.094 7  -7982570.242 5
  24096342.250    -2042522.611 6  -1591609.884 2
  24979191.169    -2194035.748 5  -1709637.557 1
 91 11 20 20 48  0.0040000  0  5 23 21 11 17 12
  22809823.690    -9198591.099 7  -7167727.997 8
  21892111.313   -15089730.209 8 -11758217.836 9
  23638830.487   -10311524.804 7  -8034939.012 6
  24113938.561    -1950051.020 6  -1519554.266 2
  24974000.567    -2221263.681 5  -1730854.000 3
 91 11 20 20 48 30.0040000  0  5 23 21 11 17 12
  22820596.425    -9141967.340 7  -7123605.675 7
  21891200.533   -15094505.502 8 -11761938.839 9
  23626120.184   -10378299.742 7  -8086971.328 6
  24131576.857    -1857392.863 6  -1447353.302 2
  24968922.972    -2248011.809 5  -1751696.535 1
 91 11 20 20 49  0.0040000  0  5 23 21 11 17 12
  22831399.157    -9085207.774 7  -7079377.509 7
  21890335.631   -15099049.714 8 -11765479.793 9
  23613508.807   -10444575.928 7  -8138615.019 6
  24149253.823    -1764493.493 6  -1374964.354 2
  24963930.832    -2274213.876 5  -1772113.515 2
 91 11 20 20 49 30.0040000  0  5 23 21 11 17 12
  22842213.266    -9028359.788 7  -7035080.435 7
  21889508.508   -15103397.376 8 -11768867.585 9
  23600984.978   -10510380.336 7  -8189891.088 6
  24166968.551    -1671369.336 6  -1302400.238 3
  24959052.013    -2299897.720 5  -1792126.669 2
 91 11 20 20 50  0.0040000  0  5 23 21 11 17 12
  22853045.664    -8971443.071 7  -6990729.820 7
  21888717.664   -15107555.663 8 -11772107.812 9
  23588552.291   -10575720.508 7  -8240805.407 6
  24184733.658    -1578021.179 6  -1229661.607 1
  24954252.033    -2325071.309 5  -1811742.279 2
 91 11 20 20 50 30.0040000  0  5 23 21 11 17 12
  22863892.754    -8914442.618 7  -6946313.956 7
  21887969.067   -15111500.479 8 -11775181.701 9
  23576209.822   -10640579.100 7  -8291344.478 6
  24202539.232    -1484440.753 6  -1156741.968 2
  24949565.376    -2349718.254 5  -1830947.452 3
 91 11 20 20 51  0.0040000  0  5 23 21 11 17 12
  22874752.147    -8857358.217 7  -6901832.685 7
  21887260.658   -15115234.272 8 -11778091.151 9
  23563956.715   -10704951.054 7  -8341504.356 5
  24220396.668    -1390620.340 5  -1083635.362 3
  24944975.847    -2373833.741 5  -1849738.590 2
 91 11 20 20 51 30.0040000  0  5 23 21 11 17 12
  22885636.109    -8800181.757 7  -6857279.661 7
  21886587.027   -15118763.030 8 -11780840.834 9
  23551801.626   -10768833.246 7  -8391282.593 6
  24238301.167    -1296543.185 5  -1010328.645 2
  24940484.963    -2397414.999 5  -1868113.411 3
 91 11 20 20 52  0.0040000  0  5 23 21 11 17 12
  22896538.953    -8742882.164 7  -6812630.694 7
  21885953.567   -15122081.410 8 -11783426.597 9
  23539743.369   -10832215.811 7  -8440671.520 6
  24256246.447    -1202201.490 5   -936815.791 3
  24936103.790    -2420453.486 5  -1886065.350 1
 91 11 20 20 52 30.0040000  0  5 23 21 11 17 12
  22907468.495    -8685442.949 7  -6767872.946 7
  21885364.186   -15125182.330 8 -11785842.889 9
  23527777.161   -10895093.388 7  -8489666.957 6
  24274258.580    -1107587.439 5   -863090.758 2
  24931820.965    -2442944.541 5  -1903590.759 2
 91 11 20 20 53  0.0040000  0  5 23 21 11 17 12
  22918427.407    -8627860.662 7  -6723003.697 7
  21884817.052   -15128070.503 8 -11788093.418 9
  23515910.176   -10957462.151 7  -8538265.929 5
  24292315.088    -1012694.940 5   -789148.726 3
  24927647.850    -2464885.008 5  -1920687.101 3
 91 11 20 20 53 30.0040000  0  5 23 21 11 17 12
  22929412.703    -8570127.371 7  -6678016.786 7
  21884305.307   -15130744.868 8 -11790177.345 9
  23504133.425   -11019324.175 7  -8586470.031 6
  24310416.548     -917537.928 5   -715000.602
  24923572.771    -2486277.628 5  -1937356.616 2
 91 11 20 20 54  0.0040000  0  5 23 21 11 17 12
  22940428.571    -8512235.956 7  -6632906.657 7
  21883842.440   -15133178.734 8 -11792073.876 9
  23492464.604   -11080665.631 7  -8634268.491 6
  24328580.078     -822115.556 5   -640645.757 2
  24919614.014    -2507109.546 5  -1953589.204 2
 91 11 20 20 54 30.0040000  0  5 23 21 11 17 12
  22951469.324    -8454219.072 7  -6587698.777 7
  21883422.116   -15135377.503 8 -11793787.208 9
  23480889.910   -11141491.399 7  -8681665.112 6
  24346782.278     -726437.069 5   -566091.263 2
  24915756.888    -2527386.336 5  -1969389.259 2
 91 11 20 20 55  0.0040000  0  5 23 21 11 17 12
  22962532.570    -8396089.787 7  -6542403.292 7
  21883053.672   -15137337.759 8 -11795314.687 9
  23469416.269   -11201797.242 7  -8728656.598 6
  24365039.027     -630502.724 5   -491336.962 2
  24911998.687    -2547104.271 5  -1984753.820 3
 91 11 20 20 55 30.0040000  0  5 23 21 11 17 12
  22973614.697    -8337860.807 7  -6497030.125 7
  21882724.509   -15139058.433 8 -11796655.479 9
  23458037.035   -11261583.841 7  -8775243.485 6
  24383353.362     -534311.215 5   -416382.315 2
  24908355.308    -2566264.592 5  -1999683.867 2
 91 11 20 20 56  0.0040000  0  5 23 21 11 17 12
  22984713.315    -8279541.499 7  -6451586.597 7
  21882444.503   -15140529.077 8 -11797801.436 9
  23446758.854   -11320839.024 7  -8821416.296 5
  24401700.661     -437849.484 5   -341217.526 3
  24904814.450    -2584856.171 5  -2014170.681 2
 91 11 20 20 56 30.0040000  0  5 23 21 11 17 12
  22995825.422    -8221118.772 7  -6406062.451 7
  21882210.966   -15141763.340 8 -11798763.214 9
  23435589.772   -11379548.197 7  -8867163.648 6
  24420110.309     -341129.811 5   -265851.732 2
  24901382.132    -2602865.225 5  -2028203.627 3
 91 11 20 20 57  0.0040000  0  5 23 21 11 17 12
  23006966.007    -8162580.764 7  -6360448.478 6
  21882017.897   -15142779.340 8 -11799554.899 9
  23424523.542   -11437716.620 7  -8912489.632 5
  24438560.145     -244184.995 5   -190310.115 2
  24898074.827    -2620297.777 5  -2041787.309 2
 91 11 20 20 57 30.0040000  0  5 23 21 11 17 12
  23018128.179    -8103933.632 7  -6314749.492 7
  21881858.699   -15143606.320 8 -11800199.302 9
  23413547.530   -11495362.336 7  -8957408.308 6
  24457040.536     -147050.902 5   -114621.376 2
  24894858.647    -2637172.743 5  -2054936.505 3
 91 11 20 20 58  0.0040000  0  5 23 21 11 17 12
  23029312.233    -8045162.830 7  -6268954.127 7
  21881738.188   -15144244.037 8 -11800696.227 9
  23402681.855   -11552476.304 7  -9001912.666 6
  24475562.023      -49733.614 5    -38789.509 1
  24891762.088    -2653482.163 5  -2067645.020 3
 91 11 20 20 58 30.0040000  0  5 23 21 11 17 12
  23040525.376    -7986244.855 7  -6223044.090 7
  21881650.954   -15144690.050 8 -11801043.771 9
  23391916.013   -11609047.741 7  -9045994.243 5
  24494112.285       47777.845 5     37193.259 3
  24888764.769    -2669215.809 5  -2079904.846 3
 91 11 20 20 59  0.0040000  0  5 23 21 11 17 12
  23051765.201    -7927182.003 7  -6177021.153 6
  21881607.171   -15144920.175 8 -11801223.085 9
  23381251.505   -11665077.838 7  -9089654.007 6
  24512715.892      145514.938 5    113352.287 3
  24885870.267    -2684376.225 5  -2091718.025 2
 91 11 20 20 59 30.0040000  0  5 23 21 11 17 12
  23063030.189    -7867990.704 7  -6130898.132 7
  21881606.875   -15144919.834 8 -11801222.821 9
  23370692.203   -11720565.562 7  -9132891.141 6
  24531365.690      243501.785 5    189705.438 3
  24883113.987    -2698962.995 6  -2103084.160 2
